     2              OBSERVATION DATA    GPS                 RINEX VERSION / TYPE
ASRINEXO-V2.6.2-LH IGPP 29-APR-1996                         PGM / RUN BY / DATE
                                                            COMMENT
Original Marker Name: TWIN 1933                             COMMENT
Campaign Name: Southern Islands 96                          COMMENT
4-Character Station Name: TWIN                              COMMENT
6-Character Antenna Code: DMRCHT                            COMMENT
Vertical Measurement Point: BCR                             COMMENT
Vertical Offset to Rinex Ref. Point: 0.0349                 COMMENT
Radial Measurement Point: ECF                               COMMENT
Radial Offset to Rinex Ref. Point: 0.1896                   COMMENT
Antenna Height from Field Measurement: 0.9820 m             COMMENT
Additional Antenna Identification Info.:                    COMMENT
Turborogue and Ashtech Choke Ring                           COMMENT
Original XYZ: -2628112.6426 -4649145.4731 3475578.0563      COMMENT
New XYZ position is based on association with SCEC monument COMMENT
E1C7G6C4+0011. Position of that monument is believed to be  COMMENT
valid to within 1 m horizontally; vertical accuracy         COMMENT
should be no worse than 3-times this value.                 COMMENT
                                                            COMMENT
Revised Rinex header created by UCSD GPS archive for        COMMENT
GSAC on 05-Apr-1999 (1999:095) 19:29:28 GMT                 COMMENT
For assistance contact dagnew@ucsd.edu or hjohnson@ucsd.edu COMMENT
                                                            COMMENT
TWIN 1964 SAN NIC. ISL.                                     MARKER NAME
SJD SCRIPPS INSTITUTION OF OCEANOGRAPHY                     OBSERVER / AGENCY
382 ASHTECH Z12-XII3 1E82                                   REC # / TYPE / VERS
655 DORNE-MARGOL. TYPE T                                    ANT # / TYPE
 -2628131.0000 -4649187.0000  3475596.0000                  APPROX POSITION XYZ
        0.9286        0.0000        0.0000                  ANTENNA: DELTA H/E/N
     1     1     0                                          WAVELENGTH FACT L1/2
     6    C1    L1    L2    P1    P2    S1                  # / TYPES OF OBSERV
    30                                                      INTERVAL
  1996     4    22     0     0   30.000000                  TIME OF FIRST OBS
  1996     4    22    16    47   60.000000                  TIME OF LAST OBS
     0                                                      # OF SATELLITES
                                                            END OF HEADER
 96  4 22  0  0 30.0000000  0  7 04 16 20 09 05 24 06
  24701403.357   -23699121.46446 -17862327.61747  24701403.5844   24701409.0654
       145.000
  21987376.422   -25250696.77146 -19664670.51548  21987375.8464   21987382.2654
       195.000
  21033002.379   -33436146.99246 -26029575.68848  21033002.0664   21033007.4854
       211.000
  24724623.888   -24132877.87246 -18754564.40547  24724623.5994   24724631.8914
       143.000
  20514591.871   -41867443.37347 -30842405.52148  20514591.2944   20514596.2854
       219.000
  21940027.796   -35859307.49146 -26958777.11348  21940027.5454   21940033.1824
       202.000
  22815199.419   -24261843.81246 -18145737.19648  22815199.2364   22815204.7814
       182.000
 96  4 22  0  1  0.0000000  0  7 04 16 20 09 05 24 06
  24714471.236   -23630448.53746 -17808816.27147  24714471.6574   24714477.1674
       144.000
  21970651.971   -25338584.13946 -19733154.15148  21970651.4044   21970657.7594
       195.000
  21018806.291   -33510748.04446 -26087706.37648  21018805.9934   21018811.3714
       211.000
  24736558.156   -24070162.63846 -18705695.54147  24736558.0174   24736566.3234
       145.000
  20512436.251   -41878771.21847 -30851232.42248  20512435.6864   20512440.6714
       219.000
  21947401.867   -35820557.03246 -26928581.96448  21947401.5504   21947407.1934
       202.000
  22798206.438   -24351142.57946 -18215320.61948  22798206.2404   22798211.7624
       183.000
 96  4 22  0  1 30.0000000  0  7 04 16 20 09 05 24 06
  24727539.960   -23561771.93646 -17755302.06947  24727540.2604   24727546.0574
       145.000
  21954012.169   -25426026.85146 -19801291.28748  21954011.5844   21954017.9134
       196.000
  21004700.095   -33584876.53646 -26145468.83048  21004699.7894   21004705.1674
       212.000
  24748479.509   -24007516.75346 -18656880.70847  24748479.1544   24748487.5394
       146.000
  20510385.496   -41889547.95847 -30859629.88948  20510384.9464   20510389.9454
       219.000
  21954813.740   -35781607.63146 -26898231.79148  21954813.3994   21954819.0114
       201.000
  22781225.049   -24440379.94946 -18284856.19648  22781224.8864   22781230.3934
       183.000
 96  4 22  0  2  0.0000000  0  7 04 16 20 09 05 24 06
  24740607.835   -23493099.86346 -17701791.38147  24740608.0234   24740613.9244
       143.000
  21937458.052   -25513019.08746 -19869077.40548  21937457.4644   21937463.7964
       196.000
  20990684.095   -33658531.25246 -26202862.10448  20990683.7724   20990689.1644
       212.000
  24760384.712   -23944955.13246 -18608131.55847  24760384.3824   24760392.8744
       147.000
  20508436.275   -41899791.39547 -30867611.79548  20508435.6954   20508440.7044
       219.000
  21962263.338   -35742459.62246 -26867726.85548  21962263.0424   21962268.6364
       201.000
  22764254.109   -24529562.88846 -18354349.36148  22764253.9354   22764259.4274
       183.000
 96  4 22  0  2 30.0000000  0  7 04 16 20 09 05 24 06
  24753673.148   -23424441.61546 -17648291.45747  24753673.2884   24753679.2034
       143.000
  21920989.051   -25599563.99346 -19936514.96348  21920988.4664   21920994.8344
       196.000
  20976758.150   -33731712.23746 -26259886.24048  20976757.8434   20976763.2674
       212.000
  24772271.734   -23882489.33246 -18559457.06947  24772271.3734   24772279.9664
       148.000
  20506585.842   -41909515.37347 -30875188.92748  20506585.2764   20506590.2704
       219.000
  21969749.663   -35703118.59646 -26837071.51748  21969749.3594   21969754.9804
       201.000
  22747291.194   -24618703.17746 -18423809.29348  22747291.0594   22747296.5064
       184.000
 96  4 22  0  3  0.0000000  0  7 04 16 20 09 05 24 06
  24766735.312   -23355800.06346 -17594804.53247  24766735.3564   24766741.1664
       143.000
  21904607.649   -25685648.66446 -20003593.89048  21904607.0664   21904613.4674
       197.000
  20962926.791   -33804396.56646 -26316523.37148  20962926.4684   20962931.8814
       212.000
  24784141.310   -23820114.12246 -18510853.19447  24784141.1854   24784149.7454
       147.000
  20504837.866   -41918701.10547 -30882346.65248  20504837.2974   20504842.2724
       218.000
  21977275.222   -35663571.29746 -26806255.45248  21977274.9594   21977280.6024
       201.000
  22730340.221   -24707781.28846 -18493220.77148  22730340.0134   22730345.4824
       184.000
 96  4 22  0  3 30.0000000  0  7 04 16 20 09 05 24 06
  24779786.385   -23287215.84646 -17541362.30647  24779786.7104   24779792.2464
       145.000
  21888309.558   -25771295.49746 -20070331.64048  21888308.9994   21888315.3274
       197.000
  20949186.159   -33876604.10146 -26372788.97448  20949185.8504   20949191.2494
       212.000
  24795988.107   -23757860.32646 -18462343.87847  24795987.8654   24795996.4124
       147.000
  20503188.829   -41927366.92947 -30889099.24748  20503188.2784   20503193.2414
       218.000
  21984838.163   -35623827.92946 -26775286.60448  21984837.8734   21984843.5004
       200.000
  22713398.536   -24796810.25046 -18562593.94648  22713398.3424   22713403.7744
       184.000
 96  4 22  0  4  0.0000000  0  7 04 16 20 09 05 24 06
  24792830.328   -23218670.50846 -17487950.37447  24792830.4914   24792836.1954
       147.000
  21872100.469   -25856474.75146 -20136705.04448  21872099.8914   21872106.1634
       197.000
  20935542.376   -33948302.52746 -26428657.87048  20935542.0664   20935547.4604
       212.000
  24807819.185   -23695687.98246 -18413898.07547  24807818.9844   24807827.5344
       147.000
  20501645.198   -41935478.73747 -30895420.14148  20501644.6474   20501649.6204
       218.000
  21992445.109   -35583853.27446 -26744137.52948  21992444.7974   21992450.4024
       200.000
  22696469.156   -24885774.44246 -18631916.67048  22696468.9914   22696474.4204
       184.000
 96  4 22  0  4 30.0000000  0  7 04 16 20 09 05 24 06
  24805864.118   -23150177.68846 -17434579.37347  24805864.2284   24805870.1054
       147.000
  21855976.112   -25941208.79346 -20202731.53448  21855975.5434   21855981.8464
       197.000
  20921993.011   -34019504.68246 -26484140.05648  20921992.7164   20921998.1204
       212.000
  24819632.059   -23633611.60846 -18365527.03547  24819631.8374   24819640.4374
       146.000
  20500209.568   -41943023.16347 -30901298.92048  20500208.9914   20500213.9844
       218.000
  22000093.512   -35543660.59546 -26712818.56848  22000093.2624   22000098.8784
       200.000
  22679548.431   -24974693.79546 -18701204.44148  22679548.2164   22679553.6434
       185.000
 96  4 22  0  5  0.0000000  0  7 04 16 20 09 05 24 06
  24818889.708   -23081726.58646 -17381240.89647  24818889.9204   24818896.0624
       147.000
  21839939.038   -26025484.06946 -20268400.54748  21839938.4554   21839944.8554
       198.000
  20908540.357   -34090199.05746 -26539226.57648  20908540.0394   20908545.4604
       212.000
  24831430.041   -23571614.20346 -18317217.52347  24831429.6894   24831438.2544
       146.000
  20498885.862   -41949979.27847 -30906719.28248  20498885.2774   20498890.2854
       218.000
  22007785.796   -35503237.43946 -26681320.01448  22007785.5374   22007791.1514
       200.000
  22662638.273   -25063557.37046 -18770448.76648  22662638.0424   22662643.4194
       185.000
 96  4 22  0  5 30.0000000  0  7 04 16 20 09 05 24 06
  24831909.656   -23013306.53046 -17327926.59247  24831909.7474   24831915.9694
       147.000
  21823989.118   -26109301.01246 -20333712.41048  21823988.5474   21823994.9724
       198.000
  20895183.239   -34160391.23546 -26593921.77348  20895182.9164   20895188.3394
       212.000
  24843212.038   -23509699.21646 -18268972.26347  24843211.7324   24843220.3024
       147.000
  20497670.742   -41956364.68747 -30911694.93348  20497670.1684   20497675.1754
       218.000
  22015521.183   -35462587.89846 -26649645.05448  22015520.9124   22015526.5214
       200.000
  22645735.150   -25152383.52446 -18839663.91348  22645734.9544   22645740.3424
       185.000
 96  4 22  0  6  0.0000000  0  7 04 16 20 09 05 24 06
  24844924.677   -22944912.12646 -17274632.28947  24844924.7374   24844930.9474
       146.000
  21808125.389   -26192665.64446 -20398671.82648  21808124.8194   21808131.1424
       198.000
  20881920.198   -34230088.86946 -26648231.61348  20881919.8884   20881925.3244
       212.000
  24854977.441   -23447871.76746 -18220795.20647  24854977.1074   24854985.9494
       147.000
  20496561.077   -41962196.03847 -30916238.85448  20496560.5064   20496565.5104
       218.000
  22023293.785   -35421742.41146 -26617817.41548  22023293.5214   22023299.1574
       199.000
  22628834.872   -25241195.12746 -18908867.73648  22628834.6844   22628840.0134
       186.000
 96  4 22  0  6 30.0000000  0  7 04 16 20 09 05 24 06
  24857939.168   -22876519.87446 -17221339.64647  24857939.4574   24857945.4494
       145.000
  21792349.880   -26275566.41646 -20463269.78448  21792349.3204   21792355.5794
       199.000
  20868752.555   -34299285.19646 -26702150.82348  20868752.2434   20868757.6634
       213.000
  24866725.127   -23386137.76446 -18172690.97347  24866724.9044   24866733.7544
       149.000
  20495555.681   -41967479.49747 -30920355.84548  20495555.1034   20495560.1134
       218.000
  22031103.153   -35380704.02846 -26585839.46148  22031102.8854   22031108.5004
       199.000
  22611942.335   -25329965.76946 -18978039.63248  22611942.1384   22611947.4914
       186.000
 96  4 22  0  7  0.0000000  0  7 04 16 20 09 05 24 06
  24870953.346   -22808129.36646 -17168048.38747  24870953.6074   24870959.8014
       143.000
  21776663.336   -26357999.74346 -20527503.51348  21776662.7604   21776669.0314
       199.000
  20855680.133   -34367981.27246 -26755680.22948  20855679.8434   20855685.2554
       213.000
  24878451.763   -23324515.18846 -18124673.54947  24878451.4564   24878460.2864
       149.000
  20494647.210   -41972253.53147 -30924075.88348  20494646.6414   20494651.6554
       218.000
  22038945.552   -35339491.77046 -26553726.02248  22038945.3064   22038950.9244
       199.000
  22595057.532   -25418695.67046 -19047179.79248  22595057.3674   22595062.7024
       186.000
 96  4 22  0  7 30.0000000  0  7 04 16 20 09 05 24 06
  24883966.429   -22739746.35446 -17114762.94047  24883966.3984   24883972.5974
       143.000
  21761065.034   -26439969.10446 -20591375.70948  21761064.4394   21761070.7524
       199.000
  20842703.564   -34436173.51246 -26808817.03248  20842703.2774   20842708.6844
       213.000
  24890153.999   -23263020.59146 -18076755.85647  24890153.6854   24890162.5894
       148.000
  20493832.212   -41976536.43247 -30927413.21248  20493831.6264   20493836.6794
       218.000
  22046816.400   -35298130.52846 -26521496.49348  22046816.1374   22046821.7644
       198.000
  22578180.850   -25507383.15346 -19116286.88948  22578180.6514   22578186.0254
       186.000
 96  4 22  0  8  0.0000000  0  7 04 16 20 09 05 24 06
  24896976.789   -22671374.79346 -17061486.44647  24896977.0914   24896983.3354
       141.000
  21745555.186   -26521473.11146 -20654885.29248  21745554.6364   21745560.9734
       199.000
  20829823.894   -34503856.62446 -26861557.11448  20829823.5834   20829829.0014
       213.000
  24901830.922   -23201658.95946 -18028941.76747  24901830.4924   24901839.5484
       146.000
  20493110.591   -41980328.60647 -30930368.16548  20493110.0354   20493115.0734
       218.000
  22054713.796   -35256629.28146 -26489157.87148  22054713.5394   22054719.1584
       198.000
  22561315.858   -25596009.33946 -19185346.22548  22561315.6364   22561320.9974
       186.000
 96  4 22  0  8 30.0000000  0  7 04 16 20 09 05 24 06
  24909984.041   -22603021.30246 -17008224.03747  24909984.3774   24909990.8284
       141.000
  21730136.671   -26602497.95546 -20718021.49048  21730136.1204   21730142.4074
       199.000
  20817044.109   -34571014.79446 -26913888.15148  20817043.7904   20817049.2134
       213.000
  24913484.260   -23140420.00846 -17981223.30547  24913483.8444   24913493.0544
       144.000
  20492484.344   -41983619.49247 -30932932.50048  20492483.7894   20492488.8304
       218.000
  22062643.019   -35214960.86746 -26456688.99048  22062642.7704   22062648.3864
       198.000
  22544467.873   -25684545.91146 -19254335.72948  22544467.6304   22544473.0044
       186.000
 96  4 22  0  9  0.0000000  0  7 04 16 20 09 05 24 06
  24922982.474   -22534714.93246 -16954998.33847  24922982.5094   24922989.2064
       139.000
  21714806.639   -26683057.80246 -20780795.36348  21714806.0534   21714812.2804
       199.000
  20804363.236   -34637653.28646 -26965814.24448  20804362.9194   20804368.3364
       213.000
  24925116.807   -23079292.02346 -17933591.28547  24925116.4004   24925125.6124
       142.000
  20491953.019   -41986411.92547 -30935108.43148  20491952.4374   20491957.4774
       218.000
  22070604.642   -35173122.50146 -26424087.68148  22070604.3594   22070609.9924
       197.000
  22527635.665   -25772999.81446 -19323260.81748  22527635.3934   22527640.7854
       187.000
 96  4 22  0  9 30.0000000  0  7 04 16 20 09 05 24 06
  24935970.572   -22466461.35946 -16901813.77847  24935970.6174   24935977.2344
       137.000
  21699564.508   -26763155.58746 -20843209.19048  21699563.9354   21699570.2324
       200.000
  20791779.631   -34703780.53046 -27017341.96048  20791779.3114   20791784.7134
       213.000
  24936730.739   -23018259.90746 -17886033.98047  24936730.4604   24936739.7364
       141.000
  20491520.237   -41988686.24047 -30936880.63548  20491519.6464   20491524.7074
       218.000
  22078600.861   -35131101.79146 -26391344.28048  22078600.6034   22078606.2204
       197.000
  22510820.074   -25861366.02846 -19392117.58548  22510819.8834   22510825.2054
       187.000
 96  4 22  0 10  0.0000000  0  7 04 16 20 09 05 24 06
  24948946.230   -22398274.57046 -16848681.23847  24948946.2944   24948952.6184
       137.000
  21684408.937   -26842798.35046 -20905268.45548  21684408.3964   21684414.6964
       200.000
  20779289.350   -34769417.23646 -27068487.44448  20779289.0474   20779294.4244
       213.000
  24948324.831   -22957333.80846 -17838559.25647  24948324.4554   24948333.9354
       142.000
  20491185.791   -41990443.84247 -30938250.20548  20491185.2084   20491190.2634
       218.000
  22086634.403   -35088885.48346 -26358448.47048  22086634.1314   22086639.7934
       197.000
  22494018.484   -25949659.05246 -19460917.31948  22494018.2454   22494023.5814
       187.000
 96  4 22  0 10 30.0000000  0  5 16 20 05 24 06
  21669345.549   -26921957.04246 -20966950.52148  21669344.9944   21669351.2284
       200.000
  20766894.658   -34834551.59746 -27119241.48448  20766894.3584   20766899.7344
       213.000
  20490954.482   -41991659.32247 -30939197.34148  20490953.8984   20490958.9464
       218.000
  22094709.375   -35046451.31546 -26325382.89848  22094709.0614   22094714.7794
       197.000
  22477230.897   -26037878.18846 -19529659.47548  22477230.6674   22477236.0084
       188.000
 96  4 22  0 11  0.0000000  0  5 16 20 05 24 06
  21654376.946   -27000617.68346 -21028244.49748  21654376.3774   21654382.5334
       200.000
  20754595.458   -34899184.47146 -27169604.76148  20754595.1634   20754600.5384
       213.000
  20490827.967   -41992324.34547 -30939715.55148  20490827.3754   20490832.4284
       218.000
  22102822.539   -35003816.08746 -26292160.66048  22102822.2844   22102827.9884
       196.000
  22460454.267   -26126040.06546 -19598357.02148  22460454.0114   22460459.3484
       188.000
 96  4 22  0 11 30.0000000  0  5 16 20 05 24 06
  21639506.140   -27078763.90946 -21089137.62848  21639505.5724   21639511.6904
       200.000
  20742391.937   -34963314.22346 -27219575.98748  20742391.6414   20742397.0314
       213.000
  20490809.059   -41992423.78947 -30939793.04948  20490808.4584   20490813.5144
       218.000
  22110971.763   -34960991.86546 -26258791.14748  22110971.4834   22110977.1824
       196.000
  22443685.631   -26214159.61546 -19667021.58048  22443685.3904   22443690.7194
       188.000
 96  4 22  0 12  0.0000000  0  5 16 20 05 24 06
  21624736.105   -27156380.70946 -21149618.22548  21624735.5474   21624741.7144
       201.000
  20730288.471   -35026918.45746 -27269137.72248  20730288.1804   20730293.5674
       214.000
  20490899.921   -41991946.17847 -30939420.89648  20490899.3364   20490904.3994
       217.000
  22119156.722   -34917980.05046 -26225275.46448  22119156.4074   22119162.1104
       196.000
  22426924.496   -26302239.67646 -19735655.37248  22426924.2834   22426929.6154
       188.000
 96  4 22  0 12 30.0000000  0  5 16 20 05 24 06
  21610065.356   -27233476.00646 -21209692.45048  21610064.8134   21610071.0204
       201.000
  20718286.787   -35089987.84746 -27318282.69548  20718286.4994   20718291.8894
       214.000
  20491100.267   -41990893.56347 -30938600.68548  20491099.6574   20491104.7404
       217.000
  22127372.274   -34874806.88146 -26191634.05448  22127371.9894   22127377.6374
       196.000
  22410169.203   -26390289.20946 -19804265.38048  22410169.0134   22410174.3174
       189.000
 96  4 22  0 13  0.0000000  0  6 17 16 20 05 24 06
  25040857.709    -5656437.23146  -3142062.40147  25040857.1964   25040867.1234
       132.000
  21595492.989   -27310054.32946 -21269363.83248  21595492.4224   21595498.6034
       201.000
  20706391.306   -35152498.90746 -27366992.60848  20706391.0044   20706396.3814
       214.000
  20491410.901   -41989261.18847 -30937328.71448  20491410.3124   20491415.3704
       217.000
  22135618.458   -34831472.97246 -26157867.38448  22135618.1704   22135623.8264
       196.000
  22393422.013   -26478296.50846 -19872842.47548  22393421.7674   22393427.1014
       189.000
 96  4 22  0 13 30.0000000  0  6 17 16 20 05 24 06
  25017258.332    -5780452.66446  -3238697.64347  25017257.6534   25017267.4004
       134.000
  21581017.089   -27386125.76046 -21328640.23448  21581016.5034   21581022.6864
       201.000
  20694601.816   -35214453.06446 -27415268.57148  20694601.5554   20694606.9154
       214.000
  20491829.613   -41987060.90647 -30935614.21848  20491829.0024   20491834.0654
       217.000
  22143895.140   -34787979.22146 -26123976.16348  22143894.8214   22143900.4704
       195.000
  22376684.328   -26566253.05046 -19941380.01948  22376684.1644   22376689.4634
       189.000
 96  4 22  0 14  0.0000000  0  6 17 16 20 05 24 06
  24993691.458    -5904296.88846  -3335199.44847  24993690.7884   24993700.4194
       136.000
  21566635.431   -27461701.56546 -21387530.44048  21566634.8894   21566641.0194
       201.000
  20682918.086   -35275851.51746 -27463111.51948  20682917.8044   20682923.1584
       214.000
  20492351.496   -41984318.45447 -30933477.25348  20492350.8914   20492355.9644
       217.000
  22152202.003   -34744326.44846 -26089961.02748  22152201.6604   22152207.2744
       195.000
  22359958.785   -26654146.49446 -20009868.39748  22359958.5434   22359963.8674
       189.000
 96  4 22  0 14 30.0000000  0  6 17 16 20 05 24 06
  24970158.835    -6027960.42346  -3431560.44547  24970158.2594   24970167.8464
       138.000
  21552347.986   -27536782.38546 -21446034.94148  21552347.4404   21552353.5474
       202.000
  20671337.501   -35336708.04246 -27510532.18048  20671337.2014   20671342.5594
       214.000
  20492972.702   -41981053.82647 -30930933.39648  20492972.1014   20492977.1904
       217.000
  22160537.275   -34700523.84746 -26055829.14848  22160536.9994   22160542.6444
       195.000
  22343246.857   -26741968.08746 -20078300.78448  22343246.6724   22343251.9784
       189.000
 96  4 22  0 15  0.0000000  0  6 17 16 20 05 24 06
  24946657.796    -6151458.63046  -3527792.59347  24946657.0594   24946666.8744
       138.000
  21538153.690   -27611373.91646 -21504158.17948  21538153.1274   21538159.2384
       202.000
  20659856.566   -35397040.66446 -27557544.61348  20659856.2894   20659861.6494
       214.000
  20493690.894   -41977279.66747 -30927992.50848  20493690.3034   20493695.3864
       217.000
  22168900.026   -34656577.55846 -26021585.30248  22168899.7504   22168905.3764
       195.000
  22326548.993   -26829715.89246 -20146675.68548  22326548.8024   22326554.0984
       189.000
 96  4 22  0 15 30.0000000  0  6 17 16 20 05 24 06
  24923183.890    -6274813.53346  -3623913.07047  24923183.0504   24923193.1774
       137.000
  21524052.089   -27685478.22046 -21561901.76548  21524051.5094   21524057.6264
       202.000
  20648472.440   -35456864.74946 -27604160.78048  20648472.1504   20648477.4954
       214.000
  20494504.454   -41973004.30947 -30924661.07148  20494503.8804   20494508.9414
       217.000
  22177288.008   -34612498.51646 -25987238.00848  22177287.7034   22177293.3504
       194.000
  22309865.439   -26917388.25946 -20214991.79148  22309865.2324   22309870.5604
       190.000
 96  4 22  0 16  0.0000000  0  6 17 16 20 05 24 06
  24899737.571    -6398022.88646  -3719920.10947  24899736.8914   24899747.0824
       139.000
  21510045.959   -27759080.79546 -21619254.39148  21510045.3954   21510051.5164
       202.000
  20637188.891   -35516160.27046 -27650365.07848  20637188.6024   20637193.9334
       214.000
  20495416.137   -41968213.56047 -30920928.03048  20495415.5594   20495420.6134
       217.000
  22185704.200   -34568271.31746 -25952775.26548  22185703.8874   22185709.5584
       194.000
  22293199.406   -27004969.07446 -20283236.56348  22293199.1794   22293204.4864
       190.000
 96  4 22  0 16 30.0000000  0  6 17 16 20 05 24 06
  24876316.046    -6521103.75946  -3815827.06947  24876315.3254   24876325.3934
       141.000
  21496138.156   -27832166.76946 -21676204.47148  21496137.5744   21496143.7184
       203.000
  20626008.888   -35574911.65546 -27696145.37548  20626008.5914   20626013.9214
       214.000
  20496429.296   -41962889.44047 -30916779.37748  20496428.6984   20496433.7764
       217.000
  22194148.035   -34523898.44346 -25918199.01648  22194147.7114   22194153.4334
       193.000
  22276550.767   -27092458.29746 -20351409.96348  22276550.5254   22276555.8304
       190.000
 96  4 22  0 17  0.0000000  0  6 17 16 20 05 24 06
  24852914.894    -6644076.55546  -3911649.80547  24852914.2564   24852924.2714
       143.000
  21482327.656   -27904741.38246 -21732756.08748  21482327.0644   21482333.1724
       203.000
  20614930.544   -35633128.78146 -27741509.36548  20614930.2414   20614935.5694
       214.000
  20497542.178   -41957041.28147 -30912222.38348  20497541.5974   20497546.6514
       217.000
  22202617.062   -34479393.52846 -25883519.87148  22202616.7484   22202622.4444
       193.000
  22259914.760   -27179880.86346 -20419531.41948  22259914.5624   22259919.8364
       191.000
 96  4 22  0 17 30.0000000  0  6 17 16 20 05 24 06
  24829541.815    -6766902.96946  -4007358.52547  24829540.9874   24829551.0024
       143.000
  21468620.332   -27976773.45746 -21788884.95348  21468619.7344   21468625.8954
       203.000
  20603957.888   -35690790.50346 -27786440.57048  20603957.5774   20603962.9124
       214.000
  20498756.990   -41950657.45147 -30907247.98448  20498756.4064   20498761.4624
       217.000
  22211117.577   -34434723.10546 -25848711.75848  22211117.2544   22211122.9544
       193.000
  22243293.879   -27267224.43346 -20487591.31848  22243293.6284   22243298.8924
       191.000
 96  4 22  0 18  0.0000000  0  6 17 16 20 05 24 06
  24806192.520    -6889603.61446  -4102969.22847  24806191.8314   24806201.5054
       142.000
  21455013.119   -28048279.65346 -21844604.04048  21455012.5444   21455018.6944
       203.000
  20593085.877   -35747923.00646 -27830959.39548  20593085.5844   20593090.9114
       214.000
  20500069.286   -41943761.46546 -30901874.49748  20500068.6884   20500073.7454
       216.000
  22219646.144   -34389904.86746 -25813788.46448  22219645.8494   22219651.5454
       192.000
  22226681.402   -27354523.24846 -20555616.33948  22226681.1694   22226686.4314
       191.000
 96  4 22  0 18 30.0000000  0  6 17 16 20 05 24 06
  24782869.269    -7012167.38946  -4198473.27247  24782868.5374   24782877.9054
       140.000
  21441508.055   -28119249.17246 -21899904.94048  21441507.4934   21441513.5704
       203.000
  20582316.601   -35804516.09446 -27875057.90048  20582316.3294   20582321.6364
       214.000
  20501481.770   -41936338.88946 -30896090.68548  20501481.1604   20501486.2464
       216.000
  22228202.923   -34344938.82146 -25778749.99048  22228202.6164   22228208.3344
       192.000
  22210077.061   -27441779.55746 -20623608.24348  22210076.8244   22210082.0744
       191.000
 96  4 22  0 19  0.0000000  0  6 17 16 20 05 24 06
  24759575.618    -7134575.73146  -4293856.20447  24759574.8444   24759584.0914
       137.000
  21428105.225   -28189681.68846 -21954787.39248  21428104.6524   21428110.6744
       203.000
  20571649.694   -35860571.08046 -27918737.10448  20571649.3744   20571654.7064
       214.000
  20502996.216   -41928380.49146 -30889889.34748  20502995.6114   20503000.6764
       216.000
  22236790.694   -34299809.38846 -25743584.21248  22236790.4304   22236796.1574
       192.000
  22193482.679   -27528983.40746 -20691559.26848  22193482.4724   22193487.6974
       191.000
 96  4 22  0 19 30.0000000  0  6 17 16 20 05 24 06
  24736309.040    -7256840.09046  -4389126.89647  24736308.4504   24736317.8654
       139.000
  21414800.019   -28259600.91846 -22009269.88348  21414799.4134   21414805.4274
       203.000
  20561082.945   -35916099.55446 -27962006.03848  20561082.6394   20561087.9624
       215.000
  20504609.789   -41919901.16246 -30883282.09048  20504609.1844   20504614.2674
       216.000
  22245406.494   -34254533.39246 -25708304.22348  22245406.2364   22245411.9314
       192.000
  22176897.020   -27616141.90646 -20759474.95648  22176896.7644   22176901.9794
       192.000
 96  4 22  0 20  0.0000000  0  6 17 16 20 05 24 06
  24713072.214    -7378950.65846  -4484277.79347  24713071.4874   24713080.7914
       142.000
  21401594.138   -28328998.35246 -22063345.78148  21401593.5454   21401599.5094
       203.000
  20550622.134   -35971071.44746 -28004841.27548  20550621.8514   20550627.1504
       215.000
  20506326.345   -41910880.80346 -30876253.25148  20506325.7364   20506330.8054
       216.000
  22254048.383   -34209119.97346 -25672917.15348  22254048.0934   22254053.8214
       191.000
  22160325.743   -27703224.44546 -20827331.45448  22160325.5164   22160330.6694
       192.000
 96  4 22  0 20 30.0000000  0  6 17 16 20 05 24 06
  24689864.330    -7500907.86746  -4579309.19147  24689863.6344   24689872.9044
       145.000
  21388486.315   -28397880.47046 -22117020.12848  21388485.7004   21388491.7364
       203.000
  20540268.636   -36025479.60946 -28047237.23548  20540268.3384   20540273.6184
       215.000
  20508143.633   -41901330.84246 -30868811.73148  20508142.9984   20508148.0614
       216.000
  22262714.308   -34163580.18646 -25637431.61948  22262714.0644   22262719.7804
       191.000
  22143769.779   -27790226.44946 -20895125.19648  22143769.5274   22143774.6804
       192.000
 96  4 22  0 21  0.0000000  0  6 17 16 20 05 24 06
  24666682.262    -7622729.35546  -4674234.83647  24666681.6424   24666690.7804
       146.000
  21375475.394   -28466253.01546 -22170297.41048  21375474.7774   21375480.8744
       203.000
  20530018.905   -36079342.29246 -28089208.15048  20530018.6044   20530023.8804
       215.000
  20510057.427   -41891273.89946 -30860975.16548  20510056.8034   20510061.8454
       216.000
  22271400.673   -34117932.76946 -25601862.21248  22271400.4604   22271406.2304
       191.000
  22127227.970   -27877153.93846 -20962860.87648  22127227.7494   22127232.9264
       192.000
 96  4 22  0 21 30.0000000  0  6 17 16 20 05 24 06
  24643528.928    -7744401.22046  -4769043.92347  24643528.2014   24643537.2144
       147.000
  21362565.699   -28534093.61946 -22223160.19748  21362565.1044   21362571.2124
       203.000
  20519876.912   -36132638.80546 -28130737.89648  20519876.6054   20519881.8674
       215.000
  20512069.826   -41880698.73146 -30852734.78648  20512069.1904   20512074.2464
       216.000
  22280109.070   -34072170.31146 -25566203.17148  22280108.8124   22280114.5484
       191.000
  22110703.872   -27963988.46446 -21030524.11848  22110703.6684   22110708.8514
       193.000
 96  4 22  0 22  0.0000000  0  6 17 16 20 05 24 06
  24620405.745    -7865913.04846  -4863728.28547  24620405.1684   24620414.1264
       145.000
  21349756.889   -28601403.99946 -22275609.81848  21349756.2914   21349762.4284
       202.000
  20509842.763   -36185368.61546 -28171826.05748  20509842.4524   20509847.7284
       215.000
  20514181.521   -41869601.70946 -30844087.76948  20514180.9084   20514185.9564
       216.000
  22288839.969   -34026288.84046 -25530451.39148  22288839.7184   22288845.5104
       190.000
  22094194.957   -28050743.47946 -21098125.40948  22094194.7374   22094199.9174
       193.000
 96  4 22  0 22 30.0000000  0  6 17 16 20 05 24 06
  24597314.825    -7987256.74246  -4958281.63947  24597314.1544   24597323.0204
       142.000
  21337050.478   -28668176.30446 -22327640.15748  21337049.9084   21337056.0294
       202.000
  20499914.016   -36237544.66146 -28212482.71248  20499913.6954   20499918.9604
       215.000
  20516395.822   -41857965.62846 -30835020.70548  20516395.1954   20516400.2604
       216.000
  22297598.367   -33980262.82546 -25494586.98448  22297598.2144   22297603.9864
       190.000
  22077698.829   -28137430.97946 -21165674.08748  22077698.6174   22077703.8084
       193.000
 96  4 22  0 23  0.0000000  0  6 17 16 20 05 24 06
  24574255.890    -8108430.59246  -5052702.65147  24574255.4084   24574264.1534
       139.000
  21324445.414   -28734416.53646 -22379255.89648  21324444.8244   21324450.8624
       203.000
  20490084.891   -36289197.01346 -28252731.29348  20490084.5704   20490089.8464
       215.000
  20518712.844   -41845789.45046 -30825532.78648  20518712.2514   20518717.3284
       216.000
  22306384.664   -33934091.16146 -25458609.07648  22306384.4224   22306390.1814
       190.000
  22061212.996   -28224064.72946 -21233180.87848  22061212.7504   22061217.9454
       194.000
 96  4 22  0 23 30.0000000  0  6 17 16 20 05 24 06
  24551234.285    -8229408.66146  -5146971.09947  24551233.7854   24551242.5404
       138.000
  21311942.856   -28800118.17746 -22430451.95548  21311942.2494   21311948.1954
       203.000
  20480357.419   -36340315.12346 -28292563.58548  20480357.1044   20480362.3774
       215.000
  20521134.453   -41833063.82546 -30815616.72348  20521133.8554   20521138.9434
       216.000
  22315202.771   -33887751.40646 -25422500.19248  22315202.5274   22315208.2694
       189.000
  22044737.382   -28310644.69446 -21300645.76448  22044737.1064   22044742.3194
       194.000
 96  4 22  0 24  0.0000000  0  6 17 16 20 05 24 06
  24528249.125    -8350196.57546  -5241091.39447  24528248.4374   24528257.2274
       141.000
  21299542.067   -28865284.77146 -22481231.09648  21299541.4644   21299547.3784
       203.000
  20470730.920   -36390902.82846 -28331982.57648  20470730.5984   20470735.8814
       215.000
  20523658.695   -41819798.85846 -30805280.40148  20523658.0974   20523663.1844
       215.000
  22324052.194   -33841247.64546 -25386263.51948  22324051.9504   22324057.6714
       188.000
  22028271.543   -28397173.26446 -21368070.60548  22028271.2854   22028276.4574
       194.000
 96  4 22  0 24 29.9990000  0  6 17 16 20 05 24 06
  24505295.934    -8470815.38646  -5335079.91347  24505295.3084   24505304.0764
       144.000
  21287243.882   -28929911.81746 -22531589.80648  21287243.2984   21287249.2694
       203.000
  20461205.444   -36440959.55846 -28370987.82148  20461205.1034   20461210.3954
       215.000
  20526282.946   -41806008.31846 -30794534.54048  20526282.3604   20526287.4514
       215.000
  22332929.293   -33794598.40146 -25349913.47548  22332929.0454   22332934.7334
       188.000
  22011817.084   -28483641.90246 -21435448.74548  22011816.8264   22011822.0044
       194.000
 96  4 22  0 24 59.9990000  0  6 17 16 20 05 24 06
  24482375.527    -8591262.12646  -5428934.36247  24482374.9144   24482383.6874
       145.000
  21275053.678   -28993971.58746 -22581506.49548  21275053.0684   21275059.0424
       204.000
  20451789.018   -36490443.12746 -28409546.44948  20451788.6914   20451793.9674
       215.000
  20529005.999   -41791698.71246 -30783384.21248  20529005.4054   20529010.4984
       215.000
  22341833.843   -33747804.73146 -25313450.89148  22341833.5914   22341839.2824
       188.000
  21995378.000   -28570029.82046 -21502763.99348  21995377.7474   21995382.8734
       194.000
 96  4 22  0 25 29.9990000  0  6 17 16 20 05 24 06
  24459484.333    -8711555.92546  -5522669.63547  24459483.5824   24459492.4144
       145.000
  21262968.626   -29057478.58546 -22630992.44248  21262968.0534   21262974.0344
       204.000
  20442483.949   -36539341.49946 -28447649.07848  20442483.6134   20442488.8874
       215.000
  20531823.208   -41776894.13746 -30771848.19248  20531822.6254   20531827.7314
       215.000
  22350761.169   -33700891.39946 -25276895.06948  22350760.9204   22350766.5934
       188.000
  21978953.762   -28656339.75046 -21570018.46548  21978953.4974   21978958.6164
       194.000
 96  4 22  0 25 59.9990000  0  6 17 16 20 05 24 06
  24436619.662    -8831709.76146  -5616295.82347  24436618.8514   24436627.6694
       142.000
  21250986.920   -29120442.80746 -22680055.44648  21250986.3584   21250992.3104
       204.000
  20433289.574   -36587658.28346 -28485298.51648  20433289.2284   20433294.5104
       215.000
  20534734.033   -41761597.60746 -30759928.83048  20534733.4404   20534738.5714
       215.000
  22359708.022   -33653875.32346 -25240259.17948  22359707.7864   22359713.4884
       188.000
  21962545.216   -28742566.90946 -21637208.44248  21962544.9674   21962550.0824
       194.000
 96  4 22  0 26 29.9990000  0  6 17 16 20 05 24 06
  24413784.339    -8951709.63346  -5709802.04747  24413783.4994   24413792.2444
       138.000
  21239109.944   -29182856.84146 -22728689.73748  21239109.3814   21239115.3014
       205.000
  20424205.992   -36635392.90246 -28522494.32148  20424205.6574   20424210.9234
       215.000
  20537739.853   -41745802.08746 -30747620.64448  20537739.2494   20537744.3874
       215.000
  22368672.997   -33606764.42346 -25203549.40948  22368672.7404   22368678.4474
       188.000
  21946150.749   -28828720.35046 -21704340.97348  21946150.4964   21946155.5924
       194.000
 96  4 22  0 26 59.9990000  0  6 17 16 20 05 24 06
  24390978.294    -9071555.19446  -5803188.03747  24390977.5194   24390986.1874
       137.000
  21227333.549   -29244742.02746 -22776911.94148  21227332.9734   21227338.9184
       205.000
  20415227.160   -36682576.86946 -28559261.04948  20415226.8234   20415232.1164
       215.000
  20540838.319   -41729519.74846 -30734933.12348  20540837.7144   20540842.8344
       215.000
  22377652.665   -33559576.30746 -25166779.46448  22377652.3644   22377658.0584
       188.000
  21929766.510   -28914819.96846 -21771431.56448  21929766.2594   21929771.3724
       194.000
 96  4 22  0 27 29.9990000  0  6 17 16 20 05 24 06
  24368207.897    -9191213.99946  -5896428.55047  24368207.2114   24368215.7444
       139.000
  21215659.348   -29306090.23446 -22824715.71848  21215658.7754   21215664.7414
       205.000
  20406355.216   -36729199.26046 -28595590.18348  20406354.9044   20406360.1834
       215.000
  20544038.254   -41712704.07346 -30721830.01448  20544037.6494   20544042.7504
       215.000
  22386651.828   -33512285.42946 -25129929.44648  22386651.5534   22386657.2224
       188.000
  21913396.857   -29000842.99146 -21838462.47748  21913396.6014   21913401.7024
       195.000
 96  4 22  0 27 59.9990000  0  6 17 16 20 05 24 06
  24345473.335    -9310684.77446  -5989522.53547  24345472.6704   24345480.9404
       142.000
  21204090.001   -29366887.49746 -22872090.18848  21204089.4244   21204095.3804
       205.000
  20397590.740   -36775256.99046 -28631479.32648  20397590.4124   20397595.7044
       215.000
  20547340.136   -41695352.55346 -30708309.36548  20547339.5334   20547344.6274
       215.000
  22395668.153   -33464904.62346 -25093009.35248  22395667.8614   22395673.5034
       188.000
  21897041.746   -29086789.63746 -21905433.87448  21897041.4944   21897046.6224
       195.000
 96  4 22  0 28 29.9990000  0  6 17 16 20 05 24 06
  24322776.077    -9429958.69346  -6082463.10647  24322775.4634   24322783.7974
       145.000
  21192629.908   -29427110.82846 -22919017.43848  21192629.3284   21192635.2254
       206.000
  20388938.593   -36820724.37146 -28666908.45348  20388938.2424   20388943.5464
       215.000
  20550746.120   -41677454.03446 -30694362.47948  20550745.5154   20550750.6294
       214.000
  22404705.106   -33417415.17546 -25056004.60448  22404704.8264   22404710.4984
       187.000
  21880704.830   -29172640.57346 -21972330.68548  21880704.6034   21880709.7134
       195.000
 96  4 22  0 28 59.9990000  0  6 17 16 20 05 24 06
  24300113.287    -9549052.23046  -6175263.12047  24300112.5734   24300120.8794
       147.000
  21181278.863   -29486761.03646 -22965498.09548  21181278.2664   21181284.1594
       206.000
  20380399.202   -36865598.92746 -28701875.63848  20380398.9034   20380404.2014
       215.000
  20554253.991   -41659020.25546 -30679998.51048  20554253.3674   20554258.4874
       214.000
  22413763.315   -33369813.68046 -25018912.55148  22413763.0354   22413768.6974
       186.000
  21864387.424   -29258389.19246 -22039147.77148  21864387.2004   21864392.3124
       196.000
 96  4 22  0 29 29.9990000  0  6 17 16 20 05 24 06
  24277480.864    -9667985.50546  -6267938.25447  24277480.2314   24277488.5574
       147.000
  21170035.704   -29545844.10946 -23011536.83648  21170035.1104   21170040.9984
       206.000
  20371973.494   -36909876.34346 -28736377.51948  20371973.1964   20371978.5054
       215.000
  20557858.714   -41640077.28546 -30665237.76948  20557858.1114   20557863.2164
       214.000
  22422841.086   -33322109.75346 -24981740.67048  22422840.8104   22422846.4564
       186.000
  21848089.047   -29344037.72746 -22105886.87448  21848088.8234   21848093.8904
       196.000
 96  4 22  0 29 59.9990000  0  6 17 16 20 05 24 06
  24254878.479    -9786760.87046  -6360490.31547  24254877.7794   24254886.2544
       146.000
  21158902.689   -29604348.28146 -23057124.48448  21158902.0874   21158907.9944
       206.000
  20363659.628   -36953565.93946 -28770421.35948  20363659.2924   20363664.6314
       215.000
  20561556.733   -41620644.08046 -30650095.03048  20561556.1414   20561561.2544
       214.000
  22431939.918   -33274295.06946 -24944482.48648  22431939.6214   22431945.2664
       185.000
  21831808.662   -29429591.59446 -22172552.20848  21831808.4434   21831813.5024
       196.000
 96  4 22  0 30 29.9990000  0  6 17 16 20 05 24 06
  24232305.501    -9905382.30446  -6452922.45747  24232304.7154   24232313.2204
       145.000
  21147876.568   -29662290.86146 -23102274.53048  21147875.9604   21147881.8824
       206.000
  20355452.481   -36996694.76646 -28804028.23748  20355452.1544   20355457.5134
       215.000
  20565348.347   -41600719.32246 -30634569.26248  20565347.7364   20565352.8204
       214.000
  22441059.510   -33226371.29746 -24907139.30648  22441059.2184   22441064.9374
       185.000
  21815543.502   -29515065.55546 -22239155.27348  21815543.2444   21815548.3024
       196.000
 96  4 22  0 30 59.9990000  0  6 17 16 20 05 24 06
  24209762.192   -10023846.79446  -6545232.31047  24209761.5014   24209769.9374
       145.000
  21136954.969   -29719684.18846 -23146996.58048  21136954.3814   21136960.2964
       207.000
  20347348.511   -37039281.34246 -28837212.58248  20347348.1944   20347353.5404
       215.000
  20569231.645   -41580312.34046 -30618667.73648  20569231.0484   20569236.1554
       214.000
  22450196.846   -33178354.17946 -24869723.38548  22450196.5624   22450202.2814
       185.000
  21799289.816   -29600479.00646 -22305711.19748  21799289.5864   21799294.6414
       196.000
 96  4 22  0 31 29.9990000  0  6 17 16 20 05 24 06
  24187250.653   -10142145.29146  -6637412.83247  24187250.0154   24187258.3904
       146.000
  21126134.197   -29776547.72246 -23191305.81048  21126133.5924   21126139.5354
       207.000
  20339347.740   -37081325.81946 -28869974.51448  20339347.4234   20339352.7744
       215.000
  20573207.413   -41559419.73846 -30602387.80348  20573206.7954   20573211.8934
       214.000
  22459350.495   -33130251.54946 -24832240.82648  22459350.2154   22459355.8704
       185.000
  21783046.180   -29685839.72046 -22372226.01748  21783045.9214   21783050.9874
       196.000
 96  4 22  0 31 59.9990000  0  6 17 16 20 05 24 06
  24164777.529   -10260241.86146  -6729436.02047  24164776.8634   24164785.2404
       148.000
  21115417.919   -29832861.94046 -23235187.00348  21115417.3114   21115423.2534
       207.000
  20331453.028   -37122812.84046 -28902302.06648  20331452.7084   20331458.0554
       215.000
  20577282.089   -41538007.21446 -30585702.73648  20577281.4844   20577286.5944
       214.000
  22468524.552   -33082041.49246 -24794674.56148  22468524.2844   22468529.9494
       184.000
  21766816.590   -29771126.84146 -22438683.49848  21766816.3374   21766821.3994
       197.000
 96  4 22  0 32 29.9990000  0  6 17 16 20 05 24 06
  24142343.529   -10378132.37346  -6821298.63147  24142342.9144   24142351.2624
       150.000
  21104804.517   -29888635.51046 -23278646.91348  21104803.9184   21104809.8474
       207.000
  20323667.371   -37163726.85446 -28934183.11748  20323667.0384   20323672.3904
       215.000
  20581454.572   -41516080.42546 -30568616.94648  20581453.9964   20581459.1044
       213.000
  22477718.040   -33033729.43846 -24757028.81948  22477717.7404   22477723.4714
       185.000
  21750603.249   -29856328.56746 -22505074.44048  21750603.0014   21750608.0254
       197.000
 96  4 22  0 32 59.9990000  0  6 17 16 20 05 24 06
  24119948.459   -10495819.76146  -6913002.95547  24119947.6984   24119956.0984
       151.000
  21094295.860   -29943858.93346 -23321678.13148  21094295.2534   21094301.1654
       207.000
  20315994.784   -37204046.26146 -28965600.83448  20315994.4704   20315999.8254
       215.000
  20585721.551   -41493657.43146 -30551144.49548  20585720.9624   20585726.0684
       213.000
  22486931.226   -32985313.95346 -24719302.48248  22486930.9624   22486936.7044
       185.000
  21734406.676   -29941442.12246 -22571396.67448  21734406.4344   21734411.4314
       197.000
 96  4 22  0 33 29.9990000  0  6 17 16 20 05 24 06
  24097590.984   -10613308.00346  -7004552.09647  24097590.3964   24097598.7764
       152.000
  21083893.462   -29998524.08446 -23364274.33048  21083892.8454   21083898.7384
       207.000
  20308435.611   -37243769.91146 -28996554.33148  20308435.3034   20308440.6434
       215.000
  20590082.467   -41470740.63246 -30533287.26948  20590081.9134   20590087.0344
       213.000
  22496163.609   -32936797.66346 -24681497.59848  22496163.3404   22496169.0854
       184.000
  21718230.229   -30026450.04146 -22637636.59848  21718229.9724   21718234.9734
       197.000
 96  4 22  0 33 59.9990000  0  6 17 16 20 05 24 06
  24075272.603   -10730591.70546  -7095941.86647  24075272.0464   24075280.2804
       153.000
  21073605.055   -30052590.03546 -23406403.62248  21073604.4674   21073610.2634
       207.000
  20300992.581   -37282883.38046 -29027032.36048  20300992.2464   20300997.6274
       215.000
  20594540.197   -41447315.29846 -30515033.77848  20594539.6074   20594544.7354
       213.000
  22505416.101   -32888175.19446 -24643609.98048  22505415.8654   22505421.6624
       184.000
  21702076.900   -30111336.23846 -22703781.67548  21702076.6754   21702081.6674
       198.000
 96  4 22  0 34 29.9990000  0  6 17 16 20 05 24 06
  24052984.328   -10847717.35246  -7187208.48947  24052983.6564   24052991.9294
       154.000
  21063424.447   -30106089.44346 -23448091.45148  21063423.8554   21063429.6764
       208.000
  20293662.935   -37321400.99846 -29057046.09048  20293662.5904   20293667.9904
       215.000
  20599088.908   -41423411.74946 -30496407.65148  20599088.3184   20599093.4434
       213.000
  22514681.069   -32839487.57446 -24605671.59048  22514680.8114   22514686.6074
       183.000
  21685937.836   -30196147.46446 -22769868.32848  21685937.6084   21685942.6164
       198.000
 96  4 22  0 34 59.9990000  0  6 17 16 20 05 24 06
  24030728.832   -10964669.73346  -7278340.09547  24030728.2834   24030736.4984
       154.000
  21053356.710   -30158995.49046 -23489316.92048  21053356.1354   21053362.0064
       208.000
  20286447.815   -37359316.61946 -29086590.72748  20286447.5044   20286452.8754
       216.000
  20603735.938   -41398991.48846 -30477378.89148  20603735.3514   20603740.4724
       212.000
  22523961.328   -32790719.60846 -24567670.59148  22523961.0664   22523966.8954
       183.000
  21669815.658   -30280870.02746 -22835885.89048  21669815.4294   21669820.4364
       198.000
 96  4 22  0 35 29.9990000  0  6 17 16 20 05 24 06
  24008504.804   -11081458.07346  -7369343.89547  24008504.1394   24008512.2724
       154.000
  21043398.414   -30211326.70746 -23530094.47348  21043397.8094   21043403.7024
       208.000
  20279342.318   -37396656.35546 -29115686.62248  20279341.9944   20279347.3654
       216.000
  20608480.941   -41374056.53046 -30457949.07148  20608480.3364   20608485.4574
       212.000
  22533253.866   -32741886.96846 -24529619.19948  22533253.5934   22533259.4674
       182.000
  21653708.533   -30365513.46146 -22901841.79948  21653708.3304   21653713.3204
       198.000
 96  4 22  0 35 59.9990000  0  6 17 16 20 05 24 06
  23986313.817   -11198071.16346  -7460211.11547  23986313.2914   23986321.4674
       153.000
  21033550.956   -30263075.20146 -23570417.95148  21033550.3564   21033556.3234
       208.000
  20272347.463   -37433414.39346 -29144329.24548  20272347.1564   20272352.5324
       216.000
  20613326.702   -41348591.84446 -30438106.47348  20613326.1014   20613331.2054
       212.000
  22542561.454   -32692975.07846 -24491506.05248  22542561.2204   22542567.0834
       181.000
  21637616.907   -30450075.38746 -22967734.19148  21637616.7104   21637621.6914
       198.000
 96  4 22  0 36 29.9990000  0  6 17 16 20 05 24 06
  23964157.901   -11314500.90546  -7550935.46747  23964157.3404   23964165.5054
       154.000
  21023811.275   -30314257.38946 -23610300.15648  21023810.6994   21023816.6734
       208.000
  20265458.640   -37469615.46246 -29172537.86948  20265458.3354   20265463.7074
       216.000
  20618269.626   -41322616.50646 -30417865.96848  20618269.0294   20618274.1484
       212.000
  22551885.024   -32643979.43946 -24453327.64648  22551884.7754   22551890.5844
       181.000
  21621541.399   -30534552.59046 -23033560.56648  21621541.1794   21621546.1764
       198.000
 96  4 22  0 36 59.9990000  0  6 17 16 20 05 24 06
  23942041.015   -11430725.42546  -7641499.91847  23942040.4714   23942048.6854
       155.000
  21014182.932   -30364854.40246 -23649726.37948  21014182.3544   21014188.3314
       208.000
  20258672.540   -37505276.88746 -29200325.98848  20258672.2034   20258677.5654
       216.000
  20623309.443   -41296132.38046 -30397229.00548  20623308.8204   20623313.9454
       212.000
  22561225.125   -32594897.30946 -24415081.84048  22561224.7994   22561230.5854
       181.000
  21605487.984   -30618913.73646 -23099296.50748  21605487.7624   21605492.7584
       198.000
 96  4 22  0 37 29.9990000  0  6 17 16 20 05 24 06
  23919962.049   -11546750.88246  -7731909.26647  23919961.4954   23919969.5734
       155.000
  21004665.817   -30414867.17446 -23688697.34848  21004665.2334   21004671.1554
       208.000
  20251989.737   -37540395.12746 -29227690.85048  20251989.4094   20251994.7574
       216.000
  20628440.827   -41269166.90946 -30376216.97048  20628440.2084   20628445.3154
       211.000
  22570579.171   -32545741.58846 -24376778.69448  22570578.8444   22570584.5884
       180.000
  21589455.222   -30703166.06346 -23164947.65348  21589455.0114   21589459.9904
       198.000
 96  4 22  0 37 59.9990000  0  6 17 16 20 05 24 06
  23897924.060   -11662561.00046  -7822150.80547  23897923.4624   23897931.5734
       155.000
  20995262.500   -30464282.00846 -23727202.39648  20995261.8834   20995267.7674
       208.000
  20245413.611   -37574952.95546 -29254619.02748  20245413.2724   20245418.6254
       216.000
  20633664.600   -41241715.89846 -30354826.59348  20633663.9724   20633669.0754
       211.000
  22579948.204   -32496507.00846 -24338414.10448  22579947.9274   22579953.6484
       180.000
  21573443.200   -30787309.98346 -23230514.33448  21573443.0064   21573447.9644
       199.000
 96  4 22  0 38 29.9990000  0  6 17 16 20 05 24 06
  23875926.295   -11778159.71646  -7912227.60747  23875925.6714   23875933.6894
       154.000
  20985974.103   -30513092.91046 -23765236.84748  20985973.4934   20985979.3194
       208.000
  20238947.570   -37608932.25346 -29281096.40048  20238947.2284   20238952.5874
       216.000
  20638980.002   -41213783.48046 -30333061.09048  20638979.3824   20638984.4864
       211.000
  22589332.652   -32447191.70146 -24299986.60348  22589332.3414   22589338.0414
       180.000
  21557450.179   -30871353.88146 -23296003.06548  21557449.9584   21557454.9244
       199.000
 96  4 22  0 38 59.9990000  0  6 17 16 20 05 24 06
  23853966.638   -11893557.21946  -8002147.62147  23853966.1134   23853974.1164
       154.000
  20976802.698   -30561288.98446 -23802792.21048  20976802.0824   20976807.8934
       208.000
  20232596.918   -37642305.00946 -29307101.14348  20232596.5854   20232601.9304
       216.000
  20644389.808   -41185354.74146 -30310908.84248  20644389.1674   20644394.3094
       211.000
  22598732.357   -32397796.03546 -24261496.48548  22598732.0734   22598737.7034
       180.000
  21541474.988   -30955304.01446 -23361418.72648  21541474.7774   21541479.7644
       199.000
 96  4 22  0 39 29.9990000  0  6 17 16 20 05 24 06
  23832042.266   -12008770.55346  -8091924.12847  23832041.7314   23832049.6034
       154.000
  20967742.808   -30608898.88346 -23839890.81948  20967742.2144   20967747.9734
       208.000
  20226361.884   -37675070.30446 -29332632.54748  20226361.5714   20226366.9084
       216.000
  20649892.259   -41156439.02546 -30288377.13848  20649891.6474   20649896.7874
       211.000
  22608146.584   -32348324.20746 -24222947.03048  22608146.2664   22608151.9674
       180.000
  21525514.732   -31039175.86946 -23426773.40548  21525514.5064   21525519.5034
       199.000
 96  4 22  0 39 59.9990000  0  6 17 16 20 05 24 06
  23810152.350   -12123803.19446  -8181559.85647  23810151.7164   23810159.4494
       155.000
  20958791.223   -30655939.64646 -23876545.94048  20958790.6014   20958796.3744
       208.000
  20220241.462   -37707233.26946 -29357694.59948  20220241.1584   20220246.4804
       216.000
  20655487.362   -41127036.64446 -30265466.21048  20655486.7444   20655491.8924
       211.000
  22617574.545   -32298779.78446 -24184341.01248  22617574.2594   22617580.0364
       179.000
  21509570.566   -31122962.71046 -23492061.83248  21509570.3344   21509575.3624
       199.000
 96  4 22  0 40 29.9990000  0  6 17 16 20 05 24 06
  23788292.338   -12238677.83846  -8271072.45747  23788291.6494   23788299.4034
       154.000
  20949945.688   -30702422.89846 -23912766.63748  20949945.0954   20949950.8784
       208.000
  20214234.324   -37738801.08346 -29382292.89648  20214234.0174   20214239.3404
       216.000
  20661171.194   -41097168.08346 -30242192.02848  20661170.5594   20661175.7244
       210.000
  22627014.047   -32249174.66646 -24145687.69048  22627013.7744   22627019.5474
       179.000
  21493644.704   -31206653.69646 -23557275.56548  21493644.4704   21493649.5004
       200.000
 96  4 22  0 40 59.9990000  0  6 17 16 20 05 24 06
  23766466.498   -12353372.86646  -8360445.10147  23766465.7794   23766473.5054
       153.000
  20941205.738   -30748351.56946 -23948555.19048  20941205.1454   20941210.9654
       208.000
  20208342.276   -37769764.33646 -29406420.10948  20208341.9264   20208347.2414
       216.000
  20666944.748   -41066827.96546 -30218550.40248  20666944.1224   20666949.2704
       210.000
  22636465.977   -32199504.49946 -24106983.69048  22636465.7214   22636471.5654
       179.000
  21477742.592   -31290220.02746 -23622392.16348  21477742.3384   21477747.3394
       200.000
 96  4 22  0 41 29.9990000  0  6 17 16 20 05 24 06
  23744671.004   -12467908.27946  -8449693.38847  23744670.3174   23744678.0204
       153.000
  20932564.313   -30793762.67446 -23983940.45248  20932563.7284   20932569.5304
       208.000
  20202560.208   -37800149.22946 -29430096.65548  20202559.8694   20202565.1934
       216.000
  20672801.315   -41036051.47846 -30194568.74548  20672800.6784   20672805.8524
       210.000
  22645924.933   -32149797.46846 -24068250.96648  22645924.6634   22645930.5304
       179.000
  21461859.877   -31373684.01446 -23687429.02348  21461859.6344   21461864.6304
       200.000
 96  4 22  0 41 59.9990000  0  6 17 16 20 05 24 06
  23722906.065   -12582283.19546  -8538816.58147  23722905.3744   23722913.1074
       154.000
  20924025.057   -30838636.88946 -24018907.35448  20924024.4494   20924030.2474
       209.000
  20196889.618   -37829948.30846 -29453316.71648  20196889.2944   20196894.6214
       216.000
  20678741.341   -41004836.46146 -30170245.37348  20678740.7164   20678745.8884
       210.000
  22655391.851   -32100048.66846 -24029485.68348  22655391.5394   22655397.4184
       178.000
  21445994.292   -31457058.04246 -23752395.77348  21445994.0574   21445999.0484
       200.000
 96  4 22  0 42 29.9990000  0  6 17 16 20 05 24 06
  23701177.376   -12696467.47946  -8627791.26147  23701176.7874   23701184.4834
       154.000
  20915595.457   -30882934.80646 -24053425.19248  20915594.8354   20915600.6174
       209.000
  20191334.339   -37859141.55046 -29476064.70148  20191333.9904   20191339.3254
       216.000
  20684770.175   -40973154.99746 -30145558.54348  20684769.5424   20684774.6954
       210.000
  22664871.921   -32050230.33446 -23990666.23448  22664871.6364   22664877.5474
       178.000
  21430148.666   -31540327.19246 -23817280.80648  21430148.4274   21430153.4264
       200.000
 96  4 22  0 42 59.9990000  0  6 17 16 20 05 24 06
  23679485.723   -12810457.54346  -8716614.58247  23679485.1044   23679492.7374
       153.000
  20907275.044   -30926658.69946 -24087495.73648  20907274.4354   20907280.2034
       209.000
  20185892.177   -37887740.02546 -29498349.23148  20185891.8384   20185897.1764
       216.000
  20690888.430   -40941003.37146 -30120505.34848  20690887.8064   20690892.9624
       210.000
  22674363.518   -32000351.89746 -23951799.93948  22674363.2154   22674369.0644
       178.000
  21414321.166   -31623501.17746 -23882091.68548  21414320.9344   21414325.9324
       201.000
 96  4 22  0 43 29.9990000  0  6 17 16 20 05 24 06
  23657831.616   -12924250.10046  -8805284.01347  23657831.0544   23657838.6854
       153.000
  20899069.596   -30969778.54346 -24121095.59348  20899069.0164   20899074.8004
       209.000
  20180562.581   -37915747.23146 -29520173.03548  20180562.2574   20180567.6104
       216.000
  20697098.704   -40908368.22746 -30095075.38948  20697098.0574   20697103.2434
       209.000
  22683868.972   -31950400.47946 -23912876.77748  22683868.6554   22683874.5684
       178.000
  21398513.497   -31706570.83546 -23946821.26648  21398513.2684   21398518.2464
       201.000
 96  4 22  0 43 59.9990000  0  6 17 16 20 05 24 06
  23636217.484   -13037832.76046  -8893789.88947  23636216.9684   23636224.4674
       152.000
  20890982.345   -31012277.48346 -24154211.63948  20890981.7544   20890987.5064
       209.000
  20175345.481   -37943163.40546 -29541536.28848  20175345.1494   20175350.5154
       216.000
  20703401.292   -40875247.98746 -30069267.43448  20703400.6644   20703405.8434
       209.000
  22693388.452   -31900375.42146 -23873896.23548  22693388.1644   22693394.0794
       177.000
  21382726.540   -31789532.06046 -24011466.35848  21382726.2974   21382731.2564
       201.000
 96  4 22  0 44 29.9990000  0  6 17 16 20 05 24 06
  23614643.883   -13151201.86546  -8982129.35347  23614643.3234   23614650.9384
       153.000
  20883012.331   -31054160.12746 -24186847.44748  20883011.7224   20883017.5044
       209.000
  20170240.461   -37969990.61446 -29562440.61148  20170240.1134   20170245.4624
       216.000
  20709795.586   -40841645.72346 -30043083.87648  20709794.9574   20709800.1544
       209.000
  22702920.716   -31850283.15946 -23834863.31548  22702920.4154   22702926.2774
       176.000
  21366963.245   -31872368.44446 -24076014.16848  21366963.0194   21366967.9784
       201.000
 96  4 22  0 44 59.9990000  0  6 17 16 20 05 24 06
  23593112.460   -13264350.04546  -9070296.68447  23593111.9294   23593119.4644
       155.000
  20875159.428   -31095427.60246 -24219003.90148  20875158.8384   20875164.5794
       209.000
  20165247.638   -37996228.18346 -29582885.47048  20165247.2804   20165252.6184
       216.000
  20716282.725   -40807555.85246 -30016520.35848  20716282.0674   20716287.2684
       209.000
  22712466.361   -31800120.29146 -23795775.37048  22712466.0874   22712471.8624
       176.000
  21351224.661   -31955075.16446 -24140460.93948  21351224.4254   21351229.3744
       201.000
 96  4 22  0 45 29.9990000  0  6 17 16 20 05 24 06
  23571624.197   -13377272.44446  -9158288.07247  23571623.5154   23571630.9964
       155.000
  20867423.341   -31136080.92946 -24250681.80148  20867422.7544   20867428.4864
       209.000
  20160366.529   -38021878.42746 -29602872.67448  20160366.1994   20160371.5534
       216.000
  20722860.646   -40772988.45846 -29989584.75348  20722860.0234   20722865.2354
       209.000
  22722025.215   -31749888.47346 -23756633.71248  22722024.8804   22722030.6984
       175.000
  21335508.577   -32037663.85046 -24204815.74048  21335508.3554   21335513.2664
       202.000
 96  4 22  0 45 59.9990000  0  6 17 16 20 05 24 06
  23550178.746   -13489968.48246  -9246103.06547  23550178.0214   23550185.4824
       155.000
  20859800.371   -31176139.75346 -24281896.45148  20859799.7914   20859805.5044
       209.000
  20155595.763   -38046948.86246 -29622408.08248  20155595.4524   20155600.8054
       216.000
  20729525.656   -40737963.70746 -29962292.76048  20729525.0584   20729530.2524
       209.000
  22731593.133   -31699608.88046 -23717454.81948  22731592.8064   22731598.5564
       174.000
  21319811.365   -32120153.29546 -24269093.21648  21319811.1324   21319816.0604
       202.000
 96  4 22  0 46 29.9990000  0  6 17 16 20 05 24 06
  23528775.606   -13602443.38646  -9333745.76547  23528774.6884   23528782.1424
       156.000
  20852290.136   -31215606.23246 -24312649.53448  20852289.5504   20852295.2404
       209.000
  20150933.054   -38071451.71546 -29641501.21848  20150932.7204   20150938.0864
       216.000
  20736278.506   -40702477.21846 -29934640.97548  20736277.9034   20736283.1134
       208.000
  22741170.662   -31649278.52846 -23678236.37648  22741170.3664   22741176.0914
       173.000
  21304132.680   -32202545.26946 -24333294.73448  21304132.4464   21304137.3334
       202.000
 96  4 22  0 46 59.9990000  0  6 17 16 20 05 24 06
  23507411.536   -13714711.88546  -9421227.61247  23507410.6584   23507418.0564
       157.000
  20844887.740   -31254506.03646 -24342961.05648  20844887.1454   20844892.7964
       208.000
  20146375.054   -38095404.30546 -29660165.57848  20146374.6754   20146380.0664
       216.000
  20743115.965   -40666546.20946 -29906642.81148  20743115.3604   20743120.6054
       208.000
  22750755.368   -31598910.54646 -23638988.61448  22750755.0804   22750760.8914
       173.000
  21288468.995   -32284858.38046 -24397434.81048  21288468.7504   21288473.6344
       202.000
 96  4 22  0 47 29.9990000  0  6 17 16 20 05 24 06
  23486085.896   -13826778.07346  -9508551.83747  23486085.1024   23486092.5034
       158.000
  20837595.045   -31292829.45846 -24372823.44548  20837594.4434   20837600.0764
       208.000
  20141925.995   -38118784.22946 -29678383.70548  20141925.6254   20141931.0154
       216.000
  20750038.078   -40630170.20446 -29878297.89448  20750037.4884   20750042.7544
       208.000
  22760348.365   -31548499.00546 -23599706.90648  22760348.0894   22760353.8604
       173.000
  21272823.219   -32367077.56546 -24461501.69248  21272822.9614   21272827.8394
       202.000
 96  4 22  0 47 59.9990000  0  6 17 16 20 05 24 06
  23464796.544   -13938654.05646  -9595727.83947  23464795.7804   23464803.1294
       159.000
  20830413.029   -31330571.34146 -24402232.69148  20830412.4264   20830418.0184
       208.000
  20137587.399   -38141583.70946 -29696149.53848  20137587.0294   20137592.4134
       216.000
  20757048.510   -40593330.68646 -29849591.80248  20757047.8754   20757053.1304
       208.000
  22769951.296   -31498034.91246 -23560384.26448  22769950.9314   22769956.8534
       174.000
  21257197.685   -32449190.22046 -24525485.56348  21257197.4284   21257202.3184
       203.000
 96  4 22  0 48 29.9990000  0  6 17 16 20 05 24 06
  23443540.945   -14050351.78246  -9682764.93947  23443540.2654   23443547.6194
       160.000
  20823341.797   -31367730.72046 -24431188.03448  20823341.2114   20823346.7774
       208.000
  20133362.734   -38163784.40646 -29713448.78848  20133362.3934   20133367.7734
       216.000
  20764149.841   -40556012.97246 -29820513.09148  20764149.2094   20764154.4524
       207.000
  22779567.025   -31447504.27146 -23521009.75548  22779566.7144   22779572.6224
       175.000
  21241595.820   -32531178.55046 -24589372.55648  21241595.5494   21241600.4574
       203.000
 96  4 22  0 48 59.9990000  0  6 17 16 20 05 24 06
  23422317.470   -14161881.71946  -9769671.31047  23422316.7784   23422324.1294
       160.000
  20816380.159   -31404314.33046 -24459694.72748  20816379.5504   20816385.0874
       207.000
  20129254.848   -38185371.22246 -29730269.69248  20129254.5474   20129259.9134
       216.000
  20771338.907   -40518234.28846 -29791075.18148  20771338.2624   20771343.5074
       207.000
  22789191.940   -31396925.50446 -23481597.75248  22789191.6014   22789197.4724
       175.000
  21226017.556   -32613042.70346 -24653162.79648  21226017.2844   21226022.2014
       203.000
 96  4 22  0 49 29.9990000  0  6 17 16 20 05 24 06
  23401125.677   -14273244.47146  -9856447.39447  23401125.1184   23401132.3804
       160.000
  20809530.930   -31440307.16346 -24487741.07948  20809530.3124   20809535.8184
       207.000
  20125265.544   -38206335.48646 -29746605.48248  20125265.1794   20125270.5494
       216.000
  20778614.574   -40480000.22646 -29761282.43148  20778613.9354   20778619.1704
       207.000
  22798822.823   -31346314.64646 -23442160.73648  22798822.5344   22798828.4284
       176.000
  21210462.129   -32694787.06346 -24716859.68848  21210461.8734   21210466.7594
       203.000
 96  4 22  0 49 59.9990000  0  6 17 16 20 05 24 06
  23379967.209   -14384432.62746  -9943087.44148  23379966.6764   23379973.8944
       161.000
  20802793.522   -31475712.50746 -24515329.65248  20802792.8964   20802798.3474
       207.000
  20121395.276   -38226674.00946 -29762453.68248  20121394.8684   20121400.2704
       216.000
  20785976.501   -40441313.15146 -29731136.68748  20785975.8484   20785981.0894
       206.000
  22808458.083   -31295681.22946 -23402706.14648  22808457.8134   22808463.7534
       177.000
  21194928.099   -32776418.96446 -24780468.95548  21194927.8574   21194932.7314
       203.000
 96  4 22  0 50 29.9990000  0  6 17 16 20 05 24 06
  23358846.092   -14495424.88746 -10029574.84848  23358845.5584   23358852.7804
       162.000
  20796168.829   -31510525.33246 -24542456.52148  20796168.2024   20796173.6294
       208.000
  20117643.530   -38246389.42946 -29777816.35048  20117643.1664   20117648.5584
       215.000
  20793421.650   -40402188.71446 -29700650.13948  20793421.0044   20793426.2444
       206.000
  22818097.404   -31245026.57146 -23363234.99948  22818097.1004   22818102.9814
       176.000
  21179414.803   -32857941.89246 -24843993.30848  21179414.5464   21179419.4264
       204.000
 96  4 22  0 50 59.9990000  0  6 17 16 20 05 24 06
  23337765.541   -14606204.11146 -10115896.23848  23337764.8924   23337772.1594
       163.000
  20789658.833   -31544735.49446 -24569113.78548  20789658.1994   20789663.6054
       208.000
  20114007.840   -38265494.66346 -29792703.55648  20114007.5724   20114012.9444
       216.000
  20800949.463   -40362629.80346 -29669825.04148  20800948.8234   20800954.0894
       206.000
  22827739.134   -31194359.14446 -23323753.90748  22827738.8454   22827744.7134
       175.000
  21163921.384   -32939360.19246 -24907436.12648  21163921.1324   21163926.0314
       204.000
 96  4 22  0 51 29.9990000  0  6 17 16 20 05 24 06
  23316729.523   -14716749.61246 -10202035.50948  23316728.7254   23316735.9804
       163.000
  20783266.723   -31578325.63046 -24595287.90848  20783266.1054   20783271.5504
       208.000
  20110488.181   -38283990.96546 -29807116.26548  20110487.8594   20110493.2404
       216.000
  20808564.899   -40322610.34746 -29638641.07848  20808564.2614   20808569.5294
       206.000
  22837386.845   -31143660.13146 -23284248.19848  22837386.5364   22837392.4204
       175.000
  21148450.915   -33020657.65946 -24970784.79048  21148450.6824   21148455.5894
       204.000
 96  4 22  0 51 59.9990000  0  6 17 16 20 05 24 06
  23295738.354   -14827058.96746 -10287990.77548  23295737.4674   23295744.6844
       162.000
  20776990.911   -31611305.08746 -24620986.17948  20776990.3094   20776995.7764
       209.000
  20107082.008   -38301890.92946 -29821064.29348  20107081.6074   20107087.0044
       216.000
  20816266.583   -40282137.96346 -29607104.18148  20816265.9494   20816271.2344
       205.000
  22847041.801   -31092923.17646 -23244712.92748  22847041.5334   22847047.3444
       174.000
  21133003.856   -33101832.55246 -25034037.94048  21133003.6064   21133008.5164
       204.000
 96  4 22  0 52 29.9980000  0  6 17 16 20 05 24 06
  23274793.774   -14937122.33946 -10373754.36048  23274792.9774   23274800.2104
       162.000
  20770831.240   -31643674.11346 -24646208.79348  20770830.6434   20770836.1404
       209.000
  20103786.372   -38319209.42246 -29834559.23548  20103786.0094   20103791.4054
       216.000
  20824053.822   -40241216.01446 -29575216.97948  20824053.1784   20824058.4834
       205.000
  22856705.653   -31042139.37546 -23205141.16548  22856705.3424   22856711.1534
       173.000
  21117582.423   -33182872.58846 -25097186.00548  21117582.1724   21117587.0944
       204.000
 96  4 22  0 52 59.9980000  0  6 17 16 20 05 24 06
  23253889.943   -15046972.31446 -10459351.66048  23253889.1284   23253896.4024
       163.000
  20764783.428   -31675455.64446 -24670973.61348  20764782.8204   20764788.3564
       209.000
  20100599.197   -38335957.90446 -29847610.00548  20100598.8854   20100604.2824
       216.000
  20831923.577   -40199860.20146 -29542991.69248  20831922.9504   20831928.2444
       205.000
  22866375.787   -30991322.42146 -23165543.55048  22866375.4884   22866381.3784
       171.000
  21102184.183   -33263790.87446 -25160239.20148  21102183.9424   21102188.8454
       204.000
 96  4 22  0 53 29.9980000  0  6 17 16 20 05 24 06
  23233024.970   -15156617.57646 -10544789.43448  23233024.2424   23233031.5754
       164.000
  20758845.410   -31706660.20746 -24695288.84548  20758844.7914   20758850.3324
       209.000
  20097518.999   -38352144.57546 -29860223.00348  20097518.6874   20097524.0654
       216.000
  20839873.526   -40158083.12046 -29510438.15048  20839872.9164   20839878.2254
       205.000
  22876052.556   -30940470.37846 -23125918.59948  22876052.2494   22876058.1864
       170.000
  21086807.803   -33344594.42746 -25223202.99448  21086807.5774   21086812.4474
       204.000
 96  4 22  0 53 59.9980000  0  6 17 16 20 05 24 06
  23212200.305   -15266051.46946 -10630062.52648  23212199.6294   23212206.9424
       164.000
  20753018.609   -31737280.15946 -24719148.53448  20753017.9954   20753023.5174
       209.000
  20094547.175   -38367761.77146 -29872392.25748  20094546.8254   20094552.1944
       216.000
  20847903.482   -40115885.64946 -29477557.03248  20847902.8674   20847908.1714
       204.000
  22885739.110   -30889567.17946 -23086253.79048  22885738.8424   22885744.6724
       169.000
  21071456.394   -33425266.70246 -25286064.49448  21071456.1544   21071461.0194
       205.000
 96  4 22  0 54 29.9980000  0  6 17 16 20 05 24 06
  23191414.045   -15375283.20546 -10715178.08548  23191413.4584   23191420.7694
       164.000
  20747302.998   -31767316.05446 -24742553.11148  20747302.4014   20747307.9034
       209.000
  20091683.541   -38382810.34446 -29884118.42248  20091683.1674   20091688.5544
       216.000
  20856015.738   -40073255.63546 -29444338.86648  20856015.0914   20856020.3924
       204.000
  22895435.056   -30838614.94846 -23046550.75848  22895434.7414   22895440.5544
       168.000
  21056130.969   -33505802.31346 -25348819.50148  21056130.7144   21056135.5634
       205.000
 96  4 22  0 54 59.9980000  0  6 17 16 20 05 24 06
  23170668.431   -15484301.74946 -10800127.51948  23170667.8514   23170675.1154
       163.000
  20741704.705   -31796735.51946 -24765477.35648  20741704.0974   20741709.5154
       209.000
  20088933.468   -38397261.81746 -29895379.31948  20088933.1214   20088938.5194
       216.000
  20864212.768   -40030180.06346 -29410773.51348  20864212.1464   20864217.4364
       204.000
  22905140.340   -30787613.03646 -23006809.03748  22905140.0624   22905145.8774
       168.000
  21040835.270   -33586181.71746 -25411452.79148  21040835.0134   21040839.8674
       205.000
 96  4 22  0 55 29.9980000  0  6 17 16 20 05 24 06
  23149960.512   -15593122.27146 -10884922.64948  23149959.8774   23149967.1154
       163.000
  20736221.573   -31825549.67346 -24787929.92748  20736220.9334   20736226.3214
       209.000
  20086295.664   -38411123.68946 -29906180.78648  20086295.3174   20086300.7314
       216.000
  20872492.945   -39986667.45146 -29376867.60748  20872492.3344   20872497.6464
       204.000
  22914849.893   -30736589.53046 -22967050.47748  22914849.5694   22914855.3774
       170.000
  21025567.187   -33666415.92446 -25473972.93548  21025566.9334   21025571.7754
       205.000
 96  4 22  0 55 59.9980000  0  6 17 16 20 05 24 06
  23129291.972   -15701736.23346 -10969556.83148  23129291.2454   23129298.4774
       164.000
  20730854.094   -31853755.74146 -24809908.67248  20730853.4594   20730858.7924
       209.000
  20083774.212   -38424374.15046 -29916505.83248  20083773.8734   20083779.2824
       216.000
  20880857.861   -39942709.46146 -29342614.65748  20880857.2434   20880862.6034
       204.000
  22924562.295   -30685550.52846 -22927279.84148  22924561.9664   22924567.7764
       170.000
  21010328.185   -33746497.20346 -25536373.92148  21010327.9434   21010332.7974
       205.000
 96  4 22  0 56 29.9980000  0  6 17 16 20 05 24 06
  23108662.201   -15810146.78346 -11054032.51048  23108661.4274   23108668.5754
       164.000
  20725601.732   -31881357.06046 -24831416.17748  20725601.0954   20725606.4114
       209.000
  20081369.870   -38437009.20346 -29926351.33448  20081369.5174   20081374.9164
       215.000
  20889306.159   -39898313.62246 -29308020.52248  20889305.5354   20889310.8914
       203.000
  22934276.408   -30634502.72046 -22887502.33848  22934276.0814   22934281.7974
       170.000
  20995115.049   -33826442.75246 -25598669.13448  20995114.8144   20995119.6834
       205.000
 96  4 22  0 56 59.9980000  0  6 17 16 20 05 24 06
  23088070.080   -15918358.04546 -11138352.89548  23088069.4424   23088076.5774
       164.000
  20720463.027   -31908360.85646 -24852458.08348  20720462.4124   20720467.7114
       209.000
  20079080.260   -38449041.40246 -29935727.08448  20079079.8924   20079085.2934
       215.000
  20897832.670   -39853506.64746 -29273106.02748  20897832.0324   20897837.4054
       203.000
  22943990.686   -30583454.20346 -22847724.28648  22943990.3564   22943996.1334
       171.000
  20979923.730   -33906273.61846 -25660874.99248  20979923.4614   20979928.3414
       205.000
 96  4 22  0 57 29.9980000  0  6 17 16 20 05 24 06
  23067515.970   -16026370.28046 -11222518.19648  23067515.3024   23067522.5164
       163.000
  20715433.114   -31934793.11646 -24873054.63348  20715432.5044   20715437.7904
       209.000
  20076900.916   -38460493.85446 -29944651.08248  20076900.5214   20076905.9304
       215.000
  20906437.431   -39808288.61946 -29237871.22748  20906436.7654   20906442.1234
       203.000
  22953706.685   -30532396.41646 -22807939.03448  22953706.3504   22953712.2464
       171.000
  20964751.716   -33986003.07646 -25723001.83148  20964751.4544   20964756.3144
       206.000
 96  4 22  0 57 59.9980000  0  6 17 16 20 05 24 06
  23047001.633   -16134174.21746 -11306521.18848  23047000.8834   23047007.9674
       164.000
  20710512.087   -31960653.25246 -24893205.37348  20710511.4414   20710516.7204
       209.000
  20074828.844   -38471382.44746 -29953135.70348  20074828.4854   20074833.9164
       215.000
  20915118.082   -39762671.48746 -29202325.44048  20915117.4154   20915122.7854
       203.000
  22963427.174   -30481314.84646 -22768135.23048  22963426.8114   22963432.6744
       171.000
  20949598.811   -34065632.13446 -25785050.43848  20949598.5554   20949603.3994
       206.000
 96  4 22  0 58 29.9980000  0  6 17 16 20 05 24 06
  23026533.102   -16241736.90046 -11390336.19048  23026532.2744   23026539.3964
       164.000
  20705707.467   -31985901.92546 -24912879.65148  20705706.8074   20705712.0734
       209.000
  20072869.173   -38481680.51446 -29961160.17948  20072868.8024   20072874.2324
       215.000
  20923878.163   -39716636.66646 -29166454.17948  20923877.5214   20923882.9244
       202.000
  22973157.789   -30430180.13046 -22728290.01048  22973157.4544   22973163.3154
       171.000
  20934472.741   -34145120.02346 -25846989.03548  20934472.4864   20934477.3174
       206.000
 96  4 22  0 58 59.9980000  0  6 17 16 20 05 24 06
  23006108.898   -16349066.41946 -11473969.50748  23006108.0834   23006115.1644
       163.000
  20701016.025   -32010555.68346 -24932090.35648  20701015.3454   20701020.6164
       209.000
  20071018.668   -38491404.94546 -29968737.66148  20071018.3334   20071023.7584
       215.000
  20932717.732   -39670184.61146 -29130257.79948  20932717.0914   20932722.4944
       202.000
  22982893.531   -30379018.59546 -22688423.90548  22982893.2144   22982899.0764
       170.000
  20919373.715   -34224465.85746 -25908816.94648  20919373.4594   20919378.2954
       206.000
 96  4 22  0 59 29.9980000  0  6 17 16 20 05 24 06
  22985729.778   -16456158.58146 -11557417.87648  22985729.0314   22985736.1544
       163.000
  20696436.763   -32034619.97046 -24950841.73348  20696436.0754   20696441.3684
       209.000
  20069279.385   -38500544.94346 -29975859.74548  20069279.0574   20069284.4654
       215.000
  20941639.853   -39623298.51546 -29093723.20748  20941639.2254   20941644.6334
       202.000
  22992633.614   -30327833.88046 -22648539.73448  22992633.3414   22992639.2734
       170.000
  20904304.788   -34303653.65346 -25970521.71048  20904304.5214   20904309.3704
       206.000
 96  4 22  0 59 59.9980000  0  6 17 16 20 05 24 06
  22965391.776   -16563034.71546 -11640697.90748  22965391.0714   22965398.1554
       163.000
  20691971.030   -32058087.33546 -24969127.97348  20691970.3774   20691975.6794
       209.000
  20067652.182   -38509096.18546 -29982523.05948  20067651.8544   20067657.2624
       215.000
  20950642.293   -39575990.63546 -29056859.95948  20950641.6634   20950647.0864
       202.000
  23002373.908   -30276648.75546 -22608655.24248  23002373.5484   23002379.5384
       168.000
  20889266.034   -34382682.66746 -26032102.74448  20889265.7524   20889270.6184
       206.000
 96  4 22  1  0 29.9980000  0  6 17 16 20 05 24 06
  22945092.373   -16669709.31946 -11723820.92048  22945091.5544   22945098.5524
       165.000
  20687618.088   -32080962.22346 -24986952.54948  20687617.4304   20687622.7174
       209.000
  20066137.649   -38517054.88446 -29988724.64848  20066137.3324   20066142.7404
       215.000
  20959724.793   -39528262.12846 -29019668.94648  20959724.1254   20959729.5534
       201.000
  23012111.729   -30225475.63746 -22568780.11348  23012111.3964   23012117.4584
       166.000
  20874255.757   -34461562.13346 -26093567.24548  20874255.4944   20874260.3834
       206.000
 96  4 22  1  0 59.9980000  0  6 17 16 20 05 24 06
  22924831.939   -16776178.31546 -11806783.70648  22924831.1704   22924838.1634
       165.000
  20683377.899   -32103244.47746 -25004315.33248  20683377.2564   20683382.5434
       209.000
  20064734.511   -38524428.48746 -29994470.32148  20064734.1844   20064739.5954
       215.000
  20968887.116   -39480113.81546 -28982150.81048  20968886.4824   20968891.8954
       201.000
  23021848.745   -30174307.55046 -22528908.89048  23021848.4164   23021854.4254
       165.000
  20859272.199   -34540301.06146 -26154922.24248  20859271.9374   20859276.8074
       207.000
 96  4 22  1  1 29.9980000  0  6 17 16 20 05 24 06
  22904610.525   -16882441.84746 -11889586.38848  22904609.8094   22904616.8654
       165.000
  20679253.551   -32124918.04346 -25021203.81648  20679252.9114   20679258.2004
       209.000
  20063444.800   -38531206.13946 -29999751.61648  20063444.4264   20063449.8394
       215.000
  20978126.122   -39431562.39546 -28944318.56748  20978125.5164   20978130.9374
       201.000
  23031587.124   -30123132.25146 -22489032.05148  23031586.7644   23031592.7944
       164.000
  20844314.355   -34618904.78146 -26216171.88048  20844314.1124   20844318.9504
       207.000
 96  4 22  1  1 59.9980000  0  6 17 16 20 05 24 06
  22884429.111   -16988496.01246 -11972225.93848  22884428.3204   22884435.3834
       165.000
  20675248.498   -32145964.39446 -25037603.55448  20675247.8644   20675253.2304
       208.000
  20062269.882   -38537380.48646 -30004562.80348  20062269.4704   20062274.8744
       215.000
  20987439.808   -39382618.66446 -28906180.62848  20987439.1884   20987444.6354
       200.000
  23041328.490   -30071939.51046 -22449141.63848  23041328.1504   23041334.3704
       162.000
  20829382.183   -34697373.80146 -26277316.55648  20829381.9294   20829386.7664
       207.000
 96  4 22  1  2 29.9980000  0  6 17 16 20 05 24 06
  22864292.586   -17094313.60446 -12054681.14348  22864291.8404   22864298.9134
       166.000
  20671360.809   -32166394.27346 -25053522.92748  20671360.1654   20671365.6074
       208.000
  20061211.068   -38542944.76946 -30008898.61748  20061210.6734   20061216.0864
       215.000
  20996826.134   -39333293.38346 -28867745.37648  20996825.5204   20996830.9754
       200.000
  23051078.034   -30020706.45146 -22409219.77148  23051077.6904   23051083.7064
       163.000
  20814476.113   -34775705.76246 -26338354.43048  20814475.8784   20814480.6984
       207.000
 96  4 22  1  2 59.9980000  0  6 17 16 20 05 24 06
  22844199.457   -17199903.33246 -12136958.80648  22844198.7704   22844205.7714
       166.000
  20667584.999   -32186236.01946 -25068984.01448  20667584.3894   20667589.9074
       208.000
  20060262.852   -38547927.63046 -30012781.37848  20060262.4894   20060267.8914
       215.000
  21006282.733   -39283598.66246 -28829022.24948  21006282.1234   21006287.5924
       200.000
  23060831.463   -29969451.75346 -22369281.06748  23060831.0694   23060837.1914
       163.000
  20799594.495   -34853909.17546 -26399292.13548  20799594.2604   20799599.0554
       207.000
 96  4 22  1  3 29.9980000  0  6 17 16 20 05 24 06
  22824147.871   -17305275.29946 -12219066.77548  22824147.1424   22824154.0644
       167.000
  20663918.880   -32205501.49246 -25083996.06048  20663918.2674   20663923.8734
       208.000
  20059425.335   -38552328.67646 -30016210.77548  20059424.9894   20059430.4074
       215.000
  21015809.115   -39233537.58546 -28790013.64848  21015808.4594   21015813.9444
       200.000
  23070587.054   -29918185.03546 -22329332.99148  23070586.8444   23070592.9174
       163.000
  20784739.914   -34931970.53446 -26460119.14648  20784739.6644   20784744.4724
       208.000
 96  4 22  1  3 59.9980000  0  6 17 16 20 05 24 06
  22804140.349   -17410415.49546 -12300994.14048  22804139.5634   22804146.4394
       167.000
  20660360.434   -32224201.07346 -25098567.14848  20660359.8314   20660365.4414
       207.000
  20058697.179   -38556155.39246 -30019192.64248  20058696.8234   20058702.2324
       215.000
  21025406.302   -39183104.29546 -28750715.01448  21025405.6744   21025411.1524
       199.000
  23080346.216   -29866901.10046 -22289371.49448  23080346.0194   23080351.9134
       163.000
  20769916.558   -35009867.86346 -26520818.35148  20769916.3164   20769921.1004
       208.000
 96  4 22  1  4 29.9980000  0  6 17 16 20 05 24 06
  22784178.743   -17515314.04946 -12382733.22448  22784178.0124   22784184.8144
       167.000
  20656907.111   -32242348.28246 -25112707.82748  20656906.5114   20656912.1454
       207.000
  20058076.373   -38559417.94046 -30021734.90048  20058075.9634   20058081.3744
       215.000
  21035076.009   -39132289.73646 -28711119.28848  21035075.3604   21035080.8534
       199.000
  23090107.550   -29815605.61146 -22249400.97548  23090107.2824   23090113.0884
       164.000
  20755125.449   -35087595.57646 -26581385.38948  20755125.1864   20755129.9784
       208.000
 96  4 22  1  4 59.9980000  0  6 17 16 20 05 24 06
  22764261.300   -17619980.79546 -12464291.67748  22764260.6304   22764267.3284
       168.000
  20653563.048   -32259921.51146 -25126401.24548  20653562.4464   20653568.0944
       207.000
  20057564.131   -38562109.90246 -30023832.54148  20057563.7084   20057569.1284
       215.000
  21044824.744   -39081060.10146 -28671200.12048  21044824.0424   21044829.5314
       199.000
  23099868.776   -29764309.49646 -22209430.00648  23099868.5834   23099874.5224
       164.000
  20740369.487   -35165138.55146 -26641808.46848  20740369.2314   20740374.0454
       208.000
 96  4 22  1  5 29.9980000  0  6 17 16 20 05 24 06
  22744383.692   -17724438.60846 -12545687.32348  22744382.9314   22744389.6114
       168.000
  20650329.366   -32276914.68346 -25139642.67648  20650328.7554   20650334.3384
       207.000
  20057160.207   -38564232.48646 -30025486.52148  20057159.8074   20057165.2314
       215.000
  21054647.021   -39029443.67846 -28630979.56448  21054646.3724   21054651.8344
       198.000
  23109628.019   -29713024.79046 -22169467.91348  23109627.7974   23109633.7124
       164.000
  20725645.673   -35242512.72346 -26702100.01448  20725645.4344   20725650.2364
       208.000
 96  4 22  1  5 59.9980000  0  6 17 16 20 05 24 06
  22724545.918   -17828686.04646 -12626919.04248  22724545.2754   22724551.9034
       168.000
  20647207.426   -32293320.57546 -25152426.48248  20647206.7964   20647212.3674
       208.000
  20056864.124   -38565788.29646 -30026698.85648  20056863.7624   20056869.1744
       215.000
  21064543.801   -38977435.76046 -28590453.94448  21064543.1904   21064548.6594
       198.000
  23119384.854   -29661752.84546 -22129515.76248  23119384.5634   23119390.4414
       164.000
  20710951.134   -35319733.17246 -26762271.77748  20710950.8674   20710955.6764
       208.000
 96  4 22  1  6 29.9980000  0  6 17 16 20 05 24 06
  22704742.316   -17932754.29346 -12708011.13248  22704741.6644   22704748.3174
       168.000
  20644197.746   -32309136.77546 -25164750.79048  20644197.1204   20644202.6264
       208.000
  20056674.854   -38566783.11846 -30027474.05648  20056674.4834   20056679.9214
       215.000
  21074512.480   -38925050.10546 -28549633.98448  21074511.8794   21074517.3324
       198.000
  23129135.334   -29610513.28246 -22089588.85948  23129135.1034   23129140.9644
       164.000
  20696281.791   -35396821.16746 -26822340.33548  20696281.5224   20696286.3214
       209.000
 96  4 22  1  6 59.9980000  0  6 17 16 20 05 24 06
  22684976.965   -18036621.82446 -12788946.82048  22684976.2584   22684982.9354
       169.000
  20641308.612   -32324319.23846 -25176581.27848  20641308.0104   20641313.5094
       208.000
  20056600.082   -38567176.25946 -30027780.41048  20056599.6854   20056605.1304
       215.000
  21084555.670   -38872272.62946 -28508508.71648  21084555.0864   21084560.6184
       197.000
  23138887.029   -29559268.01546 -22049657.50348  23138886.7624   23138892.7354
       165.000
  20681643.982   -35473743.37746 -26882279.70648  20681643.7064   20681648.5144
       209.000
 96  4 22  1  7 29.9980000  0  6 17 16 20 05 24 06
  22665255.804   -18140257.02846 -12869701.47048  22665255.1404   22665261.7454
       169.000
  20638541.389   -32338861.19446 -25187912.66948  20638540.7764   20638546.2504
       208.000
  20056642.064   -38566955.77046 -30027608.61048  20056641.6464   20056647.1014
       215.000
  21094671.715   -38819112.99146 -28467085.65048  21094671.0334   21094676.5664
       197.000
  23148643.436   -29507998.19946 -22009707.01448  23148643.1984   23148649.1264
       164.000
  20667037.502   -35550500.85846 -26942090.71748  20667037.2484   20667042.0224
       209.000
 96  4 22  1  7 59.9980000  0  6 17 16 20 05 24 06
  22645579.958   -18243654.27846 -12950270.70948  22645579.2924   22645585.8674
       170.000
  20635891.645   -32352785.69846 -25198762.92948  20635891.0304   20635896.5144
       208.000
  20056797.934   -38566136.67546 -30026970.36548  20056797.5084   20056802.9764
       215.000
  21104860.100   -38765572.69246 -28425365.96448  21104859.4604   21104864.9744
       197.000
  23158402.438   -29456713.92946 -21969745.27548  23158402.1624   23158408.1314
       163.000
  20652461.594   -35627097.93646 -27001776.74248  20652461.3394   20652466.0804
       209.000
 96  4 22  1  8 29.9980000  0  6 17 16 20 05 24 06
  22625952.190   -18346798.41146 -13030642.70748  22625951.5804   22625958.1214
       170.000
  20633357.232   -32366103.96446 -25209140.79548  20633356.6244   20633362.1354
       208.000
  20057067.844   -38564718.23846 -30025865.10248  20057067.4614   20057072.9134
       215.000
  21115120.010   -38711656.41746 -28383353.32748  21115119.3674   21115124.9404
       196.000
  23168164.347   -29405414.74946 -21929771.90048  23168164.0734   23168170.1024
       163.000
  20637917.811   -35703525.90046 -27061330.98848  20637917.5574   20637922.3074
       209.000
 96  4 22  1  8 59.9980000  0  6 17 16 20 05 24 06
  22606372.882   -18449688.45146 -13110816.71848  22606372.1544   22606378.7314
       170.000
  20630931.762   -32378849.90746 -25219072.69648  20630931.1644   20630936.6644
       208.000
  20057446.866   -38562726.49246 -30024313.10448  20057446.4794   20057451.9334
       215.000
  21125449.483   -38657375.09446 -28341056.22348  21125448.8264   21125454.3494
       196.000
  23177924.703   -29354123.96546 -21889805.09048  23177924.4074   23177930.4884
       163.000
  20623403.678   -35779798.20646 -27120763.94448  20623403.4154   20623408.1644
       209.000
 96  4 22  1  9 29.9980000  0  6 17 16 20 05 24 06
  22586842.044   -18552323.58946 -13190792.10248  22586841.2854   22586847.8904
       170.000
  20628615.575   -32391021.50846 -25228557.06248  20628614.9774   20628620.5054
       208.000
  20057931.380   -38560180.27246 -30022329.05248  20057931.0134   20057936.4574
       215.000
  21135850.158   -38602719.53546 -28298467.51248  21135849.4864   21135855.0254
       196.000
  23187679.342   -29302863.11146 -21849861.59148  23187678.9744   23187685.1534
       162.000
  20608920.517   -35855907.40746 -27180069.81348  20608920.2714   20608925.0114
       209.000
 96  4 22  1  9 59.9980000  0  6 17 16 20 05 24 06
  22567353.441   -18654736.65046 -13270594.43448  22567352.6874   22567359.3134
       171.000
  20626407.680   -32402624.01646 -25237597.96648  20626407.0764   20626412.6414
       208.000
  20058517.961   -38557097.85246 -30019927.18048  20058517.5974   20058523.0284
       215.000
  21146320.785   -38547696.05246 -28255592.09948  21146320.1374   21146325.6814
       196.000
  23197425.763   -29251645.12446 -21809951.50348  23197425.4374   23197431.6744
       162.000
  20594471.334   -35931838.21946 -27239236.67048  20594471.0944   20594475.8464
       210.000
 96  4 22  1 10 29.9980000  0  6 17 16 20 05 24 06
  22547903.603   -18756946.22246 -13350238.20148  22547902.8024   22547909.4244
       171.000
  20624308.172   -32413656.62346 -25246194.80248  20624307.5694   20624313.1834
       208.000
  20059207.042   -38553476.90046 -30017105.67448  20059206.6504   20059212.1014
       215.000
  21156862.122   -38492301.16346 -28212427.28848  21156861.4604   21156867.0124
       195.000
  23207163.756   -29200471.43546 -21770075.92348  23207163.4854   23207169.6664
       161.000
  20580055.793   -36007592.39846 -27298265.89748  20580055.5444   20580060.2924
       210.000
 96  4 22  1 10 59.9980000  0  6 17 16 20 05 24 06
  22528489.654   -18858966.44946 -13429734.43248  22528488.9324   22528495.5114
       171.000
  20622320.029   -32424104.17646 -25254335.74548  20622319.4454   20622325.1024
       208.000
  20060001.251   -38549303.30046 -30013853.53248  20060000.8704   20060006.3154
       215.000
  21167475.340   -38436528.20146 -28168967.87248  21167474.7024   21167480.2694
       195.000
  23216895.347   -29149332.44246 -21730227.36948  23216895.0084   23216901.1114
       161.000
  20565675.502   -36083161.21046 -27357150.67648  20565675.2294   20565679.9984
       210.000
 96  4 22  1 11 29.9980000  0  6 17 16 20 05 24 06
  22509108.075   -18960817.04046 -13509098.47648  22509107.3004   22509113.9364
       171.000
  20620441.842   -32433974.11146 -25262026.60148  20620441.2564   20620446.8854
       208.000
  20060899.983   -38544580.55646 -30010173.48748  20060899.6084   20060905.0584
       215.000
  21178156.329   -38380399.31946 -28125231.11948  21178155.7084   21178161.2954
       195.000
  23226621.282   -29098222.28446 -21690401.28947  23226620.9254   23226627.0414
       160.000
  20551326.159   -36158567.60146 -27415908.89848  20551325.9034   20551330.6414
       210.000
 96  4 22  1 11 59.9980000  0  6 17 16 20 05 24 06
  22489762.595   -19062478.19446 -13588314.90848  22489761.8324   22489768.4544
       172.000
  20618673.086   -32443269.24046 -25269269.56048  20618672.5104   20618678.1094
       208.000
  20061909.853   -38539273.66646 -30006038.25748  20061909.4794   20061914.9244
       215.000
  21188905.502   -38323912.41946 -28081215.38548  21188904.8174   21188910.4204
       194.000
  23236349.262   -29047100.96546 -21650566.52047  23236348.9904   23236355.1064
       159.000
  20537007.234   -36233814.05646 -27474542.49248  20537006.9764   20537011.6974
       210.000
 96  4 22  1 12 29.9980000  0  6 17 16 20 05 24 06
  22470461.511   -19163905.34146 -13667349.00048  22470460.8144   22470467.4304
       172.000
  20617015.756   -32451978.71646 -25276056.16448  20617015.1474   20617020.7024
       208.000
  20063036.399   -38533353.85746 -30001425.43848  20063036.0094   20063041.4564
       215.000
  21199724.334   -38267058.84546 -28036913.93548  21199723.7074   21199729.3274
       194.000
  23246083.787   -28995946.45546 -21610705.87347  23246083.4724   23246089.4524
       159.000
  20522718.884   -36308899.87846 -27533050.92248  20522718.5984   20522723.3464
       210.000
 96  4 22  1 12 59.9980000  0  6 17 16 20 05 24 06
  22451209.603   -19265074.69846 -13746182.20348  22451208.8724   22451215.4984
       172.000
  20615471.285   -32460094.74246 -25282380.33748  20615470.6874   20615476.2374
       208.000
  20064277.570   -38526831.39146 -29996343.01048  20064277.2004   20064282.6574
       215.000
  21210609.033   -38209859.47146 -27992343.02648  21210608.4014   21210614.0614
       194.000
  23255823.853   -28944761.72646 -21570821.68847  23255823.5194   23255829.4574
       159.000
  20508461.748   -36383821.61546 -27591431.49048  20508461.4784   20508466.1984
       211.000
 96  4 22  1 13 29.9980000  0  6 17 16 20 05 24 06
  22432004.533   -19365997.72746 -13824823.48548  22432003.8474   22432010.4904
       172.000
  20614035.000   -32467642.17746 -25288261.45348  20614034.3914   20614040.0044
       208.000
  20065626.997   -38519740.06046 -29990817.31548  20065626.6264   20065632.0914
       214.000
  21221553.256   -38152347.36646 -27947528.43548  21221552.6054   21221558.2494
       193.000
  23265563.477   -28893580.05646 -21530939.88047  23265563.1364   23265569.0504
       159.000
  20494232.175   -36458598.46546 -27649699.16548  20494231.9184   20494236.6194
       211.000
 96  4 22  1 13 59.9980000  0  6 17 16 20 05 24 06
  22412847.716   -19466667.38746 -13903267.31948  22412846.9394   22412853.6874
       173.000
  20612707.543   -32474617.83546 -25293697.03048  20612706.9404   20612712.6084
       208.000
  20067085.684   -38512074.86746 -29984844.45148  20067085.2964   20067090.7544
       214.000
  21232559.538   -38094508.95646 -27902459.58048  21232558.8954   21232564.5864
       193.000
  23275300.024   -28842414.87246 -21491070.92247  23275299.5654   23275305.5324
       159.000
  20480035.007   -36533205.21146 -27707834.28648  20480034.7174   20480039.4254
       211.000
 96  4 22  1 14 29.9980000  0  6 17 16 20 05 24 06
  22393738.111   -19567089.02546 -13981517.89848  22393737.2984   22393744.0484
       174.000
  20611490.943   -32481011.16846 -25298678.83848  20611490.3524   20611496.0464
       208.000
  20068652.566   -38503840.90046 -29978428.38148  20068652.1814   20068657.6334
       214.000
  21243630.250   -38036332.28246 -27857127.13948  21243629.5714   21243635.2574
       193.000
  23285030.187   -28791282.51246 -21451227.53447  23285029.7994   23285035.7124
       158.000
  20465873.577   -36607623.96646 -27765822.92448  20465873.3214   20465878.0144
       211.000
 96  4 22  1 14 59.9980000  0  6 17 16 20 05 24 06
  22374664.541   -19667320.59546 -14059620.36448  22374663.8434   22374670.5894
       174.000
  20610380.721   -32486845.64046 -25303225.18348  20610380.1114   20610385.8124
       208.000
  20070320.457   -38495076.06146 -29971598.65048  20070320.0764   20070325.5384
       214.000
  21254760.099   -37977844.59546 -27811552.35248  21254759.4364   21254765.1164
       192.000
  23294748.195   -28740213.82446 -21411433.77847  23294747.8024   23294753.7264
       158.000
  20451744.220   -36681874.20146 -27823680.25248  20451743.9524   20451748.6394
       211.000
 96  4 22  1 15 29.9980000  0  6 17 16 20 05 24 06
  22355628.362   -19767356.66346 -14137570.49648  22355627.6014   22355634.3134
       174.000
  20609381.001   -32492099.50546 -25307319.10248  20609380.3734   20609386.0364
       208.000
  20072096.629   -38485742.30646 -29964325.60748  20072096.2474   20072101.7044
       214.000
  21265954.948   -37919015.33246 -27765711.40548  21265954.3064   21265960.0124
       192.000
  23304461.095   -28689172.17246 -21371661.08047  23304460.6984   23304466.6704
       158.000
  20437652.238   -36755928.00246 -27881384.50848  20437651.9784   20437656.6394
       211.000
 96  4 22  1 15 59.9980000  0  6 17 16 20 05 24 06
  22336628.869   -19867200.17146 -14215370.58148  22336628.0344   22336634.6714
       175.000
  20608491.238   -32496775.35246 -25310962.61848  20608490.5994   20608496.2134
       208.000
  20073980.507   -38475842.46946 -29956611.46248  20073980.1034   20073985.5734
       214.000
  21277213.639   -37859850.82946 -27719609.23248  21277212.9924   21277218.6904
       192.000
  23314171.820   -28638142.46646 -21331897.69247  23314171.4054   23314177.3804
       158.000
  20423596.923   -36829789.28046 -27938938.74248  20423596.6584   20423601.3264
       211.000
 96  4 22  1 16 29.9980000  0  5 16 20 05 24 06
  20607714.255   -32500858.49746 -25314144.28648  20607713.6474   20607719.2084
       208.000
  20075970.527   -38465384.58346 -29948462.48248  20075970.1454   20075975.6364
       214.000
  21288536.043   -37800351.51746 -27673246.17048  21288535.3744   21288541.0754
       191.000
  23323883.986   -28587104.95546 -21292128.22847  23323883.5824   23323889.6404
       158.000
  20409579.460   -36903451.61146 -27996337.95748  20409579.2024   20409583.8474
       212.000
 96  4 22  1 16 59.9980000  0  6 17 16 20 05 24 06
  22298747.802      -67841.02848                  22298746.799    22298753.3964
       225.000
  20607047.587   -32504361.93546 -25316874.23548  20607046.9484   20607052.4884
       208.000
  20078063.853   -38454384.18246 -29939890.75548  20078063.4864   20078068.9754
       214.000
  21299922.031   -37740517.98146 -27626622.67348  21299921.3614   21299927.0304
       191.000
  23333598.707   -28536053.27746 -21252347.73847  23333598.2564   23333604.4894
       157.000
  20395599.743   -36976915.55946 -28053582.58948  20395599.4704   20395604.1214
       212.000
 96  4 22  1 17 29.9980000  0  6 17 16 20 05 24 06
  22279875.974     -212347.68256   -145119.07848  22279874.8234   22279881.3394
       174.000
  20606491.108   -32507286.15946 -25319152.84748  20606490.4934   20606496.0554
       207.000
  20080261.989   -38442833.23746 -29930890.03748  20080261.6044   20080267.0864
       214.000
  21311375.499   -37680329.82546 -27579722.85248  21311374.8324   21311380.4844
       191.000
  23343318.023   -28484977.40546 -21212548.39047  23343317.6274   23343323.8254
       156.000
  20381659.269   -37050173.13046 -28110666.40648  20381659.0114   20381663.6764
       212.000
 96  4 22  1 17 59.9980000  0  6 17 16 20 05 24 06
  22261053.475     -311258.41746   -222192.32648  22261052.7744   22261059.2404
       175.000
  20606043.662   -32509637.50246 -25320985.05848  20606043.0334   20606048.5974
       207.000
  20082561.577   -38430748.87246 -29921473.66348  20082561.1924   20082566.6714
       214.000
  21322897.362   -37619782.41146 -27532543.08048  21322896.6764   21322902.3464
       190.000
  23353038.219   -28433897.85946 -21172746.17247  23353037.8784   23353043.9974
       158.000
  20367758.127   -37123224.00446 -28167589.15948  20367757.8654   20367762.5204
       212.000
 96  4 22  1 18 29.9980000  0  6 17 16 20 05 24 06
  22242277.777     -409919.27346   -299070.86348  22242278.2314   22242284.7074
       176.000
  20605704.023   -32511422.29546 -25322375.80148  20605703.3984   20605708.9654
       207.000
  20084960.001   -38418145.16746 -29911652.61148  20084959.5824   20084965.0684
       213.000
  21334483.588   -37558896.23746 -27485099.34848  21334482.9354   21334488.6264
       190.000
  23362753.549   -28382843.70946 -21132963.75447  23362753.1444   23362759.4464
       159.000
  20353894.747   -37196076.43346 -28224357.27848  20353894.4724   20353899.1454
       212.000
 96  4 22  1 18 59.9980000  0  6 17 16 20 05 24 06
  22223551.622     -508329.44146   -375754.06248  22223551.3764   22223557.8584
       176.000
  20605471.844   -32512642.44446 -25323326.56248  20605471.1994   20605476.7654
       207.000
  20087460.416   -38405005.47046 -29901413.90048  20087460.0114   20087465.4984
       213.000
  21346132.254   -37497682.02946 -27437400.00848  21346131.6014   21346137.3114
       190.000
  23372463.019   -28331819.00146 -21093204.28847  23372462.7614   23372469.0934
       157.000
  20340067.613   -37268738.48846 -28280977.05648  20340067.3544   20340072.0344
       212.000
 96  4 22  1 19 29.9980000  0  6 17 16 20 05 24 06
  22204869.394     -606506.23546   -452255.41648  22204868.9494   22204875.3994
       176.000
  20605348.295   -32513291.59146 -25323832.38948  20605347.6654   20605353.2034
       207.000
  20090063.828   -38391324.64346 -29890753.52748  20090063.4084   20090068.8964
       213.000
  21357837.766   -37436169.50246 -27389468.20848  21357837.0974   21357842.8284
       189.000
  23382164.219   -28280838.99746 -21053479.62647  23382163.9744   23382170.1644
       159.000
  20326275.835   -37341214.87546 -28337452.15548  20326275.5724   20326280.2354
       212.000
 96  4 22  1 19 59.9970000  0  6 17 16 20 05 24 06
  22186232.540     -704443.66646   -528570.24948  22186232.0814   22186238.4574
       176.000
  20605336.762   -32513351.83546 -25323879.33248  20605336.1334   20605341.6824
       206.000
  20092771.275   -38377096.90146 -29879666.98848  20092770.8544   20092776.3464
       213.000
  21369597.722   -37374370.59846 -27341313.25648  21369597.0364   21369602.7824
       189.000
  23391856.325   -28229908.10846 -21013793.23448  23391855.9454   23391862.1504
       161.000
  20312522.471   -37413489.38246 -28393769.94848  20312522.2034   20312526.8834
       212.000
 96  4 22  1 20 29.9970000  0  6 17 16 20 05 24 06
  22167639.005     -802153.37046   -604707.62948  22167638.5134   22167644.8974
       176.000
  20605436.769   -32512826.31546 -25323469.83448  20605436.1434   20605441.6744
       206.000
  20095584.439   -38362313.57246 -29868147.52348  20095584.0274   20095589.5164
       213.000
  21381413.824   -37312276.60446 -27292928.36848  21381413.1464   21381418.8894
       188.000
  23401539.243   -28179023.18346 -20974142.68347  23401538.8124   23401545.3104
       159.000
  20298806.208   -37485568.78946 -28449935.71048  20298805.9294   20298810.5894
       212.000
 96  4 22  1 20 59.9970000  0  6 17 16 20 05 24 06
  22149093.675                      -20923.95847  22149093.582    22149099.7054
       227.000
  20605647.895   -32511716.98446 -25322605.41848  20605647.2774   20605652.7764
       206.000
  20098506.347   -38346958.92446 -29856182.87448  20098505.9444   20098511.4374
       213.000
  21393291.444   -37249859.86246 -27244291.98048  21393290.7334   21393296.4254
       188.000
  23411217.300   -28128165.02546 -20934512.97347  23411216.9424   23411223.2604
       159.000
  20285130.889   -37557433.04946 -28505933.82448  20285130.5864   20285135.2544
       212.000
 96  4 22  1 21 29.9970000  0  6 17 16 20 05 24 06
  22130594.460     -149357.89146    -96676.85248  22130593.9884   22130600.1294
       173.000
  20605966.036   -32510045.10046 -25321302.64948  20605965.4174   20605970.9324
       206.000
  20101531.994   -38331058.97546 -29843793.32148  20101531.6194   20101537.1344
       213.000
  21405229.115   -37187126.62446 -27195408.97948  21405228.4494   21405234.1534
       188.000
  23420886.334   -28077354.03846 -20894920.02747  23420885.9884   23420892.2764
       158.000
  20271493.940   -37629095.57346 -28561774.74948  20271493.6574   20271498.3274
       212.000
 96  4 22  1 21 59.9970000  0  6 17 16 20 05 24 06
  22112138.785     -246344.18446   -172250.54248  22112138.0154   22112144.1384
       177.000
  20606389.298   -32507820.87646 -25319569.48548  20606388.6844   20606394.1944
       206.000
  20104660.793   -38314616.99946 -29830981.40348  20104660.4034   20104665.9074
       213.000
  21417229.388   -37124065.05346 -27146270.12348  21417228.7214   21417234.4264
       188.000
  23430546.561   -28026589.29746 -20855363.10247  23430546.3004   23430552.2954
       156.000
  20257892.988   -37700569.16446 -28617468.44748  20257892.7034   20257897.3724
       212.000
 96  4 22  1 22 29.9970000  0  6 17 16 20 05 24 06
  22093727.499     -343089.44446   -247636.41848  22093727.8904   22093734.1374
       178.000
  20606916.920   -32505048.03646 -25317408.82648  20606916.2994   20606921.8514
       205.000
  20107895.531   -38297618.24946 -29817735.63948  20107895.1644   20107900.6604
       213.000
  21429292.801   -37060671.53046 -27096872.62048  21429292.1104   21429297.8444
       187.000
  23440202.228   -27975848.87646 -20815825.14147  23440201.9264   23440208.0604
       156.000
  20244328.024   -37771853.48146 -28673014.66148  20244327.7444   20244332.4054
       213.000
 96  4 22  1 22 59.9970000  0  6 17 16 20 05 24 06
  22075360.400     -439609.33546   -322846.67148  22075360.6464   22075366.9734
       177.000
  20607548.337   -32501730.14246 -25314823.45548  20607547.7024   20607553.2274
       205.000
  20111234.966   -38280069.57246 -29804061.35948  20111234.5724   20111240.0844
       213.000
  21441414.037   -36996974.11846 -27047238.31048  21441413.3984   21441419.0964
       187.000
  23449854.196   -27925127.78846 -20776302.22947  23449853.8744   23449859.9204
       156.000
  20230798.880   -37842949.56946 -28728414.20348  20230798.5804   20230803.2594
       213.000
 96  4 22  1 23 29.9970000  0  6 17 16 20 05 24 06
  22057031.894     -535928.80046   -397900.75948  22057031.6454   22057037.9534
       178.000
  20608285.292   -32497857.54546 -25311805.84248  20608284.6424   20608290.1284
       205.000
  20114678.591   -38261973.37646 -29789960.44048  20114678.2084   20114683.7304
       213.000
  21453591.903   -36932979.24146 -26997372.21248  21453591.2284   21453596.9694
       186.000
  23459501.113   -27874433.18946 -20736799.95347  23459500.8054   23459506.7794
       155.000
  20217305.075   -37913859.90646 -28783668.99848  20217304.7814   20217309.4374
       213.000
 96  4 22  1 23 59.9970000  0  6 17 16 20 05 24 06
  22038739.509     -632057.17446   -472805.94648  22038739.0784   22038745.3114
       178.000
  20609126.468   -32493437.00846 -25308361.27048  20609125.8194   20609131.3114
       205.000
  20118222.368   -38243350.78246 -29775449.34248  20118221.9654   20118227.4854
       213.000
  21465821.824   -36868710.70046 -26947292.86548  21465821.1714   21465826.9344
       186.000
  23469142.535   -27823766.31046 -20697319.31947  23469142.2814   23469148.5154
       153.000
  20203846.681   -37984584.33546 -28838778.93548  20203846.3784   20203851.0304
       213.000
 96  4 22  1 24 29.9970000  0  6 17 16 20 05 24 06
  22020483.690     -727992.76546   -547560.90748  22020483.1174   22020489.3184
       179.000
  20610070.170   -32488477.81846 -25304496.96448  20610069.5264   20610075.0294
       204.000
  20121862.358   -38224222.68246 -29760544.34548  20121861.9554   20121867.4734
       212.000
  21478100.601   -36804185.70046 -26897013.67948  21478099.9314   21478105.6794
       186.000
  23478778.311   -27773131.04546 -20657863.26947  23478778.1004   23478784.0024
       151.000
  20190426.870   -38055105.76646 -28893730.69048  20190426.5694   20190431.2444
       213.000
 96  4 22  1 24 59.9970000  0  6 17 16 20 05 24 06
  22002266.814     -823723.30946   -622156.08948  22002266.1484   22002272.3854
       179.000
  20611118.775   -32482967.42646 -25300203.14748  20611118.1204   20611123.6374
       205.000
  20125598.943   -38204586.70746 -29745243.60448  20125598.5684   20125604.0854
       212.000
  21490430.999   -36739389.16946 -26846522.91848  21490430.2954   21490436.0674
       185.000
  23488409.541   -27722518.68146 -20618425.08247  23488409.2424   23488415.0874
       148.000
  20177048.920   -38125407.43246 -28948511.20148  20177048.6104   20177053.2724
       213.000
 96  4 22  1 25 29.9970000  0  6 17 16 20 05 24 06
  21984094.721     -919218.37146   -696567.79448  21984094.0294   21984100.2594
       179.000
  20612273.432   -32476899.66446 -25295475.02548  20612272.7904   20612278.3304
       205.000
  20129431.915   -38184444.26746 -29729548.21048  20129431.5444   20129437.0784
       212.000
  21502815.347   -36674308.69146 -26795810.89648  21502814.7014   21502820.5054
       185.000
  23498036.730   -27671926.85246 -20579002.90047  23498036.6074   23498042.4524
       148.000
  20163713.675   -38195484.56046 -29003116.74348  20163713.3824   20163718.0304
       213.000
 96  4 22  1 25 59.9970000  0  7 17 23 16 20 05 24 06
  21965975.303    -1014436.49846   -770763.68948  21965974.5724   21965980.8114
       179.000
  24014363.484    -5624825.72246  -2405510.89347  24014362.3344   24014371.7174
       139.000
  20613535.105   -32470269.87746 -25290308.96148  20613534.4474   20613539.9354
       205.000
  20133365.125   -38163775.13846 -29713442.40948  20133364.7324   20133370.2714
       212.000
  21515256.048   -36608932.64946 -26744868.55848  21515255.3794   21515261.2044
       185.000
  23507665.332   -27621329.03646 -20539576.04747  23507665.2014   23507671.0414
       149.000
  20150425.998   -38265311.92446 -29057527.66548  20150425.6914   20150430.3604
       213.000
 96  4 22  1 26 29.9970000  0  7 17 23 16 20 05 24 06
  21947906.913    -1109386.61046   -844750.74848  21947906.1914   21947912.3844
       180.000
  23988638.242    -5760012.51946  -2510851.04047  23988636.9224   23988646.1984
       141.000
  20614899.423   -32463100.39346 -25284722.35448  20614898.7734   20614904.2574
       205.000
  20137401.173   -38142565.59446 -29696915.50548  20137400.8074   20137406.3404
       212.000
  21527752.995   -36543260.65746 -26693695.62448  21527752.3274   21527758.2104
       184.000
  23517290.040   -27570750.83446 -20500164.50847  23517289.6894   23517295.9604
       147.000
  20137181.924   -38334909.72346 -29111759.70748  20137181.6294   20137186.2984
       213.000
 96  4 22  1 26 59.9970000  0  7 17 23 16 20 05 24 06
  21929884.357    -1204095.82646   -918550.09548  21929883.6184   21929889.7994
       180.000
  23962918.365    -5895170.78246  -2616168.95047  23962917.2874   23962926.3384
       142.000
  20616362.905   -32455409.51546 -25278729.46148  20616362.2404   20616367.7534
       205.000
  20141539.704   -38120817.57146 -29679969.01048  20141539.3024   20141544.8434
       212.000
  21540303.934   -36477305.30846 -26642301.87848  21540303.2284   21540309.1454
       184.000
  23526907.475   -27520210.39946 -20460782.35447  23526907.2404   23526913.2194
       146.000
  20123975.418   -38404310.34846 -29165838.10948  20123975.1124   20123979.8154
       213.000
 96  4 22  1 27 29.9970000  0  7 17 23 16 20 05 24 06
  21911905.598    -1298574.69846   -992169.96048  21911904.8744   21911911.0184
       181.000
  23937198.942    -6030326.06946  -2721484.57247  23937197.8734   23937206.8124
       143.000
  20617925.364   -32447198.42646 -25272331.20948  20617924.6884   20617930.2554
       204.000
  20145781.193   -38098528.64546 -29662601.03248  20145780.7864   20145786.3134
       212.000
  21552908.595   -36411067.38846 -26590687.95948  21552907.9024   21552913.8364
       183.000
  23536516.275   -27469716.81346 -20421436.70547  23536515.8404   23536521.6224
       145.000
  20110807.672   -38473507.07146 -29219757.62648  20110807.3784   20110812.0784
       213.000
 96  4 22  1 27 59.9970000  0  7 17 23 16 20 05 24 06
  21893969.868    -1392827.42146  -1065613.60048  21893969.1604   21893975.2984
       181.000
  23911484.205    -6165456.96546  -2826781.18047  23911483.2354   23911492.0104
       143.000
  20619589.342   -32438454.13546 -25265517.47948  20619588.6664   20619594.2554
       205.000
  20150131.729   -38075666.65546 -29644786.50848  20150131.3144   20150136.8224
       212.000
  21565569.906   -36344532.03046 -26538842.26848  21565569.1974   21565575.1534
       183.000
  23546117.867   -27419259.14646 -20382119.10047  23546117.4424   23546123.7294
       148.000
  20097683.021   -38542477.53946 -29273500.83948  20097682.7344   20097687.4444
       214.000
 96  4 22  1 28 29.9970000  0  7 17 23 16 20 05 24 06
  21876075.063    -1486865.28546  -1138889.82348  21876074.3294   21876080.4824
       181.000
  23885775.189    -6300556.91246  -2932053.66447  23885774.2244   23885783.2014
       141.000
  20621356.865   -32429165.66346 -25258279.71448  20621356.2124   20621361.7834
       205.000
  20154588.016   -38052248.74746 -29626538.80248  20154587.5794   20154593.1234
       212.000
  21578285.760   -36277710.24846 -26486773.38748  21578285.0444   21578290.9554
       183.000
  23555709.276   -27368856.61346 -20342844.41147  23555708.8024   23555715.0884
       150.000
  20084599.794   -38611230.51846 -29327074.58048  20084599.5014   20084604.1774
       214.000
 96  4 22  1 28 59.9970000  0  7 17 23 16 20 05 24 06
  21858224.310    -1580671.48746  -1211985.52248  21858223.5374   21858229.6794
       182.000
  23860075.590    -6435607.45946  -3037287.65247  23860074.6744   23860083.7384
       141.000
  20623232.295   -32419310.60846 -25250600.45748  20623231.6344   20623237.1494
       205.000
  20159147.957   -38028286.11246 -29607866.63648  20159147.5324   20159153.0864
       211.000
  21591055.177   -36210606.35946 -26434484.68448  21591054.4944   21591060.4514
       182.000
  23565293.637   -27318490.91946 -20303598.42947  23565293.1074   23565299.3744
       149.000
  20071561.612   -38679746.57946 -29380463.70948  20071561.3074   20071565.9974
       214.000
 96  4 22  1 29 29.9970000  0  7 17 23 16 20 05 24 06
  21840414.751    -1674261.68446  -1284912.91748  21840413.9364   21840419.9984
       182.000
  23834385.296    -6570609.47546  -3142483.82647  23834384.5694   23834393.6324
       143.000
  20625213.417   -32408899.63046 -25242488.01048  20625212.7724   20625218.2764
       205.000
  20163804.681   -38003815.00946 -29588798.25848  20163804.2394   20163809.7874
       211.000
  21603872.853   -36143249.19646 -26381998.62648  21603872.1614   21603878.1454
       182.000
  23574864.681   -27268194.33746 -20264406.30147  23574864.2824   23574870.6014
       150.000
  20058565.458   -38748041.79546 -29433680.75348  20058565.1644   20058569.8584
       214.000
 96  4 22  1 29 59.9970000  0  7 17 23 16 20 05 24 06
  21822649.015    -1767621.12346  -1357660.49648  21822648.1754   21822654.2064
       182.000
  23808710.214    -6705532.31146  -3247618.31947  23808709.5144   23808718.4814
       146.000
  20627302.299   -32397922.37446 -25233934.30648  20627301.6264   20627307.1544
       204.000
  20168556.294   -37978845.21146 -29569341.28648  20168555.8494   20168561.4024
       211.000
  21616737.024   -36075648.15546 -26329322.52048  21616736.3154   21616742.2014
       181.000
  23584424.159   -27217958.80746 -20225261.76847  23584423.7234   23584430.0704
       152.000
  20045610.920   -38816118.31746 -29486727.38948  20045610.6324   20045615.3274
       214.000
 96  4 22  1 30 29.9970000  0  7 17 23 16 20 05 24 06
  21804929.459    -1860737.67046  -1430218.80248  21804928.6624   21804934.6864
       182.000
  23783047.587    -6840390.47046  -3352702.39747  23783046.7704   23783055.6704
       148.000
  20629499.754   -32386374.24946 -25224935.77448  20629499.1354   20629504.6704
       204.000
  20173398.880   -37953397.35246 -29549511.80248  20173398.4174   20173403.9774
       211.000
  21629645.631   -36007813.13146 -26276464.10248  21629644.8984   21629650.7864
       181.000
  23593974.784   -27167770.15046 -20186153.74347  23593974.4724   23593980.6824
       153.000
  20032697.633   -38883978.04946 -29539605.09548  20032697.3424   20032702.0374
       214.000
 96  4 22  1 30 59.9970000  0  7 17 23 16 20 05 24 06
  21787251.887    -1953633.75346  -1502605.33448  21787251.0604   21787257.0854
       182.000
  23757393.639    -6975203.05246  -3457750.95647  23757392.6104   23757401.4874
       147.000
  20631801.529   -32374278.37246 -25215510.42148  20631800.8724   20631806.4074
       204.000
  20178331.090   -37927478.18946 -29529315.06548  20178330.6524   20178336.2244
       211.000
  21642596.866   -35939753.86746 -26223430.95348  21642596.1634   21642602.0894
       181.000
  23603516.995   -27117625.30846 -20147079.85647  23603516.6664   23603522.8704
       153.000
  20019823.022   -38951634.53346 -29592324.42948  20019822.7254   20019827.4354
       214.000
 96  4 22  1 31 29.9970000  0  7 17 23 16 20 05 24 06
  21769616.236    -2046309.29846  -1574820.00248  21769615.4494   21769621.4904
       183.000
  23731748.509    -7109968.65446  -3562762.90647  23731747.3944   23731756.2144
       146.000
  20634207.431   -32361635.34146 -25205658.71348  20634206.7664   20634212.3004
       204.000
  20183355.692   -37901073.48646 -29508739.98648  20183355.3044   20183360.8854
       211.000
  21655593.415   -35871456.61346 -26170212.36048  21655592.7454   21655598.7374
       181.000
  23613053.105   -27067513.25546 -20108031.52747  23613052.7644   23613059.0044
       153.000
  20006989.979   -39019072.60646 -29644873.57048  20006989.6894   20006994.3924
       214.000
 96  4 22  1 31 59.9970000  0  7 17 23 16 20 05 24 06
  21752023.013    -2138762.05646  -1646861.08548  21752022.2584   21752028.3034
       183.000
  23706110.542    -7244695.46746  -3667744.63447  23706109.6124   23706118.4514
       145.000
  20636715.400   -32348456.09846 -25195389.18148  20636714.7404   20636720.2644
       204.000
  20188474.487   -37874174.35946 -29487779.64048  20188474.0904   20188479.6474
       210.000
  21668635.297   -35802920.80246 -26116807.87948  21668634.6764   21668640.6774
       180.000
  23622585.164   -27017421.65846 -20068999.15047  23622584.8354   23622591.1524
       153.000
  19994198.533   -39086292.01246 -29697252.32248  19994198.2454   19994202.9384
       214.000
 96  4 22  1 32 29.9970000  0  7 17 23 16 20 05 24 06
  21734467.309    -2231018.17746  -1718748.93748  21734466.4724   21734472.4974
       183.000
  23680476.978    -7379399.63046  -3772708.74047  23680476.2474   23680484.9324
       146.000
  20639319.859   -32334769.52946 -25184724.32648  20639319.1874   20639324.7744
       204.000
  20193686.640   -37846784.05746 -29466436.56448  20193686.2624   20193691.8374
       210.000
  21681721.053   -35734155.05246 -26063224.22948  21681720.3774   21681726.3694
       179.000
  23632109.373   -26967372.08146 -20029999.49947  23632109.0514   23632115.2874
       153.000
  19981447.124   -39153301.02746 -29749467.13348  19981446.8324   19981451.5124
       214.000
 96  4 22  1 32 59.9970000  0  7 17 23 16 20 05 24 06
  21716953.493    -2323052.99846  -1790464.35548  21716952.8264   21716958.8434
       183.000
  23654855.901    -7514039.21846  -3877622.53347  23654855.2154   23654863.6764
       146.000
  20642025.178   -32320553.09746 -25173646.59348  20642024.4944   20642030.1124
       204.000
  20198999.191   -37818866.57246 -29444682.69248  20198998.8044   20199004.3614
       210.000
  21694855.571   -35665133.32346 -26009441.10848  21694854.8254   21694860.8014
       179.000
  23641626.704   -26917358.38646 -19991027.82547  23641626.3134   23641632.6194
       152.000
  19968741.500   -39220069.58846 -29801494.58348  19968741.2284   19968745.8894
       214.000
 96  4 22  1 33 29.9970000  0  7 17 23 16 20 05 24 06
  21699483.029    -2414860.70346  -1862002.79548  21699482.3414   21699488.3454
       183.000
  23629249.925    -7648599.20246  -3982474.27247  23629248.9824   23629257.5654
       146.000
  20644830.987   -32305808.64246 -25162157.40548  20644830.2914   20644835.8874
       204.000
  20204411.185   -37790426.48246 -29422521.59848  20204410.7884   20204416.3644
       210.000
  21708036.309   -35595868.00246 -25955468.16648  21708035.5994   21708041.5634
       179.000
  23651134.970   -26867391.79746 -19952092.87647  23651134.6014   23651141.0394
       152.000
  19956082.163   -39286594.81346 -29853332.41048  19956081.8724   19956086.5294
       215.000
 96  4 22  1 33 59.9970000  0  8 17 23 16 20 05 24 06 26
  21682057.890    -2506430.52946  -1933355.86348  21682057.1244   21682063.1674
       183.000
  23603662.024    -7783063.65446  -4087251.55047  23603661.0564   23603669.5824
       145.000
  20647736.564   -32290539.79346 -25150259.60948  20647735.8904   20647741.3714
       203.000
  20209923.350   -37761460.12946 -29399950.43348  20209922.9224   20209928.5064
       210.000
  21721262.738   -35526362.70046 -25901308.24248  21721262.0534   21721268.0674
       179.000
  23660634.470   -26817472.25146 -19913194.54347  23660634.0144   23660640.4294
       151.000
  19943469.333   -39352875.73846 -29904979.88348  19943469.0344   19943473.6954
       215.000
  23751009.670    -7409526.96346  -5758656.78847  23751010.2874   23751017.9224
       119.000
 96  4 22  1 34 29.9970000  0  8 17 23 16 20 05 24 06 26
  21664676.230    -2597771.30046  -2004530.46748  21664675.5274   21664681.5334
       183.000
  23578090.419    -7917442.12846  -4191961.85347  23578089.5094   23578098.0504
       144.000
  20650739.025   -32274762.04646 -25137965.27148  20650738.3414   20650743.7564
       203.000
  20215530.258   -37731995.67746 -29376991.13748  20215529.8404   20215535.4074
       210.000
  21734532.948   -35456627.63246 -25846969.26848  21734532.2664   21734538.2464
       179.000
  23670121.699   -26767616.62446 -19874346.01947  23670121.1764   23670127.6394
       149.000
  19930904.068   -39418906.61846 -29956432.51248  19930903.7924   19930908.4564
       215.000
  23730817.282    -7515638.21446  -5841340.82847  23730817.4504   23730824.6494
       115.000
 96  4 22  1 34 59.9970000  0  8 17 23 16 20 05 24 06 26
  21647342.231    -2688861.95946  -2075510.17448  21647341.4674   21647347.4914
       184.000
  23552537.033    -8051724.68746  -4296597.45747  23552536.2494   23552544.7404
       144.000
  20653841.467   -32258458.70346 -25125261.37248  20653840.7544   20653846.2084
       203.000
  20221230.560   -37702040.37346 -29353649.36348  20221230.1344   20221235.7044
       209.000
  21747850.010   -35386646.26946 -25792438.38348  21747849.3174   21747855.2584
       179.000
  23679601.137   -26717801.34746 -19835528.97347  23679600.7634   23679607.2584
       149.000
  19918389.744   -39484669.74446 -30007676.49948  19918389.4764   19918394.1254
       215.000
  23710624.469    -7621751.31546  -5924026.26547  23710624.6454   23710632.4994
       118.000
 96  4 22  1 35 29.9970000  0  8 17 23 16 20 05 24 06 26
  21630053.147    -2779716.40446  -2146305.81748  21630052.4864   21630058.4644
       184.000
  23526999.824    -8185921.90346  -4401166.56847  23526999.0984   23527007.5354
       143.000
  20657040.956   -32241645.12146 -25112159.88148  20657040.2794   20657045.7744
       203.000
  20227020.424   -37671614.48746 -29329940.89848  20227019.9854   20227025.5924
       209.000
  21761214.412   -35316415.78846 -25737713.38748  21761213.7154   21761219.8034
       178.000
  23689075.670   -26668013.32846 -19796733.13247  23689075.0554   23689081.5994
       146.000
  19905927.609   -39550158.87346 -30058706.98448  19905927.3234   19905931.9574
       215.000
  23690432.491    -7727861.91846  -6006709.76347  23690432.1574   23690439.8634
       116.000
 96  4 22  1 35 59.9970000  0  8 17 23 16 20 05 24 06 26
  21612808.046    -2870340.36446  -2216921.86048  21612807.2654   21612813.2474
       184.000
  23501475.251    -8320053.24746  -4505684.33347  23501474.6584   23501483.1694
       144.000
  20660335.144   -32224334.04346 -25098670.73148  20660334.4584   20660340.0234
       203.000
  20232896.693   -37640734.49846 -29305878.58548  20232896.2974   20232901.8934
       209.000
  21774627.044   -35245932.45846 -25682791.35648  21774626.3404   21774632.4254
       178.000
  23698543.231   -26618260.43346 -19757964.66047  23698542.7904   23698549.1264
       143.000
  19893516.734   -39615378.49146 -30109527.45948  19893516.4254   19893521.0644
       215.000
  23670239.259    -7833975.88446  -6089395.99047  23670238.7144   23670246.7084
       113.000
 96  4 22  1 36 29.9970000  0  8 17 23 16 20 05 24 06 26
  21595605.708    -2960739.17346  -2287362.46248  21595604.9444   21595610.9024
       184.000
  23475962.745    -8454122.19046  -4610153.47447  23475962.1504   23475970.3994
       145.000
  20663726.264   -32206513.85346 -25084784.86748  20663725.5604   20663731.1484
       203.000
  20238856.354   -37609416.28246 -29281474.79748  20238855.9424   20238861.5484
       209.000
  21788087.906   -35175194.84046 -25627671.17648  21788087.2014   21788093.3684
       177.000
  23708002.254   -26568552.76646 -19719231.42647  23708001.7724   23708008.1674
       143.000
  19881155.808   -39680335.36246 -30160143.19648  19881155.5034   19881160.1374
       215.000
  23650046.195    -7940092.63346  -6172084.23247  23650045.8254   23650052.9064
       115.000
 96  4 22  1 36 59.9970000  0  8 17 23 16 20 05 24 06 26
  21578447.275    -3050907.33646  -2357623.33948  21578446.5024   21578452.4664
       184.000
  23450465.457    -8588111.72346  -4714560.74147  23450464.5814   23450472.9434
       145.000
  20667217.536   -32188167.16546 -25070488.75048  20667216.8144   20667222.3784
       203.000
  20244906.028   -37577625.19746 -29256702.54148  20244905.6144   20244911.2244
       209.000
  21801598.878   -35104194.28046 -25572346.10948  21801598.2074   21801604.3304
       177.000
  23717455.373   -26518877.52846 -19680523.47547  23717454.8984   23717461.2204
       145.000
  19868844.729   -39745030.59146 -30210555.05648  19868844.4254   19868849.0534
       215.000
  23629855.171    -8046195.03346  -6254761.31247  23629854.8244   23629862.4204
       111.000
 96  4 22  1 37 29.9970000  0  8 17 23 16 20 05 24 06 26
  21561329.183    -3140863.56646  -2427719.07048  21561328.3434   21561334.3644
       185.000
  23424981.289    -8722031.50146  -4818913.66747  23424980.4044   23424988.7624
       145.000
  20670804.062   -32169319.71246 -25055802.42648  20670803.3414   20670808.8354
       203.000
  20251046.448   -37545357.07146 -29231558.56348  20251046.0624   20251051.6554
       209.000
  21815152.991   -35032967.85546 -25516845.04948  21815152.2744   21815158.3324
       177.000
  23726895.786   -26469267.98646 -19641866.68447  23726895.2124   23726901.4374
       141.000
  19856578.208   -39809491.63446 -30260784.43348  19856577.8974   19856582.5234
       215.000
  23609665.869    -8152291.13346                  23609665.6144   23609673.4074
       106.000
 96  4 22  1 37 59.9970000  0  8 17 23 16 20 05 24 06 26
  21544256.984    -3230578.34846  -2497626.66748  21544256.1724   21544262.1654
       185.000
  23399514.688    -8855858.68346  -4923194.45047  23399513.7444   23399522.0164
       145.000
  20674491.696   -32149940.63146 -25040701.84948  20674491.0084   20674496.4854
       202.000
  20257282.724   -37512585.20646 -29206022.06048  20257282.3454   20257287.9354
       208.000
  21828750.859   -34961510.86146 -25461164.32148  21828750.1204   21828756.1224
       177.000
  23736324.044   -26419721.15646 -19603258.78647  23736323.5154   23736329.9454
       141.000
  19844356.979   -39873714.57546 -30310828.27748  19844356.6784   19844361.3044
       216.000
  23589479.990                                    23589480.651    23589486.3374
       195.000
 96  4 22  1 38 29.9970000  0  8 17 23 16 20 05 24 06 26
  21527229.234    -3320059.47046  -2567352.19248  21527228.4604   21527234.4384
       185.000
  23374065.563    -8989593.08846  -5027402.94447  23374064.7524   23374073.0074
       146.000
  20678280.294   -32130031.15046 -25025187.96648  20678279.6354   20678285.1294
       202.000
  20263617.877   -37479293.91346 -29180080.81248  20263617.4804   20263623.1074
       208.000
  21842389.453   -34889839.77446 -25405316.76648  21842388.7394   21842394.7474
       176.000
  23745740.173   -26370239.38146 -19564701.58847  23745739.6764   23745746.3614
       143.000
  19832181.342   -39937697.98846 -30360685.47648  19832181.0274   19832185.6464
       216.000
  23569296.323                                    23569295.973    23569304.4724
       195.000
 96  4 22  1 38 59.9970000  0  8 17 23 16 20 05 24 06 26
  21510241.765    -3409329.77146  -2636913.43948  21510240.8604   21510246.8034
       186.000
  23348630.698    -9123252.34346  -5131552.87347  23348630.1504   23348638.2894
       149.000
  20682163.443   -32109624.98846 -25009287.06348  20682162.7874   20682168.3164
       202.000
  20270050.136   -37445492.19846 -29153741.83248  20270049.7464   20270055.3664
       208.000
  21856062.237   -34817988.93246 -25349329.14848  21856061.5344   21856067.5634
       176.000
  23755142.540   -26320829.88346 -19526200.66847  23755142.0374   23755148.2294
       140.000
  19820048.244   -40001457.98046 -30410368.57948  19820047.9264   19820052.5544
       216.000
  23549113.822                                    23549118.655    23549080.4404
       201.000
 96  4 22  1 39 29.9970000  0  8 17 23 16 20 05 24 06 26
  21493297.062    -3498374.18946  -2706298.67248  21493296.2614   21493302.2044
       186.000
  23323214.910    -9256812.04546  -5235625.21947  23323214.3954   23323222.7474
       151.000
  20686141.596   -32088719.85246 -24992997.35248  20686140.9424   20686146.4274
       202.000
  20276576.503   -37411196.16746 -29127017.67148  20276576.0684   20276581.6784
       208.000
  21869770.629   -34745951.09946 -25293195.83048  21869769.9244   21869775.8944
       175.000
  23764534.342   -26271475.14146 -19487742.43247  23764533.8454   23764540.3134
       144.000
  19807962.160   -40064970.65346 -30459858.96948  19807961.8434   19807966.4754
       216.000
  23528935.391                                    23528940.015    23529029.1254
       194.000
 96  4 22  1 39 59.9970000  0  8 17 23 16 20 05 24 06 26
  21476393.483    -3587203.12946  -2775515.99648  21476392.6434   21476398.5734
       186.000
  23297817.554    -9390275.69446  -5339622.71947  23297817.0374   23297825.3364
       152.000
  20690214.710   -32067315.98246 -24976319.01248  20690214.0334   20690219.4824
       202.000
  20283191.774   -37376432.69746 -29099929.27448  20283191.3394   20283196.9574
       208.000
  21883515.799   -34673719.94246 -25236911.85448  21883515.1274   21883521.0574
       174.000
  23773915.148   -26222179.53246 -19449330.26847  23773914.6314   23773920.9534
       146.000
  19795924.753   -40128227.71846 -30509150.18248  19795924.4274   19795929.0804
       216.000
  23508756.293                                    23508761.074    23508828.9744
       188.000
 96  4 22  1 40 29.9970000  0  8 17 23 16 20 05 24 06 26
  21459527.813    -3675832.17246  -2844577.56648  21459527.0994   21459533.0164
       186.000
  23272441.453    -9523627.67246  -5443533.20547  23272440.9954   23272449.1384
       154.000
  20694380.008   -32045427.44246 -24959263.01148  20694379.3194   20694384.7424
       202.000
  20289894.796   -37341208.06946 -29072481.52948  20289894.3784   20289899.9954
       208.000
  21897298.532   -34601291.63446 -25180474.26448  21897297.8264   21897303.7964
       174.000
  23783286.671   -26172931.34546 -19410955.07947  23783286.2834   23783292.6224
       147.000
  19783936.439   -40191226.53946 -30558240.16848  19783936.1164   19783940.7664
       216.000
  23488580.484                                    23488583.543    23488589.2874
       179.000
 96  4 22  1 40 59.9970000  0  7 17 23 16 20 05 24 06
  21442700.765    -3764259.20446  -2913481.71548  21442699.9384   21442705.8904
       186.000
  23247088.469    -9656858.51446  -5547349.31347  23247087.9864   23247095.9994
       155.000
  20698634.634   -32023069.07146 -24941840.90648  20698633.9444   20698639.4174
       201.000
  20296677.985   -37305562.24146 -29044705.57848  20296677.5424   20296683.1734
       207.000
  21911117.676   -34528671.48346 -25123887.17548  21911116.9894   21911122.9474
       173.000
  23792647.881   -26123737.86746 -19372622.50547  23792647.5024   23792653.7114
       148.000
  19771995.486   -40253976.50246 -30607136.23848  19771995.1824   19771999.8314
       216.000
 96  4 22  1 41 29.9970000  0  7 17 23 16 20 05 24 06
  21425917.114    -3852457.53246  -2982207.65548  21425916.3274   21425922.2634
       187.000
  23221762.787    -9789946.45446  -5651054.05647  23221762.0694   23221770.0124
       156.000
  20702981.294   -32000226.85946 -24924041.78248  20702980.6354   20702986.1924
       201.000
  20303542.652   -37269488.29946 -29016596.03248  20303542.2304   20303547.8494
       207.000
  21924977.797   -34455836.31946 -25067132.55448  21924977.0944   21924983.1154
       173.000
  23801999.105   -26074596.96946 -19334330.90947  23801998.8694   23802005.0024
       150.000
  19760104.903   -40316462.02146 -30655826.24948  19760104.5744   19760109.2104
       216.000
 96  4 22  1 41 59.9970000  0  7 17 23 16 20 05 24 06
  21409180.929    -3940406.98446  -3050739.66648  21409180.1134   21409186.0454
       187.000
  23196463.992    -9922891.70046  -5754647.60747  23196463.3134   23196471.2304
       156.000
  20707424.151   -31976879.53246 -24905849.06348  20707423.4594   20707429.0654
       201.000
  20310495.416   -37232951.41446 -28988125.75548  20310494.9574   20310500.5834
       207.000
  21938879.955   -34382780.01346 -25010205.63148  21938879.2204   21938885.3344
       172.000
  23811341.866   -26025500.36746 -19296073.82647  23811341.5514   23811347.7524
       150.000
  19748266.075   -40378675.52846 -30704304.30248  19748265.7604   19748270.3724
       216.000
 96  4 22  1 42 29.9970000  0  7 17 23 16 20 05 24 06
  21392493.799    -4028097.97746  -3119070.27448  21392493.0554   21392498.9804
       187.000
  23171191.144   -10055700.55446  -5858134.88647  23171190.5194   23171198.3964
       156.000
  20711960.599   -31953040.37446 -24887273.09948  20711959.8884   20711965.4844
       201.000
  20317535.850   -37195953.97346 -28959296.60248  20317535.3734   20317541.0154
       207.000
  21952820.543   -34309521.69146 -24953121.27148  21952819.8194   21952825.9624
       172.000
  23820677.282   -25976442.85046 -19257847.19447  23820676.9684   23820683.1034
       151.000
  19736478.566   -40440619.38146 -30752572.23648  19736478.2304   19736482.8564
       216.000
 96  4 22  1 42 59.9970000  0  7 17 23 16 20 05 24 06
  21375861.296    -4115502.06646  -3187177.32248  21375860.5704   21375866.4984
       187.000
  23145943.132   -10188378.50946  -5961520.17247  23145942.5584   23145950.3804
       157.000
  20716592.479   -31928700.20346 -24868306.74048  20716591.7624   20716597.2854
       201.000
  20324665.698   -37158486.49046 -28930101.18148  20324665.2074   20324670.8544
       207.000
  21966798.760   -34236065.81746 -24895882.97348  21966798.0424   21966804.1974
       172.000
  23830005.011   -25927425.63746 -19219651.95847  23830004.7214   23830010.8604
       151.000
  19724746.895   -40502269.70746 -30800611.44348  19724746.5724   19724751.1974
       216.000
 96  4 22  1 43 29.9970000  0  7 17 23 16 20 05 24 06
  21359278.131    -4202647.25146  -3255082.63048  21359277.3804   21359283.3024
       188.000
  23120715.408   -10320950.16846  -6064822.62447  23120714.9624   23120722.6784
       157.000
  20721318.286   -31903865.83746 -24848955.29348  20721317.5714   20721323.0304
       201.000
  20331887.194   -37120537.28546 -28900530.39348  20331886.7084   20331892.3664
       206.000
  21980810.068   -34162436.18246 -24838509.28248  21980809.3324   21980815.5304
       171.000
  23839322.377   -25878461.74046 -19181498.30447  23839322.1614   23839328.4904
       150.000
  19713069.841   -40563632.98046 -30848426.97548  19713069.5064   19713074.1304
       216.000
 96  4 22  1 43 59.9970000  0  7 17 23 16 20 05 24 06
  21342740.275    -4289553.89446  -3322802.05648  21342739.5494   21342745.4654
       188.000
  23095506.350   -10453424.36146  -6168049.14047  23095505.8444   23095513.5284
       157.000
  20726138.276   -31878536.43546 -24829218.10448  20726137.5944   20726143.0604
       200.000
  20339199.087   -37082113.11546 -28870589.49948  20339198.6064   20339204.2614
       206.000
  21994851.493   -34088648.24846 -24781012.24248  21994850.7514   21994856.9844
       171.000
  23848630.204   -25829549.10646 -19143384.57347  23848629.8184   23848636.3174
       148.000
  19701448.433   -40624703.88746 -30896014.69048  19701448.1114   19701452.7274
       216.000
 96  4 22  1 44 29.9970000  0  7 17 23 16 20 05 24 06
  21326245.721    -4376233.29246  -3390344.42148  21326244.9784   21326250.9184
       188.000
  23070317.366   -10585792.85946  -6271193.29947  23070316.8724   23070324.5644
       157.000
  20731053.235   -31852708.10646 -24809092.13748  20731052.5514   20731058.0514
       200.000
  20346599.595   -37043223.17246 -28840285.66848  20346599.1324   20346604.7874
       206.000
  22008923.823   -34014698.01346 -24723388.74248  22008923.0894   22008929.2704
       170.000
  23857928.161   -25780687.71246 -19105310.78847  23857927.8794   23857934.2694
       148.000
  19689881.177   -40685489.98946 -30943380.48048  19689880.8694   19689885.4864
       216.000
 96  4 22  1 44 59.9970000  0  7 17 23 16 20 05 24 06
  21309793.073    -4462692.30346  -3457715.04248  21309792.3484   21309798.2454
       188.000
  23045148.987   -10718053.12146  -6374253.13447  23045148.5264   23045156.1694
       156.000
  20736067.502   -31826357.91546 -24788559.52548  20736066.8104   20736072.3214
       200.000
  20354090.516   -37003858.07746 -28809611.58748  20354090.0574   20354095.7614
       206.000
  22023028.953   -33940575.34046 -24665630.86348  22023028.2254   22023034.3324
       169.000
  23867217.775   -25731870.57446 -19067271.50147  23867217.2714   23867224.0264
       147.000
  19678367.785   -40745993.17846 -30990525.82048  19678367.4704   19678372.0774
       216.000
 96  4 22  1 45 29.9970000  0  7 17 23 16 20 05 24 06
  21293379.368    -4548946.62246  -3524926.17048  21293378.6814   21293384.5904
       189.000
  23020001.052   -10850206.27246  -6477229.52147  23020000.5264   23020008.0714
       156.000
  20741180.731   -31799487.76946 -24767621.75348  20741180.0504   20741185.5894
       200.000
  20361671.240   -36964021.09846 -28778569.80948  20361670.7894   20361676.4944
       206.000
  22037168.004   -33866274.00646 -24607733.77148  22037167.3164   22037173.4384
       169.000
  23876498.810   -25683098.81246 -19029267.52747  23876498.5144   23876504.8104
       145.000
  19666904.635   -40806232.35046 -31037465.42948  19666904.3454   19666908.9274
       216.000
 96  4 22  1 45 59.9970000  0  7 17 23 16 20 05 24 06
  21277008.135    -4634977.95246  -3591963.53848  21277007.4344   21277013.3874
       189.000
  22994874.186   -10982248.65246  -6580119.57147  22994873.5514   22994881.0674
       155.000
  20746391.692   -31772104.06346 -24746283.80548  20746391.0224   20746396.5524
       200.000
  20369338.931   -36923727.11146 -28747171.91548  20369338.5014   20369344.2254
       206.000
  22051344.203   -33791777.93846 -24549684.94048  22051343.4734   22051349.6784
       169.000
  23885771.719   -25634369.16546 -18991296.41847  23885771.3554   23885777.9634
       144.000
  19655490.996   -40866211.64246 -31084202.53548  19655490.6874   19655495.2824
       216.000
 96  4 22  1 46 29.9970000  0  7 17 23 16 20 05 24 06
  21260678.303    -4720792.10946  -3658831.68848  21260677.5594   21260683.5134
       189.000
  22969767.082   -11114187.14646  -6682928.69147  22969766.3924   22969773.8934
       154.000
  20751693.306   -31744243.94846 -24724574.63248  20751692.6224   20751698.1634
       199.000
  20377089.479   -36882997.97646 -28715434.94648  20377089.0254   20377094.7374
       205.000
  22065555.844   -33717095.83446 -24491491.14048  22065555.0444   22065561.1994
       168.000
  23895034.713   -25585693.45946 -18953367.30047  23895034.2424   23895040.4674
       141.000
  19644122.726   -40925952.40647 -31130753.77348  19644122.4174   19644126.9944
       217.000
 96  4 22  1 46 59.9970000  0  7 17 23 16 20 05 24 06
  21244393.386    -4806369.62346  -3725515.43748  21244392.6234   21244398.5884
       190.000
  22944684.386   -11245997.45246  -6785637.91247  22944683.6864   22944691.1684
       154.000
  20757081.535   -31715928.52746 -24702510.67048  20757080.8824   20757086.4584
       199.000
  20384921.178   -36841842.30546 -28683365.61448  20384920.7234   20384926.4124
       205.000
  22079804.499   -33642218.65846 -24433145.34448  22079803.7304   22079809.8314
       168.000
  23904287.883   -25537066.70546 -18915476.33047  23904287.4254   23904293.8234
       139.000
  19632805.979   -40985422.38047 -31177094.00648  19632805.6424   19632810.2384
       217.000
 96  4 22  1 47 29.9960000  0  7 17 23 16 20 05 24 06
  21228150.815    -4891724.40046  -3792025.61248  21228150.0884   21228156.0744
       190.000
  22919627.500   -11377671.60046  -6888241.05647  22919626.8334   22919634.3264
       154.000
  20762548.055   -31687201.85246 -24680126.25148  20762547.3674   20762552.9624
       199.000
  20392829.043   -36800286.30846 -28650984.33548  20392828.5994   20392834.2704
       205.000
  22094084.930   -33567174.29346 -24374669.27348  22094084.1934   22094090.3744
       167.000
  23913526.525   -25488517.69046 -18877645.93247  23913525.9704   23913532.4034
       139.000
  19621536.974   -41044641.18647 -31223238.52348  19621536.6434   19621541.2574
       217.000
 96  4 22  1 47 59.9960000  0  6 17 23 16 20 05 06
  21211953.253    -4976842.66546  -3858351.51048  21211952.5914   21211958.5794
       190.000
  22894598.727   -11509198.46846  -6990729.42647  22894598.0394   22894605.4434
       155.000
  20768096.719   -31658043.38946 -24657405.37248  20768096.0264   20768101.6124
       199.000
  20400813.509   -36758327.63046 -28618289.27848  20400813.0414   20400818.7404
       205.000
  22108397.410   -33491962.17446 -24316062.48648  22108396.6254   22108402.8654
       168.000
  19610319.923   -41103587.09547 -31269170.39448  19610319.6084   19610324.2214
       217.000
 96  4 22  1 48 29.9960000  0  6 17 23 16 20 05 06
  21195799.523    -5061731.09046  -3924498.31148  21195798.8444   21195804.8094
       190.000
  22869601.864   -11640557.25846  -7093086.82747  22869601.1754   22869608.5314
       154.000
  20773730.604   -31628437.10346 -24634335.54348  20773729.9064   20773735.4634
       198.000
  20408874.734   -36715965.45846 -28585279.81648  20408874.2804   20408880.0034
       204.000
  22122739.450   -33416594.55146 -24257334.51848  22122738.6774   22122744.9074
       167.000
  19599159.324   -41162236.38147 -31314871.13348  19599159.0254   19599163.6274
       217.000
 96  4 22  1 48 59.9960000  0  6 17 23 16 20 05 06
  21179689.132    -5146392.13946  -3990467.93948  21179688.4074   21179694.3234
       191.000
  22844635.570   -11771754.95046  -7195318.70447  22844634.9984   22844642.3914
       154.000
  20779454.284   -31598358.98346 -24610898.05348  20779453.6044   20779459.1094
       198.000
  20417013.644   -36673195.57046 -28551952.65448  20417013.1764   20417018.9044
       204.000
  22137107.969   -33341086.86946 -24198497.43248  22137107.3004   22137113.6134
       167.000
  19588054.558   -41220592.30747 -31360343.28448  19588054.2624   19588058.8484
       217.000
 96  4 22  1 49 29.9960000  0  6 17 23 16 20 05 06
  21163620.239    -5230834.82446  -4056267.40448  21163619.4814   21163625.3724
       191.000
  22819698.445   -11902799.66246  -7297431.35947  22819697.8724   22819705.2874
       155.000
  20785273.668   -31567777.82446 -24587068.58448  20785273.0054   20785278.4634
       198.000
  20425235.384   -36629990.08446 -28518286.06348  20425234.9244   20425240.6424
       204.000
  22151503.634   -33265437.33046 -24139549.79248  22151502.9634   22151509.1864
       167.000
  19577005.939   -41278653.36847 -31405585.66348  19577005.6414   19577010.2364
       217.000
 96  4 22  1 49 59.9960000  0  6 17 23 16 20 05 06
  21147594.099    -5315052.56546  -4121891.59248  21147593.3464   21147599.2454
       191.000
  22794790.749   -12033690.88246  -7399424.40847  22794790.0854   22794797.5514
       156.000
  20791191.972   -31536676.98446 -24562834.17148  20791191.3084   20791196.7484
       198.000
  20433541.196   -36586343.03046 -28484275.39448  20433540.7044   20433546.4134
       204.000
  22165931.164   -33189620.79046 -24080472.02848  22165930.4564   22165936.6844
       167.000
  19566020.804   -41336380.60547 -31450567.92248  19566020.4964   19566025.1204
       217.000
 96  4 22  1 50 29.9960000  0  6 17 23 16 20 05 06
  21131605.751    -5399071.85046  -4187361.13248  21131604.9744   21131610.8624
       191.000
  22769909.544   -12164441.78346  -7501308.12247  22769908.8804   22769916.3464
       156.000
  20797200.598   -31505101.69246 -24538230.04548  20797199.9184   20797205.3314
       197.000
  20441928.620   -36542267.11946 -28449930.54948  20441928.1184   20441933.8304
       204.000
  22180390.124   -33113638.42246 -24021265.04748  22180389.4264   22180395.7234
       167.000
  19555096.225   -41393789.52347 -31495302.13748  19555095.9094   19555100.5534
       217.000
 96  4 22  1 50 59.9960000  0  7 17 23 16 20 05 06 26
  21115656.662    -5482884.74046  -4252669.85048  21115655.9054   21115661.7684
       191.000
  22745053.688   -12295059.75846  -7603088.26347  22745053.0484   22745060.4594
       157.000
  20803295.180   -31473074.32546 -24513273.66348  20803294.5094   20803299.9884
       197.000
  20450399.857   -36497750.67946 -28415242.43148  20450399.3334   20450405.0544
       204.000
  22194881.316   -33037486.63346 -23961926.04748  22194880.6634   22194887.0334
       166.000
  19544230.551   -41450888.97047 -31539795.20948  19544230.2514   19544234.8994
       217.000
  23067152.505                                    23067156.900    23067157.5644
       209.000
 96  4 22  1 51 29.9960000  0  7 17 23 16 20 05 06 26
  21099743.344    -5566509.63546  -4317832.08148  21099742.5924   21099748.4464
       191.000
  22720220.047   -12425560.88746  -7704777.35647  22720219.4404   22720226.7844
       158.000
  20809467.102   -31440640.68746 -24488000.70448  20809466.4264   20809471.9674
       197.000
  20458950.012   -36452819.13046 -28380230.85848  20458949.5044   20458955.2344
       203.000
  22209402.553   -32961177.45646 -23902464.41148  22209401.8914   22209408.2794
       165.000
  19533422.493   -41507685.48047 -31584052.22748  19533422.2034   19533426.8454
       217.000
  23047231.819     -136697.71057                  23047232.573    23047241.2684
       208.000
 96  4 22  1 51 59.9960000  0  7 17 23 16 20 05 06 26
  21083869.592    -5649926.45046  -4382832.16448  21083868.8514   21083874.6984
       192.000
  22695410.954   -12555933.69546  -7806366.45847  22695410.2154   22695417.5274
       160.000
  20815714.709   -31407809.04446 -24462417.60448  20815714.0514   20815719.6594
       197.000
  20467577.350   -36407482.21146 -28344903.40848  20467576.8614   20467582.5884
       203.000
  22223953.372   -32884712.95946 -23842881.76448  22223952.6184   22223959.0804
       165.000
  19522671.726   -41564181.08647 -31628074.77348  19522671.4364   19522676.0944
       217.000
  23027332.156     -312857.69856   -218189.07347  23027331.8104   23027337.7344
       146.000
 96  4 22  1 52 29.9960000  0  7 17 23 16 20 05 06 26
  21068039.518    -5733114.15346  -4447653.72348  21068038.7504   21068044.5884
       192.000
  22670628.940   -12686164.21446  -7907844.70147  22670628.1514   22670635.4254
       160.000
  20822038.681   -31374576.49246 -24436522.11448  20822037.9934   20822043.6394
       196.000
  20476283.075   -36361733.30846 -28309254.93248  20476282.6054   20476288.3404
       203.000
  22238528.288   -32808121.75646 -23783200.36748  22238527.5484   22238533.9494
       165.000
  19511974.175   -41620397.15547 -31671879.50148  19511973.8724   19511978.5184
       217.000
  23007447.180     -417342.98446   -299606.03147  23007447.8354   23007455.5294
       151.000
 96  4 22  1 52 59.9960000  0  7 17 23 16 20 05 06 26
  21052252.672    -5816074.49646  -4512298.11348  21052251.8894   21052257.7494
       192.000
  22645873.511   -12816254.55346  -8009213.70247  22645872.6794   22645879.9264
       160.000
  20828441.902   -31340927.51246 -24410302.13348  20828441.2004   20828446.8084
       196.000
  20485064.775   -36315585.37846 -28273295.52748  20485064.2854   20485070.0104
       203.000
  22253121.470   -32731434.04846 -23723443.76048  22253120.7754   22253127.1704
       165.000
  19501327.077   -41676347.93647 -31715477.50948  19501326.7924   19501331.4214
       217.000
  22987583.649     -521731.15346   -380947.33847  22987584.3874   22987590.7444
       152.000
 96  4 22  1 53 29.9960000  0  7 17 23 16 20 05 06 26
  21036511.622    -5898794.08046  -4576754.90448  21036510.8874   21036516.7274
       193.000
  22621150.433   -12946174.72946  -8110450.11148  22621149.6354   22621156.8904
       161.000
  20834929.170   -31306836.75146 -24383737.90948  20834928.4694   20834933.9994
       196.000
  20493922.253   -36269038.95546 -28237025.61148  20493921.7834   20493927.5294
       203.000
  22267733.703   -32654645.80346 -23663608.82548  22267733.0894   22267739.5894
       165.000
  19490733.166   -41732019.41547 -31758857.87848  19490732.8664   19490737.4894
       217.000
  22967743.195     -625993.66246   -462190.76947  22967743.3024   22967750.1094
       151.000
 96  4 22  1 53 59.9960000  0  7 17 23 16 20 05 06 26
  21020817.148    -5981269.21346  -4641021.21348  21020816.3624   21020822.2534
       193.000
  22596461.477   -13075915.17046  -8211546.46748  22596460.7764   22596468.0194
       162.000
  20841502.609   -31272292.85246 -24356820.59048  20841501.9294   20841507.4384
       196.000
  20502853.540   -36222104.69746 -28200453.47948  20502853.0804   20502858.8464
       202.000
  22282363.387   -32577767.07146 -23603703.39448  22282362.6814   22282369.2394
       165.000
  19480193.303   -41787406.90347 -31802016.95448  19480192.9934   19480197.6224
       217.000
  22947925.792     -730135.58646   -543340.20947  22947925.8124   22947932.4014
       147.000
 96  4 22  1 54 29.9960000  0  7 17 23 16 20 05 06 26
  21005172.302    -6063483.42846  -4705084.20748  21005171.5224   21005177.3904
       193.000
  22571810.544   -13205456.18646  -8312487.42148  22571809.8814   22571817.0464
       163.000
  20848166.666   -31237273.11146 -24329532.48648  20848165.9854   20848171.5064
       196.000
  20511860.410   -36174773.11546 -28163571.75648  20511859.9654   20511865.7584
       202.000
  22297013.547   -32500780.88646 -23543714.22648  22297012.7994   22297019.2304
       164.000
  19469713.347   -41842479.23147 -31844930.45348  19469713.0584   19469717.6824
       217.000
  22928132.810     -834148.10346   -624388.77947  22928132.7734   22928139.3664
       147.000
 96  4 22  1 54 59.9960000  0  7 17 23 16 20 05 06 26
  20989576.651    -6145439.19746  -4768945.81548  20989575.8294   20989581.6954
       194.000
  22547196.365   -13334804.33746  -8413278.10148  22547195.7014   22547202.8714
       163.000
  20854923.639   -31201765.22346 -24301864.00548  20854922.9374   20854928.4434
       195.000
  20520944.090   -36127038.14446 -28126375.69448  20520943.6364   20520949.4534
       202.000
  22311689.651   -32423657.98646 -23483618.51648  22311688.8104   22311695.2904
       164.000
  19459297.848   -41897213.14847 -31887580.25348  19459297.5594   19459302.1744
       217.000
  22908366.842     -938018.77046   -705326.88247  22908366.8284   22908373.4394
       149.000
 96  4 22  1 55 29.9960000  0  7 17 23 16 20 05 06 26
  20974024.634    -6227165.55946  -4832628.67348  20974023.8154   20974029.6074
       194.000
  22522614.210   -13463984.97646  -8513938.26148  22522613.4294   22522620.4914
       164.000
  20861766.538   -31165805.41346 -24273843.38348  20861765.8604   20861771.3114
       195.000
  20530098.766   -36078930.28246 -28088889.07148  20530098.2994   20530104.1064
       201.000
  22326390.213   -32346406.13046 -23423422.33448  22326389.3824   22326395.9694
       164.000
  19448943.834   -41951623.85147 -31929978.19748  19448943.5374   19448948.1664
       217.000
  22888621.850    -1041779.66346   -786179.39647  22888621.9064   22888628.2644
       156.000
 96  4 22  1 55 59.9960000  0  7 17 23 16 20 05 06 26
  20958514.055    -6308673.97146  -4896141.69548  20958513.2434   20958519.0424
       194.000
  22498060.860   -13593013.72946  -8614480.05548  22498060.0074   22498067.0894
       164.000
  20868692.636   -31129408.51446 -24245482.16948  20868691.9654   20868697.3864
       195.000
  20539323.172   -36030455.62646 -28051116.63548  20539322.7234   20539328.5214
       201.000
  22341113.040   -32269036.99046 -23363134.75848  22341112.2104   22341118.8314
       163.000
  19438649.418   -42005721.47647 -31972132.18848  19438649.1334   19438653.7444
       217.000
  22868894.036    -1145450.10046   -866961.51047  22868894.0344   22868900.3664
       158.000
 96  4 22  1 56 29.9960000  0  7 17 23 16 20 05 06 26
  20943042.903    -6389975.52246  -4959493.52648  20943042.0844   20943047.8784
       194.000
  22473536.270   -13721890.42546  -8714903.36148  22473535.4854   22473542.5694
       165.000
  20875701.329   -31092577.81546 -24216782.93148  20875700.6334   20875706.0294
       195.000
  20548618.508   -35981608.33446 -28013053.83848  20548618.0784   20548623.8994
       201.000
  22355856.871   -32191558.04546 -23302761.61348  22355856.0324   22355862.6014
       163.000
  19428411.865   -42059520.23047 -32014053.29148  19428411.5814   19428416.1934
       217.000
  22849182.676    -1249034.20146   -947676.26547  22849182.6314   22849189.0134
       158.000
 96  4 22  1 56 59.9960000  0  7 17 23 16 20 05 06 26
  20927609.958    -6471075.89546  -5022688.59448  20927609.1284   20927614.9484
       194.000
  22449042.070   -13850608.29846  -8815202.91748  22449041.2424   22449048.2854
       165.000
  20882791.166   -31055320.28246 -24187751.09348  20882790.4854   20882795.8964
       195.000
  20557987.233   -35932375.41746 -27974690.54948  20557986.8124   20557992.6274
       201.000
  22370620.966   -32113972.90946 -23242305.74048  22370620.0824   22370626.7364
       163.000
  19418229.344   -42113029.74647 -32055749.00848  19418229.0604   19418233.6584
       217.000
  22829488.768    -1352525.37146  -1028318.67447  22829488.7044   22829495.0654
       156.000
 96  4 22  1 57 29.9960000  0  7 17 23 16 20 05 06 26
  20912218.980    -6551956.15446  -5085712.14948  20912218.1334   20912223.9354
       195.000
  22424583.970   -13979136.16546  -8915354.41848  22424583.1544   22424590.2064
       165.000
  20889962.232   -31017635.54346 -24158386.36848  20889961.5914   20889967.0634
       194.000
  20567434.436   -35882729.96746 -27936005.80648  20567434.0124   20567439.8504
       200.000
  22385406.178   -32036276.51946 -23181763.18048  22385405.2674   22385411.9104
       162.000
  19408104.303   -42166237.01347 -32097209.20648  19408104.0094   19408108.6174
       217.000
  22809816.597    -1455903.38946  -1108872.90047  22809816.3734   22809822.7584
       154.000
 96  4 22  1 57 59.9960000  0  7 17 23 16 20 05 06 26
  20896874.290    -6632592.90546  -5148545.95248  20896873.4464   20896879.2264
       195.000
  22400164.252   -14107461.73946  -9015348.29248  22400163.5404   22400170.5474
       166.000
  20897217.701   -30979507.59646 -24128676.28648  20897217.0684   20897222.5654
       194.000
  20576966.765   -35832637.24246 -27896972.53648  20576966.3524   20576972.1894
       200.000
  22400212.770   -31958467.19546 -23121132.60948  22400211.9264   22400218.5544
       162.000
  19398042.372   -42219112.77847 -32138411.09448  19398042.0754   19398046.6864
       217.000
  22790171.523    -1559137.61646  -1189315.07547  22790171.3434   22790177.9494
       155.000
 96  4 22  1 58 29.9960000  0  7 17 23 16 20 05 06 26
  20881571.723    -6713008.42446  -5211207.36748  20881570.8894   20881576.6404
       195.000
  22375780.421   -14235599.32946  -9115195.67748  22375779.7304   22375786.6944
       166.000
  20904552.783   -30940961.72646 -24098640.54948  20904552.1404   20904557.5954
       194.000
  20586580.037   -35782119.50346 -27857608.09448  20586579.6074   20586585.4134
       200.000
  22415040.801   -31880545.17446 -23060414.22448  22415040.0514   22415046.6444
       161.000
  19388042.064   -42271664.70147 -32179360.64148  19388041.7784   19388046.3724
       217.000
  22770553.996    -1662228.27946  -1269645.33747  22770553.7844   22770560.2654
       155.000
 96  4 22  1 58 59.9960000  0  7 17 23 16 20 05 06 26
  20866312.735    -6793195.22146  -5273690.56148  20866311.8434   20866317.5924
       195.000
  22351432.567   -14363547.82746  -9214895.73848  22351431.8764   22351438.7584
       165.000
  20911966.410   -30902003.25146 -24068283.30048  20911965.7674   20911971.1764
       194.000
  20596273.028   -35731182.62246 -27817917.04348  20596272.5974   20596278.4064
       200.000
  22429894.354   -31802489.64346 -22999591.81247  22429893.6874   22429900.1674
       160.000
  19378107.928   -42323868.98747 -32220039.29548  19378107.6154   19378112.1954
       217.000
  22750968.277    -1765151.62446  -1349845.25647  22750968.0534   22750974.5574
       154.000
 96  4 22  1 59 29.9960000  0  7 17 23 16 20 05 06 26
  20851091.493    -6873183.10246  -5336018.75548  20851090.6304   20851096.3524
       195.000
  22327115.627   -14491333.83346  -9314469.16148  22327114.9004   22327121.8054
       165.000
  20919451.902   -30862667.23646 -24037631.86748  20919451.2354   20919456.6344
       194.000
  20606035.483   -35679880.66746 -27777941.52148  20606035.0494   20606040.8634
       199.000
  22444768.853   -31724325.01446 -22938684.35847  22444768.0304   22444774.4024
       160.000
  19368235.733   -42375747.75947 -32260464.30948  19368235.4304   19368239.9974
       217.000
  22731409.348    -1867934.28646  -1429935.52347  22731409.2534   22731415.5664
       154.000
 96  4 22  1 59 59.9960000  0  7 17 23 16 20 05 06 26
  20835909.650    -6952964.13946  -5398185.77048  20835908.8114   20835914.5034
       195.000
  22302832.163   -14618943.57146  -9413905.24348  22302831.5014   22302838.4444
       166.000
  20927011.251   -30822942.66446 -24006677.66148  20927010.5724   20927016.0034
       194.000
  20615862.913   -35628237.24846 -27737699.92048  20615862.4654   20615868.2994
       199.000
  22459666.971   -31646034.92046 -22877679.16147  22459666.1374   22459672.5164
       158.000
  19358429.173   -42427281.35847 -32300620.35248  19358428.8594   19358433.4484
       217.000
  22711878.888    -1970567.08846  -1509909.10647  22711878.7344   22711885.3724
       150.000
 96  4 22  2  0 29.9960000  0  7 17 23 16 20 05 06 26
  20820769.899    -7032523.81646  -5460180.29648  20820769.0614   20820774.7504
       196.000
  22278585.882   -14746358.26646  -9513189.35048  22278585.2164   22278592.1244
       166.000
  20934646.908   -30782817.09646 -23975410.99248  20934646.2264   20934651.6264
       193.000
  20625753.103   -35576264.20346 -27697201.46448  20625752.6384   20625758.4834
       198.000
  22474592.383   -31567600.27646 -22816561.31047  22474591.6944   22474598.1904
       156.000
  19348689.097   -42478465.68647 -32340504.23848  19348688.8014   19348693.3814
       217.000
  22692378.103    -2073044.32346  -1589761.39147  22692378.0734   22692384.4524
       150.000
 96  4 22  2  0 59.9960000  0  7 17 23 16 20 05 06 26
  20805670.192    -7111873.17946  -5522010.93948  20805669.3754   20805675.0604
       196.000
  22254374.111   -14873591.46546  -9612332.02248  22254373.4884   22254380.3114
       167.000
  20942357.405   -30742298.02746 -23943837.69648  20942356.7384   20942362.1404
       193.000
  20635704.032   -35523971.74446 -27656454.12348  20635703.5804   20635709.4584
       198.000
  22489537.413   -31489063.47746 -22755363.88147  22489536.7284   22489543.3944
       156.000
  19339011.310   -42529322.84447 -32380133.18748  19339011.0014   19339015.5864
       217.000
  22672902.892    -2175387.00846  -1669508.82647  22672902.7964   22672909.2084
       149.000
 96  4 22  2  1 29.9960000  0  7 17 23 16 20 05 06 26
  20790612.535    -7191001.32146  -5583669.20848  20790611.7394   20790617.4054
       196.000
  22230198.762   -15000633.67246  -9711325.87548  22230198.1444   22230204.9684
       167.000
  20950144.824   -30701374.85946 -23911949.52148  20950144.1774   20950149.5794
       193.000
  20645718.218   -35471346.94346 -27615447.81748  20645717.7574   20645723.6334
       198.000
  22504499.377   -31410438.34846 -22694097.62447  22504498.6204   22504505.3024
       156.000
  19329393.285   -42579865.86247 -32419517.35748  19329392.9704   19329397.5544
       217.000
  22653453.651    -2277592.10446  -1749149.09147  22653453.6614   22653460.1554
       148.000
 96  4 22  2  1 59.9960000  0  7 17 23 16 20 05 06 26
  20775596.604    -7269910.52246  -5645156.87148  20775595.8344   20775601.4864
       196.000
  22206060.493   -15127481.04946  -9810167.91148  22206059.8254   22206066.6504
       168.000
  20958008.753   -30660049.63846 -23879748.05948  20958008.1234   20958013.5684
       193.000
  20655797.121   -35418381.90846 -27574176.38548  20655796.6604   20655802.5544
       198.000
  22519472.964   -31331751.74946 -22632783.47247  22519472.2544   22519478.9224
       155.000
  19319835.581   -42630091.77147 -32458654.42548  19319835.2864   19319839.8644
       217.000
  22634032.441    -2379650.76946  -1828675.21847  22634032.4164   22634038.9234
       151.000
 96  4 22  2  2 29.9960000  0  7 17 23 16 20 05 06 26
  20760624.326    -7348590.36746  -5706465.81548  20760623.5094   20760629.1524
       196.000
  22181961.744   -15254120.59046  -9908847.98748  22181961.0984   22181967.8834
       168.000
  20965952.040   -30618307.49446 -23847221.71848  20965951.3844   20965956.8384
       193.000
  20665946.255   -35365047.94346 -27532617.47348  20665945.8134   20665951.7264
       198.000
  22534456.301   -31253014.63246 -22571429.92747  22534455.5414   22534462.2324
       156.000
  19310338.187   -42680000.93747 -32497544.68148  19310337.8714   19310342.4634
       217.000
  22614644.077    -2481537.35946  -1908067.33247  22614643.9784   22614650.5074
       153.000
 96  4 22  2  2 59.9960000  0  7 17 23 16 20 05 06 26
  20745693.769    -7427050.52646  -5767603.57248  20745692.9764   20745698.6344
       196.000
  22157902.418   -15380553.26946 -10007366.88648  22157901.7344   22157908.4414
       169.000
  20973972.757   -30576158.29946 -23814378.19448  20973972.0724   20973977.5014
       192.000
  20676164.616   -35311349.89246 -27490774.86748  20676164.2194   20676170.1324
       197.000
  22549444.348   -31174252.40846 -22510056.83347  22549443.5854   22549450.3104
       155.000
  19300899.719   -42729600.40947 -32536193.61848  19300899.4154   19300904.0224
       217.000
  22595290.289    -2583241.91346  -1987317.57047  22595290.1864   22595296.5764
       151.000
 96  4 22  2  3 29.9960000  0  7 17 23 16 20 05 06 26
  20730809.614    -7505267.11046  -5828551.53648  20730808.8404   20730814.4714
       197.000
  22133885.365   -15506763.41646 -10105712.37048  22133884.6614   22133891.3214
       169.000
  20982073.033   -30533590.92846 -23781208.82848  20982072.3644   20982077.8004
       192.000
  20686452.564   -35257286.64946 -27448647.68548  20686452.1374   20686458.0314
       197.000
  22564442.086   -31095438.28246 -22448643.31347  22564441.4124   22564448.2774
       153.000
  19291527.039   -42778854.04847 -32574573.07748  19291526.7644   19291531.3664
       217.000
  22575974.724    -2684746.40546  -2066411.85247  22575974.6584   22575980.7464
       154.000
 96  4 22  2  3 59.9960000  0  7 17 23 16 20 05 06 26
  20715967.984    -7583260.42946  -5889325.52648  20715967.2044   20715972.8204
       197.000
  22109908.031   -15632764.91146 -10203895.27948  22109907.3104   22109913.9474
       169.000
  20990251.381   -30490613.25546 -23747719.73448  20990250.7324   20990256.2194
       191.000
  20696806.660   -35202875.44646 -27406249.37248  20696806.2894   20696812.1764
       197.000
  22579450.404   -31016568.28746 -22387186.22847  22579449.8824   22579456.6914
       152.000
  19282221.191   -42827756.75847 -32612679.08448  19282220.8964   19282225.4894
       217.000
  22556693.787    -2786067.51946  -2145363.31647  22556693.7164   22556699.9364
       152.000
 96  4 22  2  4 29.9960000  0  7 17 23 16 20 05 06 26
  20701169.439    -7661026.91246  -5949922.75948  20701168.6794   20701174.3064
       197.000
  22085969.225   -15758564.10646 -10301920.55448  22085968.4334   22085975.1174
       169.000
  20998510.097   -30447213.63746 -23713901.85248  20998509.4444   20998514.9204
       191.000
  20707228.068   -35148110.78146 -27363575.63748  20707227.7044   20707233.5974
       197.000
  22594474.074   -30937619.23746 -22325667.57447  22594473.5314   22594480.3224
       152.000
  19272982.103   -42876308.56147 -32650511.65648  19272981.8024   19272986.3864
       218.000
  22537447.525    -2887207.17446  -2224173.31947  22537447.4704   22537453.4554
       151.000
 96  4 22  2  4 59.9960000  0  7 17 23 16 20 05 06 26
  20686414.317    -7738565.38346  -6010342.32848  20686413.5644   20686419.1834
       197.000
  22062069.605   -15884156.81346 -10399784.92548  22062068.8384   22062075.4894
       170.000
  21006848.703   -30403393.93746 -23679756.64148  21006848.0624   21006853.5044
       191.000
  20717715.718   -35092998.23946 -27320630.82348  20717715.2744   20717721.1574
       196.000
  22609516.891   -30858569.42646 -22264070.39847  22609516.3274   22609523.1074
       153.000
  19263812.202   -42924496.85647 -32688060.97848  19263811.8914   19263816.4794
       218.000
  22518235.718    -2988165.85246  -2302842.39647  22518235.6504   22518241.7194
       153.000
 96  4 22  2  5 29.9960000  0  7 17 23 16 20 05 06 26
  20671699.912    -7815890.00546  -6070595.26248  20671699.1314   20671704.7564
       197.000
  22038208.959   -16009545.09346 -10497490.00648  22038208.1864   22038214.8624
       170.000
  21015262.282   -30359180.36146 -23645304.50848  21015261.6074   21015267.0024
       190.000
  20728266.796   -35037552.04246 -27277426.01748  20728266.3704   20728272.2444
       196.000
  22624578.061   -30779422.95546 -22202397.91347  22624577.3914   22624584.2484
       154.000
  19254710.004   -42972329.20947 -32725332.93848  19254709.6824   19254714.2774
       218.000
  22499053.628    -3088967.35946  -2381388.90247  22499053.4804   22499059.7434
       151.000
 96  4 22  2  5 59.9960000  0  7 17 23 16 20 05 06 26
  20657024.689    -7893008.84946  -6130687.84148  20657023.8904   20657029.4854
       197.000
  22014389.273   -16134717.91446 -10595027.19348  22014388.4264   22014395.1684
       170.000
  21023747.600   -30314589.98946 -23610558.77248  21023746.8934   21023752.2424
       190.000
  20738882.756   -34981764.50046 -27233955.23648  20738882.3704   20738888.2524
       196.000
  22639654.214   -30700198.01446 -22140664.26947  22639653.4744   22639660.3664
       156.000
  19245669.757   -43019835.91147 -32762351.14248  19245669.4404   19245674.0234
       218.000
  22479902.913    -3189604.78946  -2459807.61947  22479902.7374   22479909.1394
       154.000
 96  4 22  2  6 29.9960000  0  7 17 23 16 20 05 06 26
  20642391.582    -7969906.34946  -6190607.94548  20642390.7204   20642396.3364
       197.000
  21990613.746   -16259658.64646 -10692383.53748  21990612.9664   21990619.6584
       170.000
  21032301.245   -30269640.21246 -23575532.98348  21032300.5514   21032305.8844
       190.000
  20749564.713   -34925630.88446 -27190214.77548  20749564.2954   20749570.1814
       196.000
  22654743.078   -30620905.60446 -22078878.05847  22654742.3984   22654749.3154
       156.000
  19236691.353   -43067017.51047 -32799116.02148  19236691.0264   19236695.6184
       218.000
  22460787.088    -3290058.99946  -2538083.55747  22460786.9614   22460793.2434
       157.000
 96  4 22  2  6 59.9960000  0  7 17 23 16 20 05 06 26
  20627800.633    -8046582.15046  -6250355.29948  20627799.7914   20627805.3764
       198.000
  21966880.996   -16384374.64746 -10789564.75048  21966880.1964   21966886.9534
       171.000
  21040919.264   -30224352.18746 -23540243.61548  21040918.5454   21040923.9834
       190.000
  20760308.560   -34869171.99246 -27146220.85648  20760308.1084   20760313.9864
       195.000
  22669840.875   -30541566.03446 -22017055.08947  22669840.3364   22669847.1564
       156.000
  19227773.741   -43113879.84247 -32835632.11948  19227773.4194   19227778.0014
       218.000
  22441704.989    -3390335.78746  -2616221.24747  22441704.8824   22441711.0504
       157.000
 96  4 22  2  7 29.9960000  0  7 17 23 16 20 05 06 26
  20613254.663    -8123021.50146  -6309918.40848  20613253.8714   20613259.4444
       198.000
  21943191.458   -16508863.14646 -10886568.71048  21943190.6954   21943197.5074
       171.000
  21049604.683   -30178709.75146 -23504678.09448  21049603.9924   21049609.5134
       190.000
  20771117.367   -34812371.39046 -27101960.67448  20771116.9554   20771122.8224
       195.000
  22684947.200   -30462182.41946 -21955197.80847  22684946.6084   22684953.4684
       156.000
  19218917.603   -43160419.21647 -32871896.56548  19218917.2804   19218921.8614
       218.000
  22422659.711    -3490419.22046  -2694208.25447  22422659.6264   22422665.7604
       159.000
 96  4 22  2  7 59.9960000  0  7 17 23 16 20 05 06 26
  20598750.131    -8199243.82946  -6369312.40748  20598749.2934   20598754.8644
       198.000
  21919538.071   -16633162.49846 -10983425.27748  21919537.3404   21919544.0814
       172.000
  21058357.427   -30132713.67346 -23468837.00148  21058356.7534   21058362.2904
       190.000
  20781986.993   -34755251.56146 -27057451.73648  20781986.5004   20781992.3724
       195.000
  22700059.221   -30382769.37246 -21893317.59147  22700058.4874   22700065.4134
       154.000
  19210120.173   -43206650.16147 -32907920.67048  19210119.8414   19210124.4044
       218.000
  22403650.745    -3590311.94746  -2772046.66947  22403650.6054   22403656.7534
       160.000
 96  4 22  2  8 29.9960000  0  7 17 23 16 20 05 06 26
  20584292.731    -8275218.03046  -6428513.06048  20584291.8514   20584297.4484
       198.000
  21895924.323   -16757253.64646 -11080119.61148  21895923.5184   21895930.1984
       172.000
  21067186.396   -30086317.38346 -23432684.06248  21067185.7214   21067191.2394
       190.000
  20792918.441   -34697806.53946 -27012689.41548  20792917.9624   20792923.8534
       194.000
  22715183.866   -30303289.29246 -21831385.14347  22715183.1064   22715189.8964
       153.000
  19201393.633   -43252508.31747 -32943654.29348  19201393.3324   19201397.8834
       218.000
  22384683.299    -3689986.48646  -2849715.07247  22384683.2264   22384689.1194
       160.000
 96  4 22  2  8 59.9960000  0  7 17 23 16 20 05 06 26
  20569879.876    -8350958.09946  -6487531.27248  20569878.9994   20569884.5744
       199.000
  21872347.526   -16881150.42446 -11176662.48548  21872346.7204   21872353.3334
       173.000
  21076091.554   -30039520.78846 -23396219.19048  21076090.8464   21076096.3404
       190.000
  20803907.954   -34640056.48846 -26967689.40048  20803907.4844   20803913.3874
       194.000
  22730320.263   -30223747.05646 -21769404.26747  22730319.5084   22730326.3714
       153.000
  19192738.584   -43297991.07547 -32979095.39848  19192738.2644   19192742.8284
       218.000
  22365754.007    -3789460.70346  -2927227.37047  22365753.8824   22365759.8054
       160.000
 96  4 22  2  9 29.9960000  0  8 22 17 23 16 20 05 06 26
  23460922.021    -6466974.31946  -5025548.89347  23460921.0534   23460927.1994
       141.000
  20555508.929    -8426477.94646  -6546377.88848  20555508.0184   20555513.5804
       198.000
  21848810.240   -17004838.84746 -11273043.00148  21848809.5444   21848816.1934
       173.000
  21085070.227   -29992337.84346 -23359453.26948  21085069.5204   21085074.9774
       190.000
  20814956.112   -34581997.80446 -26922448.89448  20814955.6664   20814961.5804
       194.000
  22745468.333   -30144143.48646 -21707375.56847  22745467.5204   22745474.4334
       154.000
  19184154.688   -43343099.71347 -33014244.98648  19184154.3764   19184158.9324
       218.000
  22346862.472    -3888735.16446  -3004584.05247  22346862.3994   22346868.3864
       159.000
 96  4 22  2  9 59.9960000  0  8 22 17 23 16 20 05 06 26
  23440498.146    -6574301.85146  -5109180.70247  23440497.2624   23440503.3394
       140.000
  20541178.601    -8501783.92846  -6605057.84848  20541177.7494   20541183.3104
       199.000
  21825313.873   -17128312.51646 -11369256.17748  21825313.2304   21825319.8604
       174.000
  21094119.402   -29944784.05846 -23322398.38148  21094118.7064   21094124.1854
       189.000
  20826060.072   -34523646.53946 -26876980.39448  20826059.5994   20826065.5244
       194.000
  22760626.874   -30064485.60446 -21645304.55447  22760626.1164   22760632.8484
       155.000
  19175642.312   -43387832.65347 -33049101.81848  19175641.9994   19175646.5554
       218.000
  22328008.235    -3987814.96246  -3081788.98248  22328008.1024   22328014.0994
       161.000
 96  4 22  2 10 29.9960000  0  8 22 17 23 16 20 05 06 26
  23420137.942    -6681295.23646  -5192552.12947  23420137.0774   23420143.2364
       140.000
  20526891.578    -8576862.72746  -6663560.78748  20526890.7194   20526896.2624
       199.000
  21801866.389   -17251530.37046 -11465270.03048  21801865.5934   21801872.2384
       175.000
  21103238.288   -29896863.54746 -23285057.73448  21103237.6034   21103243.1644
       188.000
  20837223.729   -34464980.96146 -26831266.97748  20837223.2814   20837229.2174
       193.000
  22775796.897   -29984767.40746 -21583186.54347  22775796.1044   22775802.8504
       155.000
  19167203.313   -43432179.75547 -33083658.00148  19167203.0014   19167207.5524
       218.000
  22309194.407    -4086681.84246  -3158828.05348  22309194.2964   22309200.3004
       161.000
 96  4 22  2 10 59.9960000  0  8 22 17 23 16 20 05 06 26
  23399837.981    -6787972.93246  -5275677.57447  23399836.8404   23399843.0854
       141.000
  20512641.510    -8651747.21646  -6721912.30648  20512640.6544   20512646.1884
       199.000
  21778466.835   -17374495.39346 -11561086.85648  21778466.1024   21778472.6774
       175.000
  21112420.509   -29848610.42846 -23247457.90948  21112419.8664   21112425.3994
       187.000
  20848448.430   -34405994.74446 -26785303.71448  20848448.0004   20848453.9454
       193.000
  22790974.821   -29905007.16346 -21521035.77847  22790973.9974   22790980.8654
       154.000
  19158829.375   -43476185.22847 -33117947.98148  19158829.0594   19158833.6224
       218.000
  22290420.717    -4185337.63046  -3235702.62747  22290420.5834   22290426.6174
       160.000
 96  4 22  2 11 29.9960000  0  8 22 17 23 16 20 05 06 26
  23379602.896    -6894310.11146  -5358537.69147  23379601.4994   23379607.8844
       143.000
  20498427.560    -8726441.74846  -6780115.80948  20498426.7544   20498432.3064
       199.000
  21755119.128   -17497188.05946 -11656691.46948  21755118.4054   21755124.9434
       175.000
  21121667.933   -29800014.95846 -23209591.31348  21121667.2444   21121672.7724
       187.000
  20859737.009   -34346672.62946 -26739078.72348  20859736.5744   20859742.5374
       192.000
  22806159.851   -29825209.50146 -21458855.86947  22806159.0844   22806165.8904
       153.000
  19150520.378   -43519849.26047 -33151971.90048  19150520.0614   19150524.6214
       218.000
  22271692.547    -4283754.80046  -3312391.28748  22271692.4494   22271698.3824
       164.000
 96  4 22  2 11 59.9960000  0  8 22 17 23 16 20 05 06 26
  23359430.931    -7000313.91746  -5441138.03947  23359429.5844   23359436.0784
       144.000
  20484245.773    -8800967.36146  -6838187.69048  20484244.9724   20484250.5144
       200.000
  21731818.570   -17619633.07646 -11752103.10248  21731817.8554   21731824.3754
       176.000
  21130978.471   -29751087.66746 -23171466.15748  21130977.8184   21130983.3354
       186.000
  20871083.741   -34287045.36246 -26692615.94448  20871083.3204   20871089.2654
       192.000
  22821347.678   -29745397.41246 -21396664.70547  22821346.8304   22821353.7154
       151.000
  19142274.432   -43563181.89347 -33185737.58748  19142274.1194   19142278.6574
       218.000
  22253007.425    -4381945.40046  -3388903.36748  22253007.3734   22253013.2734
       164.000
 96  4 22  2 12 29.9960000  0  8 22 17 23 16 20 05 06 26
  23339323.530    -7105978.75146  -5523474.25147  23339322.2434   23339328.8284
       143.000
  20470096.311    -8875323.18546  -6896127.27048  20470095.5084   20470101.0524
       200.000
  21708567.010   -17741820.33046 -11847313.88648  21708566.3034   21708572.8284
       176.000
  21140353.581   -29701821.18846 -23133076.69348  21140352.8884   21140358.4364
       186.000
  20882490.817   -34227100.68246 -26645905.82948  20882490.4034   20882496.3974
       192.000
  22836538.649   -29665568.07546 -21334460.13047  22836537.8144   22836544.7164
       149.000
  19134096.109   -43606159.13147 -33219226.34448  19134095.8014   19134100.3634
       218.000
  22234366.463    -4479904.25946  -3465234.88848  22234366.3684   22234372.2594
       164.000
 96  4 22  2 12 59.9960000  0  8 22 17 23 16 20 05 06 26
  23319278.491    -7211315.97346  -5605555.16347  23319277.3904   23319283.7644
       143.000
  20455978.360    -8949513.33646  -6953937.74848  20455977.5514   20455983.1174
       200.000
  21685360.722   -17863770.17746 -11942339.67448  21685359.9984   21685366.5094
       177.000
  21149793.612   -29652213.41146 -23094421.28948  21149792.9434   21149798.5724
       186.000
  20893954.491   -34166858.44846 -26598963.85448  20893954.1264   20893960.1214
       191.000
  22851730.046   -29585736.53246 -21272253.81247  22851729.2364   22851736.1184
       149.000
  19125986.841   -43648773.68947 -33252432.48948  19125986.5254   19125991.0834
       218.000
  22215766.835    -4577645.98546  -3541397.23248  22215766.7844   22215772.5584
       165.000
 96  4 22  2 13 29.9960000  0  8 22 17 23 16 20 05 06 26
  23299294.575    -7316331.34346  -5687385.29847  23299293.5554   23299299.9054
       144.000
  20441895.729    -9023518.14346  -7011603.80948  20441894.9014   20441900.4604
       200.000
  21662197.394   -17985493.99946 -12037189.34648  21662196.6834   21662203.1694
       177.000
  21159298.355   -29602265.34146 -23055500.71248  21159297.7134   21159303.4404
       186.000
  20905469.183   -34106348.84046 -26551813.52748  20905468.7354   20905474.7294
       191.000
  22866919.287   -29505916.88946 -21210056.77447  22866918.5024   22866925.3454
       148.000
  19117949.184   -43691011.85247 -33285345.34348  19117948.8694   19117953.4244
       218.000
  22197206.898    -4675178.84146  -3617396.78048  22197206.7544   22197212.5214
       164.000
 96  4 22  2 13 59.9960000  0  8 22 17 23 16 20 05 06 26
  23279376.030    -7421003.25146  -5768947.80047  23279375.1544   23279381.3754
       144.000
  20427857.745    -9097288.20846  -7069086.95748  20427856.8994   20427862.4504
       200.000
  21639082.366   -18106964.10146 -12131841.31748  21639081.6364   21639088.0834
       178.000
  21168871.431   -29551958.37646 -23016300.48648  21168870.8054   21168876.5674
       186.000
  20917038.869   -34045549.95746 -26504437.79548  20917038.4164   20917044.3804
       190.000
  22882112.550   -29426076.40046 -21147843.48447  22882111.6534   22882118.5504
       147.000
  19109991.345   -43732830.63947 -33317931.41148  19109991.0284   19109995.5854
       218.000
  22178693.236    -4772468.36746  -3693206.72648  22178693.1404   22178698.8734
       165.000
 96  4 22  2 14 29.9960000  0  8 22 17 23 16 20 05 06 26
  23259519.394    -7525351.14746  -5850257.81947  23259518.3914   23259524.5774
       145.000
  20413861.877    -9170836.61446  -7126397.38348  20413861.0784   20413866.6274
       200.000
  21616012.688   -18228195.89646 -12226307.58448  21616011.9674   21616018.4064
       178.000
  21178509.383   -29501311.35746 -22976835.27548  21178508.7134   21178514.3994
       186.000
  20928659.767   -33984481.92846 -26456852.34348  20928659.3214   20928665.3004
       190.000
  22897305.012   -29346240.45646 -21085633.70647  22897304.0364   22897310.7624
       146.000
  19102107.779   -43774258.98847 -33350213.23848  19102107.4464   19102112.0134
       218.000
  22160224.607    -4869521.28146  -3768832.31448  22160224.5164   22160230.2284
       163.000
 96  4 22  2 14 59.9950000  0  8 22 17 23 16 20 05 06 26
  23239729.902    -7629345.51246  -5931292.35847  23239728.9214   23239735.1844
       146.000
  20399913.737    -9244134.56846  -7183512.64848  20399912.9244   20399918.4984
       200.000
  21592992.083   -18349170.03846 -12320573.08248  21592991.3634   21592997.7524
       178.000
  21188213.914   -29450313.96046 -22937097.04748  21188213.1854   21188218.8614
       186.000
  20940331.344   -33923147.54146 -26409059.34548  20940330.8714   20940336.8974
       190.000
  22912499.400   -29266393.71246 -21023415.52747  22912498.4174   22912505.2034
       144.000
  19094298.432   -43815297.28947 -33382191.12848  19094298.1224   19094302.6744
       218.000
  22141807.424    -4966304.03146  -3844247.39148  22141807.3164   22141813.1374
       165.000
 96  4 22  2 15 29.9950000  0  8 22 17 23 16 20 05 06 26
  23220010.991    -7732967.93146  -6012037.07447  23220010.1914   23220016.4514
       146.000
  20386013.764    -9317179.08046  -7240430.43048  20386012.9574   20386018.5274
       200.000
  21570021.423   -18469881.29746 -12414633.74148  21570020.7164   21570027.1254
       179.000
  21197985.712   -29398962.90046 -22897083.23248  21197984.9704   21197990.6714
       186.000
  20952056.501   -33861531.48046 -26361046.84848  20952056.0144   20952062.0394
       190.000
  22927699.468   -29186517.07746 -20961174.04347  22927698.5544   22927705.2514
       142.000
  19086561.396   -43855955.83047 -33413873.10248  19086561.0694   19086565.6224
       218.000
  22123443.827    -5062804.61646  -3919442.58748  22123443.8084   22123449.5804
       164.000
 96  4 22  2 15 59.9950000  0  8 22 17 23 16 20 05 06 26
  23200363.536    -7836216.67046  -6092490.60947  23200362.6334   23200368.7874
       146.000
  20372157.540    -9389993.90846  -7297169.23448  20372156.7394   20372162.2824
       200.000
  21547099.457   -18590336.78346 -12508495.10048  21547098.7254   21547105.1224
       179.000
  21207821.902   -29347273.11746 -22856805.49048  21207821.1714   21207826.8574
       185.000
  20963835.353   -33799633.02046 -26312814.30648  20963834.9194   20963840.9544
       189.000
  22942903.409   -29106619.02746 -20898915.90647  22942902.5394   22942909.4844
       139.000
  19078893.139   -43896252.77447 -33445273.31248  19078892.8274   19078897.3644
       218.000
  22105129.733    -5159046.09146  -3994435.86848  22105129.6774   22105135.2454
       163.000
 96  4 22  2 16 29.9950000  0  8 22 17 23 16 20 05 06 26
  23180787.448    -7939090.59446  -6172652.06747  23180786.3454   23180792.5314
       147.000
  20358344.341    -9462582.77046  -7353731.96148  20358343.5024   20358349.0334
       201.000
  21524227.223   -18710530.80446 -12602152.71148  21524226.4884   21524232.8934
       179.000
  21217723.705   -29295238.54446 -22816259.07348  21217723.0064   21217728.6984
       184.000
  20975668.600   -33737448.83946 -26264359.12048  20975668.1474   20975674.2344
       189.000
  22958113.880   -29026687.13746 -20836631.42747  22958113.1094   22958120.0904
       139.000
  19071291.964   -43936197.02847 -33476398.69748  19071291.6604   19071296.2194
       218.000
  22086862.105    -5255043.23046  -4069238.79048  22086862.0344   22086867.7504
       165.000
 96  4 22  2 16 59.9950000  0  8 22 17 23 16 20 05 06 26
  23161284.510    -8041578.41546  -6252512.69547  23161283.5284   23161289.7454
       147.000
  20344577.770    -9534926.56146  -7410103.72748  20344576.9724   20344582.4854
       201.000
  21501406.791   -18830452.56346 -12695598.17848  21501406.0564   21501412.4434
       180.000
  21227689.564   -29242867.06746 -22775450.13748  21227688.8574   21227694.6124
       184.000
  20987560.156   -33674958.38146 -26215665.27748  20987559.7454   20987565.7954
       188.000
  22973333.907   -28946705.40746 -20774308.07347  22973333.1624   22973340.2754
       139.000
  19063761.414   -43975770.52347 -33507235.17948  19063761.0934   19063765.6574
       218.000
  22068640.997    -5350795.47846  -4143850.88948  22068640.8974   22068646.6674
       166.000
 96  4 22  2 17 29.9950000  0  8 22 17 23 16 20 05 06 26
  23141851.710    -8143698.65146  -6332086.87847  23141850.6704   23141856.7924
       146.000
  20330853.868    -9607046.02646  -7466300.69848  20330853.0734   20330858.5664
       201.000
  21478636.465   -18950111.30946 -12788838.70548  21478635.7604   21478642.1014
       180.000
  21237715.645   -29190179.51146 -22734394.90748  21237714.9464   21237720.7384
       183.000
  20999509.127   -33612166.64346 -26166736.66848  20999508.6634   20999514.6924
       188.000
  22988559.558   -28866693.67246 -20711961.34347  22988558.8714   22988566.0794
       140.000
  19056299.975   -44014980.66347 -33537788.52748  19056299.6384   19056304.1884
       218.000
  22050461.489    -5446329.46746  -4218292.86348  22050461.3244   22050466.9394
       161.000
 96  4 22  2 17 59.9950000  0  8 22 17 23 16 20 05 06 26
  23122486.233    -8245465.63846  -6411385.80947  23122485.1874   23122491.1384
       147.000
  20317172.591    -9678941.43846  -7522323.07748  20317171.7944   20317177.2894
       201.000
  21455917.737   -19069498.65946 -12881867.74548  21455917.0384   21455923.3604
       180.000
  21247802.513   -29137172.80846 -22693090.98548  21247801.7734   21247807.5284
       182.000
  21011513.891   -33549081.16346 -26117579.17948  21011513.4624   21011519.4654
       188.000
  23003788.866   -28786662.77546 -20649599.67547  23003788.3894   23003795.5894
       142.000
  19048910.631   -44053811.80047 -33568046.54848  19048910.3044   19048914.8984
       218.000
  22032322.749    -5541648.55346  -4292567.46448  22032322.6904   22032328.2894
       163.000
 96  4 22  2 18 29.9950000  0  8 22 17 23 16 20 05 06 26
  23103186.655    -8346884.54746  -6490413.51047  23103185.8474   23103191.7574
       148.000
  20303533.675    -9750614.61146  -7578172.27948  20303532.8574   20303538.3424
       201.000
  21433251.503   -19188610.17346 -12974681.85848  21433250.8294   21433257.1054
       181.000
  21257947.855   -29083859.24746 -22651547.95548  21257947.0794   21257952.7234
       182.000
  21023571.446   -33485718.51446 -26068205.71348  21023570.9754   21023576.9864
       188.000
  23019017.210   -28706637.61346 -20587242.47047  23019016.6974   23019024.0014
       143.000
  19041595.797   -44092251.38047 -33597999.46148  19041595.4884   19041600.0684
       218.000
  22014228.524    -5636734.22646  -4366660.12848  22014228.4874   22014234.1254
       165.000
 96  4 22  2 18 59.9950000  0  8 22 17 23 16 20 05 06 26
  23083957.288    -8447935.68546  -6569154.63747  23083956.4194   23083962.1854
       148.000
  20289937.645    -9822062.06846  -7633845.60148  20289936.8394   20289942.3234
       201.000
  21410638.620   -19307441.65046 -13067277.75348  21410637.9244   21410644.1754
       181.000
  21268153.602   -29030227.78346 -22609757.20348  21268152.8444   21268158.4494
       182.000
  21035682.085   -33422076.63046 -26018614.64948  21035681.6504   21035687.6734
       187.000
  23034241.987   -28626630.51446 -20524899.34047  23034241.5864   23034248.8464
       142.000
  19034360.759   -44130271.88447 -33627625.81848  19034360.4364   19034365.0124
       218.000
  21996182.187    -5731567.78346  -4440556.34248  21996182.1014   21996187.7964
       162.000
 96  4 22  2 19 29.9950000  0  8 22 17 23 16 20 05 06 26
  23064790.729    -8548656.79446  -6647638.59247  23064789.7584   23064795.6464
       148.000
  20276374.314    -9893337.61946  -7689384.97148  20276373.5094   20276378.9824
       201.000
  21388073.041   -19426024.10146 -13159679.60548  21388072.4064   21388078.6484
       181.000
  21278416.391   -28976296.28346 -22567732.65748  21278415.6794   21278421.2524
       182.000
  21047834.820   -33358213.53646 -25968851.22548  21047834.3874   21047840.4104
       187.000
  23049454.798   -28546686.76946 -20462605.55647  23049454.2744   23049461.8254
       141.000
  19027199.660   -44167903.71547 -33656949.32248  19027199.3344   19027203.9014
       218.000
  21978179.700    -5826171.38246  -4514273.37248  21978179.6134   21978185.2774
       162.000
 96  4 22  2 19 59.9950000  0  8 22 17 23 16 20 05 06 26
  23045692.440    -8649018.69746  -6725842.68347  23045691.5094   23045697.3844
       148.000
  20262847.430    -9964421.76646  -7744775.19748  20262846.6234   20262852.1174
       202.000
  21365559.309   -19544334.76646 -13251869.68548  21365558.5924   21365564.8184
       182.000
  21288741.783   -28922035.90246 -22525451.83748  21288741.1014   21288746.6224
       181.000
  21060033.579   -33294108.32446 -25918899.14048  21060033.1824   21060039.2424
       187.000
  23064662.251   -28466771.69646 -20400334.13547  23064661.7174   23064669.0694
       139.000
  19020118.395   -44205116.02547 -33685945.92748  19020118.0564   19020122.6264
       218.000
  21960230.905    -5920492.10746  -4587769.98348  21960230.8294   21960236.5794
       162.000
 96  4 22  2 20 29.9950000  0  8 22 17 23 16 20 05 06 26
  23026661.882    -8749025.97346  -6803770.41947  23026660.8044   23026666.5604
       148.000
  20249355.002   -10035325.01246  -7800024.45748  20249354.1844   20249359.6604
       202.000
  21343094.054   -19662390.13146 -13343860.81748  21343093.3444   21343099.5674
       182.000
  21299125.882   -28867467.25146 -22482930.81348  21299125.1824   21299130.6914
       181.000
  21072276.868   -33229769.82846 -25868765.26448  21072276.3774   21072282.4584
       186.000
  23079863.356   -28386890.03446 -20338088.73647  23079862.7634   23079870.1784
       139.000
  19013114.274   -44241922.94947 -33714626.64148  19013113.9354   19013118.4994
       218.000
  21942337.182    -6014524.45946  -4661041.88947  21942336.9574   21942342.8224
       160.000
 96  4 22  2 20 59.9950000  0  8 22 17 23 16 20 05 06 26
  23007701.269    -8848665.18746  -6881411.36447  23007700.0014   23007705.8444
       148.000
  20235897.985   -10106042.07646  -7855128.64548  20235897.1704   20235902.6444
       202.000
  21320678.312   -19780185.08046 -13435649.03248  21320677.6524   21320683.9164
       182.000
  21309571.798   -28812573.53446 -22440156.48448  21309571.0614   21309576.6704
       180.000
  21084564.476   -33165198.05446 -25818449.61748  21084564.0004   21084570.0744
       186.000
  23095062.630   -28307017.93746 -20275850.81947  23095062.0514   23095069.3314
       141.000
  19006185.563   -44278333.47347 -33742998.48048  19006185.2324   19006189.7804
       218.000
  21924501.447    -6108251.86146  -4734076.19947  21924501.2944   21924506.8574
       160.000
 96  4 22  2 21 29.9950000  0  8 22 17 23 16 20 05 06 26
  22988810.024    -8947938.91746  -6958767.52547  22988808.8994   22988814.5024
       148.000
  20222476.125   -10176574.43246  -7910088.90348  20222475.3124   20222480.7594
       202.000
  21298313.837   -19897711.29746 -13527227.85048  21298313.1154   21298319.3334
       183.000
  21320077.092   -28757367.29346 -22397138.63348  21320076.3984   21320082.0774
       180.000
  21096896.334   -33100393.94246 -25767952.93348  21096895.8234   21096901.9354
       186.000
  23110260.776   -28227151.57146 -20213617.37647  23110260.2194   23110267.6324
       144.000
  18999327.609   -44314372.29947 -33771080.68148  18999327.2794   18999331.8294
       218.000
  21906725.942    -6201662.11846  -4806863.32847  21906725.7994   21906731.3714
       159.000
 96  4 22  2 21 59.9950000  0  8 22 17 23 16 20 05 06 26
  22969988.910    -9046845.02446  -7035837.21647  22969987.7294   22969993.3614
       148.000
  20209089.982   -10246918.87746  -7964902.74148  20209089.2094   20209094.6334
       202.000
  21275996.899   -20014987.20346 -13618611.61848  21275996.2154   21276002.4114
       183.000
  21330637.047   -28701874.28046 -22353897.33048  21330636.3874   21330642.0224
       180.000
  21109272.441   -33035357.41846 -25717275.14848  21109271.9054   21109278.0244
       186.000
  23125455.916   -28147301.85646 -20151396.90547  23125455.1714   23125462.6724
       147.000
  18992537.299   -44350055.61347 -33798885.86148  18992536.9804   18992541.5234
       218.000
  21889007.748    -6294771.94146  -4879416.40747  21889007.5464   21889013.0764
       160.000
 96  4 22  2 22 29.9950000  0  8 22 17 23 16 20 05 06 26
  22951244.281    -9145347.66346  -7112592.51347  22951243.3054   22951248.9924
       148.000
  20195747.830   -10317032.24046  -8019536.50948  20195747.0654   20195752.4884
       202.000
  21253733.772   -20131980.45246 -13709775.13548  21253733.1274   21253739.2934
       184.000
  21341254.115   -28646081.27546 -22310422.26248  21341253.4484   21341259.0594
       180.000
  21121695.859   -32970072.14146 -25666403.52148  21121695.3144   21121701.4124
       185.000
  23140651.686   -28067448.43846 -20089173.53247  23140650.9704   23140658.2604
       150.000
  18985818.546   -44385362.78847 -33826397.94048  18985818.2124   18985822.7654
       218.000
  21871347.490    -6387577.14746  -4951732.07748  21871347.3414   21871352.7814
       162.000
 96  4 22  2 22 59.9950000  0  8 22 17 23 16 20 05 06 26
  22932577.625    -9243440.27146  -7189028.30847  22932576.8184   22932582.6294
       148.000
  20182449.969   -10386912.95046  -8073988.98848  20182449.1814   20182454.6004
       203.000
  21231525.714   -20248684.50446 -13800713.30048  21231525.0514   21231531.1774
       184.000
  21351928.544   -28589987.02346 -22266712.46948  21351927.8484   21351933.4404
       180.000
  21134165.327   -32904544.42746 -25615342.99148  21134164.8624   21134170.9724
       185.000
  23155847.992   -27987591.10446 -20026947.11847  23155847.3314   23155854.6704
       152.000
  18979171.926   -44420291.07147 -33853614.78548  18979171.6034   18979176.1544
       218.000
  21853744.007    -6480084.13446  -5023815.37248  21853743.7794   21853749.2984
       163.000
 96  4 22  2 23 29.9950000  0  8 22 17 23 16 20 05 06 26
  22913988.333    -9341127.78846  -7265148.43547  22913987.4474   22913993.2874
       148.000
  20169197.475   -10456555.15146  -8128255.61748  20169196.6864   20169202.1174
       203.000
  21209373.289   -20365096.44046 -13891423.84148  21209372.5774   21209378.7064
       184.000
  21362655.908   -28533614.47446 -22222785.81648  21362655.2214   21362660.8194
       180.000
  21146679.456   -32838782.32646 -25564099.81748  21146678.9794   21146685.1364
       184.000
  23171042.457   -27907743.82146 -19964728.53647  23171041.8714   23171049.1984
       153.000
  18972599.239   -44454830.62547 -33880528.72248  18972598.9134   18972603.4634
       218.000
  21836193.116    -6572314.53346  -5095683.19048  21836192.9084   21836198.3604
       163.000
 96  4 22  2 23 59.9950000  0  8 22 17 23 16 20 05 06 26
  22895475.668    -9438412.59846  -7340954.75147  22895474.7834   22895480.5884
       148.000
  20155990.646   -10525957.24946  -8182335.15548  20155989.8794   20155995.3144
       203.000
  21187275.863   -20481219.34746 -13981909.16648  21187275.1254   21187281.2214
       185.000
  21373435.421   -28476967.65446 -22178645.43748  21373434.7394   21373440.4244
       180.000
  21159235.403   -32772800.08246 -25512685.10448  21159234.9664   21159241.1264
       183.000
  23186232.206   -27827921.06046 -19902529.06147  23186231.7364   23186239.0614
       153.000
  18966104.713   -44488959.58647 -33907122.71448  18966104.3894   18966108.9314
       218.000
  21818691.668    -6664285.01546  -5167348.41248  21818691.5144   21818696.8474
       163.000
 96  4 22  2 24 29.9950000  0  8 22 17 23 16 20 05 06 26
  22877038.952    -9535297.84146  -7416449.72547  22877038.0764   22877043.8914
       150.000
  20142829.093   -10595121.42046  -8236229.29948  20142828.3604   20142833.8074
       203.000
  21165235.400   -20597042.59146 -14072160.99648  21165234.6434   21165240.7634
       185.000
  21384269.158   -28420035.94346 -22134283.07148  21384268.4794   21384274.2004
       180.000
  21171831.426   -32706607.78746 -25461106.71448  21171830.9564   21171837.1704
       183.000
  23201416.257   -27748128.59346 -19840353.19847  23201415.8544   23201423.2414
       150.000
  18959689.679   -44522670.80147 -33933391.18848  18959689.3704   18959693.8814
       218.000
  21801242.011    -6755983.07346  -5238801.38948  21801241.8544   21801247.3244
       162.000
 96  4 22  2 24 59.9950000  0  8 22 17 23 16 20 05 06 26
  22858679.166    -9631777.95246  -7491628.99947  22858678.5164   22858684.2774
       151.000
  20129711.002   -10664057.63846  -8289945.80648  20129710.2424   20129715.6764
       203.000
  21143253.173   -20712559.79746 -14162174.35148  21143252.4114   21143258.4794
       185.000
  21395162.367   -28362791.84246 -22089677.27848  21395161.6884   21395167.3934
       179.000
  21184469.092   -32640196.29946 -25409357.53848  21184468.6184   21184474.8474
       183.000
  23216592.634   -27668376.71446 -19778208.93947  23216592.2584   23216599.8554
       145.000
  18953356.484   -44555952.23047 -33959324.76048  18953356.1554   18953360.6554
       218.000
  21783850.414    -6847376.22846  -5310016.76348  21783850.2944   21783855.7124
       165.000
 96  4 22  2 25 29.9950000  0  8 22 17 23 16 20 05 06 26
  22840389.299    -9727891.66746  -7566522.76847  22840388.7084   22840394.5014
       152.000
  20116627.162   -10732813.46146  -8343521.75148  20116626.3994   20116631.8554
       203.000
  21121322.378   -20827806.37146 -14251976.81548  21121321.6644   21121327.7434
       186.000
  21406107.107   -28305277.00846 -22044860.53548  21406106.4114   21406112.0624
       179.000
  21197144.131   -32573588.76946 -25357455.58848  21197143.6534   21197149.8814
       183.000
  23231751.581   -27588715.50646 -19716135.35947  23231751.1334   23231758.9664
       139.000
  18947097.252   -44588844.58747 -33984955.16548  18947096.9384   18947101.4374
       218.000
  21766511.746    -6938491.29346  -5381015.46148  21766511.6484   21766517.0234
       165.000
 96  4 22  2 25 59.9950000  0  8 22 17 23 16 20 05 06 26
  22822175.100    -9823608.11846  -7641106.98147  22822174.4974   22822180.3174
       152.000
  20103579.844   -10801377.49146  -8396948.24248  20103579.0724   20103584.4984
       203.000
  21099445.875   -20942768.00146 -14341557.26348  21099445.1284   21099451.1944
       186.000
  21417110.681   -28247452.86546 -21999802.76248  21417109.9844   21417115.5254
       178.000
  21209863.073   -32506750.28846 -25305373.67948  21209862.6184   21209868.8174
       183.000
  23246899.133   -27509114.49546 -19654108.70547  23246898.6374   23246906.3644
       133.000
  18940914.472   -44621335.36647 -34010272.64848  18940914.1484   18940918.6664
       218.000
  21749233.298    -7029289.89546  -5451767.55948  21749233.2294   21749238.5564
       165.000
 96  4 22  2 26 29.9950000  0  8 22 17 23 16 20 05 06 26
  22804038.087    -9918918.01546  -7715374.39647  22804037.6144   22804043.3974
       152.000
  20090569.277   -10869748.39546  -8450224.25048  20090568.5294   20090573.9734
       203.000
  21077624.518   -21057440.06646 -14430912.07048  21077623.7254   21077629.7684
       187.000
  21428172.028   -28189325.21046 -21954508.48848  21428171.3254   21428176.7764
       177.000
  21222628.036   -32439670.09146 -25253103.42048  21222627.5914   21222633.7974
       182.000
  23262038.446   -27429558.05446 -19592116.73647  23262037.8464   23262045.3914
       130.000
  18934806.714   -44653431.79747 -34035282.84748  18934806.3864   18934810.8914
       218.000
  21732017.973    -7119756.53346  -5522260.96348  21732017.9474   21732023.2394
       167.000
 96  4 22  2 26 59.9950000  0  8 22 17 23 16 20 05 06 26
  22785978.723   -10013820.78146  -7789324.56047  22785978.1354   22785984.0574
       153.000
  20077594.023   -10937933.40546  -8503355.40048  20077593.2814   20077598.7434
       204.000
  21055860.263   -21171811.00046 -14520032.22748  21055859.5624   21055865.6184
       187.000
  21439286.508   -28130918.25746 -21908996.57548  21439285.8014   21439291.1824
       176.000
  21235439.817   -32372343.83246 -25200641.42948  21235439.3814   21235445.5774
       182.000
  23277169.333   -27350046.27246 -19530159.56947  23277168.6424   23277175.8824
       131.000
  18928774.820   -44685129.42247 -34059982.28648  18928774.5024   18928779.0144
       218.000
  21714864.278    -7209899.92646  -5592502.51448  21714864.2524   21714869.4664
       167.000
 96  4 22  2 27 29.9950000  0  8 22 17 23 16 20 05 06 26
  22767993.990   -10108330.85246  -7862968.74047  22767993.5074   22767999.4204
       153.000
  20064653.512   -11005936.36446  -8556344.69248  20064652.7704   20064658.2004
       204.000
  21034151.654   -21285890.75346 -14608925.48948  21034150.8714   21034156.8944
       187.000
  21450445.278   -28072277.99346 -21863302.86748  21450444.6064   21450450.1054
       175.000
  21248294.895   -32304789.86646 -25148001.99648  21248294.4524   21248300.6424
       181.000
  23292290.138   -27270585.69446 -19468242.30847  23292289.5144   23292296.7294
       132.000
  18922818.117   -44716431.89647 -34084373.81848  18922817.8164   18922822.3174
       218.000
  21697767.592    -7299743.96646  -5662510.77848  21697767.5084   21697772.6524
       167.000
 96  4 22  2 27 59.9950000  0  8 22 17 23 16 20 05 06 26
  22750090.534   -10202414.67446  -7936280.75947  22750089.8914   22750095.8484
       152.000
  20051755.490   -11073715.89746  -8609159.88348  20051754.6994   20051760.1524
       204.000
  21012502.431   -21399657.70746 -14697575.02048  21012501.6784   21012507.6664
       187.000
  21461653.422   -28013378.32546 -21817407.02648  21461652.7674   21461658.3194
       175.000
  21261194.799   -32237000.40946 -25095179.06948  21261194.3714   21261200.5834
       181.000
  23307406.985   -27191146.40546 -19406341.60747  23307406.2984   23307413.5624
       135.000
  18916943.651   -44747302.58847 -34108428.89848  18916943.3234   18916947.8224
       218.000
  21680732.562    -7389263.53546  -5732266.23248  21680732.4324   21680737.6944
       169.000
 96  4 22  2 28 29.9950000  0  7 22 17 23 16 20 06 26
  22732265.506   -10296085.74946  -8009271.17347  22732264.8214   22732270.7094
       153.000
  20038899.472   -11141274.69146  -8661803.07248  20038898.6794   20038904.1234
       204.000
  20990913.941   -21513105.92946 -14785976.18248  20990913.1734   20990919.1214
       187.000
  21472907.377   -27954238.22246 -21771323.82848  21472906.7664   21472912.3034
       175.000
  21274136.892   -32168989.25846 -25042183.39048  21274136.4824   21274142.6674
       180.000
  18911153.968   -44777727.67747 -34132136.75248  18911153.6414   18911158.1304
       218.000
  21663760.155    -7478453.87946  -5801765.14548  21663760.0514   21663765.3084
       170.000
 96  4 22  2 28 59.9950000  0  7 22 17 23 16 20 06 26
  22714514.310   -10389369.21746  -8081959.56347  22714513.6094   22714519.4894
       154.000
  20026080.832   -11208636.87946  -8714293.06748  20026080.0434   20026085.4664
       204.000
  20969383.539   -21626248.53246 -14874139.20548  20969382.8094   20969388.7544
       188.000
  21484206.989   -27894858.58446 -21725053.99548  21484206.3444   21484211.9064
       175.000
  21287116.778   -32100779.46046 -24989032.92448  21287116.4064   21287122.6044
       180.000
  18905447.844   -44807713.53547 -34155502.35848  18905447.5214   18905452.0174
       218.000
  21646848.809    -7567323.32946  -5871014.00048  21646848.6394   21646854.0024
       169.000
 96  4 22  2 29 29.9950000  0  7 22 17 23 16 20 06 26
  22696837.054   -10482263.95346  -8154345.03947  22696836.2374   22696842.1384
       155.000
  20013300.833   -11275796.31946  -8766625.06848  20013300.0414   20013305.4374
       204.000
  20947908.777   -21739099.08246 -14962074.65248  20947908.0354   20947913.9844
       188.000
  21495557.244   -27835212.81546 -21678576.77748  21495556.5364   21495562.1834
       176.000
  21300133.811   -32032374.70646 -24935730.54348  21300133.3954   21300139.6204
       180.000
  18899824.160   -44837265.98047 -34178530.22948  18899823.8544   18899828.3334
       218.000
  21630000.208    -7655862.44246  -5940005.48248  21630000.0834   21630005.4874
       168.000
 96  4 22  2 29 59.9950000  0  7 22 17 23 16 20 06 26
  22679234.197   -10574766.21946  -8226424.70647  22679233.6334   22679239.5034
       155.000
  20000559.626   -11342751.68046  -8818798.05348  20000558.8314   20000564.2114
       204.000
  20926492.334   -21851643.18046 -15049771.31448  20926491.5824   20926497.4894
       188.000
  21506963.598   -27775272.10446 -21631869.73748  21506962.8704   21506968.5984
       176.000
  21313186.842   -31963780.69846 -24882280.69248  21313186.4384   21313192.6104
       179.000
  18894281.805   -44866391.44247 -34201225.39448  18894281.4814   18894285.9654
       217.000
  21613217.788    -7744054.67946  -6008726.62248  21613217.6904   21613222.8744
       169.000
 96  4 22  2 30 29.9950000  0  7 22 17 23 16 20 06 26
  22661706.161   -10666876.99346  -8298199.29947  22661705.4484   22661711.3104
       155.000
  19987857.170   -11409503.61446  -8870812.52148  19987856.3454   19987861.7154
       204.000
  20905137.433   -21963863.51546 -15137215.67848  20905136.7054   20905142.6734
       189.000
  21518425.842   -27715037.73446 -21584933.86748  21518425.1244   21518430.8304
       177.000
  21326275.286   -31895000.47146 -24828685.73848  21326274.9174   21326281.0654
       179.000
  18888821.227   -44895086.91747 -34223585.49848  18888820.8914   18888825.3674
       217.000
  21596502.410    -7831894.53146  -6077173.19748  21596502.2634   21596507.3964
       169.000
 96  4 22  2 30 59.9950000  0  7 22 17 23 16 20 06 26
  22644251.690   -10758601.39146  -8369672.82347  22644250.7624   22644256.7524
       156.000
  19975191.701   -11476061.11646  -8922675.47948  19975190.8434   19975196.2184
       205.000
  20883841.078   -22075777.14446 -15224421.05348  20883840.2584   20883846.1924
       189.000
  21529940.963   -27654525.56746 -21537781.53148  21529940.2524   21529945.8954
       178.000
  21339394.255   -31826060.46646 -24774966.27548  21339393.8054   21339399.9404
       179.000
  18883436.927   -44923381.54347 -34245633.25348  18883436.5994   18883441.0834
       217.000
  21579848.963    -7919408.44546  -6145365.80348  21579848.8214   21579853.9594
       171.000
 96  4 22  2 31 29.9950000  0  7 22 17 23 16 20 06 26
  22626874.725   -10849918.01346  -8440828.60447  22626873.7614   22626879.8044
       156.000
  19962565.243   -11542413.51646  -8974378.62048  19962564.4244   19962569.7724
       205.000
  20862602.909   -22187383.55246 -15311387.04148  20862602.2014   20862608.1554
       190.000
  21541506.538   -27593747.89446 -21490422.31048  21541505.8364   21541511.5494
       178.000
  21352542.824   -31756964.14846 -24721125.01948  21352542.4124   21352548.5074
       178.000
  18878127.102   -44951284.76647 -34267376.02548  18878126.7954   18878131.2554
       217.000
  21563256.997    -8006599.55446  -6213306.87048  21563256.8384   21563262.0334
       172.000
 96  4 22  2 31 59.9950000  0  7 22 17 23 16 20 06 26
  22609582.465   -10940789.38546  -8511637.43047  22609581.3924   22609587.5514
       156.000
  19949983.524   -11608530.61446  -9025898.41548  19949982.7044   19949988.0704
       205.000
  20841428.701   -22298655.40046 -15398092.33448  20841427.8704   20841433.8024
       190.000
  21553124.095   -27532696.68546 -21442849.93448  21553123.4534   21553129.3004
       177.000
  21365726.048   -31687686.43146 -24667142.40948  21365725.5964   21365731.6824
       178.000
  18872900.011   -44978753.28047 -34288780.05648  18872899.6644   18872904.1724
       217.000
  21546732.375    -8093436.53246  -6280971.97148  21546732.2284   21546737.6274
       172.000
 96  4 22  2 32 29.9950000  0  7 22 17 23 16 20 06 26
  22592377.069   -11031204.60946  -8582090.82647  22592376.0234   22592382.0714
       156.000
  19937447.099   -11674410.03946  -9077232.99948  19937446.2534   19937451.5944
       205.000
  20820316.335   -22409601.13046 -15484543.50048  20820315.5654   20820321.5014
       191.000
  21564792.075   -27471381.15946 -21395071.60348  21564791.4064   21564797.3254
       177.000
  21378946.969   -31618209.94746 -24613004.91348  21378946.5634   21378952.6444
       178.000
  18867757.828   -45005775.53147 -34309836.35248  18867757.5134   18867762.0024
       218.000
  21530275.336    -8179917.52546  -6348359.73148  21530275.2014   21530280.7894
       170.000
 96  4 22  2 32 59.9950000  0  7 22 17 23 16 20 06 26
  22575256.188   -11121175.77746  -8652198.22147  22575255.0564   22575261.0714
       156.000
  19924950.665   -11740079.28146  -9128403.81048  19924949.8244   19924955.1564
       205.000
  20799262.138   -22520241.41446 -15570756.66648  20799261.3714   20799267.2824
       191.000
  21576507.079   -27409818.85646 -21347100.97948  21576506.3864   21576512.2394
       176.000
  21392204.058   -31548543.47246 -24558719.36548  21392203.6654   21392209.7484
       178.000
  18862695.974   -45032375.96547 -34330563.95548  18862695.6484   18862700.1414
       217.000
  21513884.354    -8266052.06546  -6415477.47848  21513884.3384   21513889.7834
       171.000
 96  4 22  2 33 29.9950000  0  7 22 17 23 16 20 06 26
  22558220.099   -11210700.34046  -8721957.58647  22558219.0404   22558225.0924
       157.000
  19912496.284   -11805527.25346  -9179402.20648  19912495.4374   19912500.7694
       205.000
  20778269.401   -22630558.85146 -15656718.25848  20778268.6144   20778274.5204
       191.000
  21588270.391   -27348002.50346 -21298932.39848  21588269.7524   21588275.4694
       175.000
  21405499.930   -31478673.35646 -24504275.15248  21405499.5314   21405505.6324
       178.000
  18857716.705   -45058542.13447 -34350953.17548  18857716.3754   18857720.8614
       217.000
  21497565.913    -8351806.95846  -6482299.41048  21497565.8354   21497571.0394
       172.000
 96  4 22  2 33 59.9950000  0  7 22 17 23 16 20 06 26
  22541267.115   -11299789.15546  -8791377.42847  22541266.0664   22541272.0414
       157.000
  19900083.943   -11870754.57846  -9230228.66848  19900083.0894   19900088.4124
       205.000
  20757339.763   -22740544.03746 -15742420.95148  20757339.0534   20757344.9724
       192.000
  21600080.430   -27285940.57246 -21250572.45348  21600079.7464   21600085.5064
       173.000
  21418834.108   -31408602.03846 -24449674.14848  21418833.6404   21418839.7844
       178.000
  18852821.120   -45084268.46947 -34370999.66148  18852820.7844   18852825.2834
       217.000
  21481321.539    -8437171.37746  -6548817.06348  21481321.4614   21481326.6474
       172.000
 96  4 22  2 34 29.9950000  0  7 22 17 23 16 20 06 26
  22524390.582   -11388475.11146  -8860483.34347  22524389.6304   22524395.5784
       156.000
  19887706.111   -11935800.55146  -9280913.81648  19887705.2384   19887710.5654
       205.000
  20736471.421   -22850208.05446 -15827873.38048  20736470.6504   20736476.5524
       192.000
  21611929.532   -27223673.49046 -21202052.63948  21611928.8234   21611934.5814
       172.000
  21432199.155   -31338368.36646 -24394946.63048  21432198.7074   21432204.8974
       177.000
  18847998.332   -45109612.27147 -34390748.07148  18847997.9934   18848002.4994
       217.000
  21465144.314    -8522183.10846  -6615059.89648  21465144.2704   21465149.3774
       172.000
 96  4 22  2 34 59.9950000  0  7 22 17 23 16 20 06 26
  22507592.254   -11476751.15046  -8929269.85647  22507591.2794   22507597.2084
       158.000
  19875364.108   -12000658.02346  -9331452.07848  19875363.2724   19875368.5904
       206.000
  20715666.108   -22959540.12446 -15913067.14948  20715665.3834   20715671.2614
       192.000
  21623818.549   -27161196.31546 -21153369.12248  21623817.8024   21623823.5684
       171.000
  21445594.746   -31267974.23146 -24340094.08148  21445594.2844   21445600.4284
       177.000
  18843249.195   -45134569.25947 -34410195.06648  18843248.8704   18843253.3524
       217.000
  21449034.595    -8606840.35546  -6681026.53648  21449034.4734   21449039.5864
       173.000
 96  4 22  2 35 29.9950000  0  7 22 17 23 16 20 06 26
  22490875.888   -11564595.77046  -8997720.18347  22490875.0314   22490880.9294
       159.000
  19863060.397   -12065314.22046  -9381833.50848  19863059.5604   19863064.8754
       206.000
  20694924.219   -23068539.35346 -15998001.56848  20694923.5124   20694929.3434
       193.000
  21635747.837   -27098507.26346 -21104520.52148  21635747.0744   21635752.8154
       171.000
  21459020.231   -31197422.43046 -24285118.67748  21459019.7804   21459026.0074
       176.000
  18838577.603   -45159118.53447 -34429324.36348  18838577.2744   18838581.7534
       217.000
  21432992.084    -8691143.41246  -6746717.17848  21432991.9884   21432997.2394
       173.000
 96  4 22  2 35 59.9950000  0  7 22 17 23 16 20 06 26
  22474247.408   -11651979.14446  -9065811.11247  22474246.5034   22474252.4544
       159.000
  19850796.493   -12129761.29146  -9432051.98648  19850795.6504   19850800.9484
       206.000
  20674247.433   -23177196.45246 -16082669.39348  20674246.7274   20674252.5324
       193.000
  21647720.509   -27035590.52546 -21055494.48848  21647719.7454   21647725.3874
       171.000
  21472479.665   -31126692.60046 -24230004.54048  21472479.2824   21472485.4744
       175.000
  18833989.177   -45183230.84747 -34448113.17648  18833988.8514   18833993.3494
       217.000
  21417018.004    -8775087.43346  -6812128.03748  21417017.9274   21417023.2364
       173.000
 96  4 22  2 36 29.9950000  0  7 22 17 23 16 20 06 26
  22457699.630   -11738938.22146  -9133571.41947  22457698.7794   22457704.6274
       159.000
  19838564.469   -12194040.98546  -9482140.03848  19838563.6184   19838568.9274
       206.000
  20653626.277   -23285561.35446 -16167109.52948  20653625.5534   20653631.3354
       194.000
  21659729.686   -26972482.17846 -21006319.16248  21659728.8824   21659734.4524
       172.000
  21485964.528   -31055829.16046 -24174786.29448  21485964.1764   21485970.3654
       175.000
  18829477.069   -45206942.24147 -34466589.58248  18829476.7254   18829481.2094
       217.000
  21401104.450    -8858713.90246  -6877291.45048  21401104.3244   21401109.6174
       173.000
 96  4 22  2 36 59.9950000  0  7 22 17 23 16 20 06 26
  22441236.767   -11825451.36446  -9200984.24547  22441235.8554   22441241.6104
       158.000
  19826368.689   -12258130.31146  -9532079.75348  19826367.8314   19826373.1334
       206.000
  20633063.795   -23393617.92046 -16251309.40248  20633063.0284   20633068.8184
       194.000
  21671780.115   -26909156.99546 -20956974.86348  21671779.3294   21671784.8024
       172.000
  21499478.434   -30984813.33946 -24119449.31548  21499478.0314   21499484.2894
       174.000
  18825049.142   -45230211.20347 -34484721.23348  18825048.8104   18825053.2534
       217.000
  21385258.642    -8941984.09946  -6942177.25748  21385258.5044   21385263.7714
       173.000
 96  4 22  2 37 29.9950000  0  7 22 17 23 16 20 06 26
  22424857.536   -11911524.58746  -9268054.26247  22424856.6754   22424862.4204
       159.000
  19814210.414   -12322022.31346  -9581865.71448  19814209.5784   19814214.8824
       206.000
  20612562.866   -23501350.49946 -16335256.81848  20612562.1104   20612567.9304
       194.000
  21683870.820   -26845619.49946 -20907465.12848  21683870.0604   21683875.5684
       173.000
  21513019.243   -30913655.83246 -24064001.93348  21513018.8174   21513025.1364
       174.000
  18820706.944   -45253029.60647 -34502501.80048  18820706.5964   18820711.0784
       217.000
  21369483.367    -9024883.05046  -7006773.77848  21369483.2744   21369488.4554
       172.000
 96  4 22  2 37 59.9950000  0  7 22 17 23 16 20 06 26
  22408563.508   -11997150.21146  -9334775.51147  22408562.6454   22408568.3764
       159.000
  19802095.735   -12385685.05546  -9631473.02048  19802094.9454   19802100.2284
       206.000
  20592131.602   -23608717.49546 -16418919.37348  20592130.8254   20592136.6284
       194.000
  21696006.762   -26781844.21246 -20857770.10248  21696006.0284   21696011.6284
       174.000
  21526592.721   -30842326.69346 -24008420.80048  21526592.3514   21526598.6244
       173.000
  18816454.572   -45275375.82547 -34519914.43648  18816454.2304   18816458.7094
       217.000
  21353785.041    -9107377.99946  -7071055.50348  21353784.9624   21353790.1074
       173.000
 96  4 22  2 38 29.9950000  0  7 22 17 23 16 20 06 26
  22392350.183   -12082352.18346  -9401166.62847  22392349.1604   22392354.9244
       158.000
  19790020.599   -12449140.36846  -9680918.69848  19790019.7944   19790025.0924
       206.000
  20571768.143   -23715727.84346 -16502304.01048  20571767.4024   20571773.1934
       195.000
  21708184.727   -26717848.70146 -20807903.47948  21708183.9964   21708189.6094
       174.000
  21540193.252   -30770855.69046 -23952729.13548  21540192.8754   21540199.1504
       173.000
  18812286.816   -45297277.45047 -34536980.63148  18812286.4754   18812290.9444
       217.000
  21338158.299    -9189496.75246  -7135044.08048  21338158.2114   21338163.4504
       174.000
 96  4 22  2 38 59.9950000  0  7 22 17 23 16 20 06 26
  22376222.065   -12167106.18446  -9467208.69547  22376221.0554   22376226.7594
       158.000
  19777988.279   -12512370.71246  -9730189.08348  19777987.4344   19777992.7414
       206.000
  20551475.518   -23822365.93146 -16585398.58048  20551474.8004   20551480.5864
       195.000
  21720409.078   -26653609.56146 -20757847.01748  21720408.3744   21720414.0444
       174.000
  21553825.361   -30699219.00946 -23896908.35948  21553824.8984   21553831.1474
       173.000
  18808209.429   -45318704.08347 -34553676.70848  18808209.0884   18808213.5874
       217.000
  21322606.792    -9271220.30946  -7198724.71948  21322606.7274   21322611.9474
       174.000
 96  4 22  2 39 29.9950000  0  7 22 17 23 16 20 06 26
  22360171.447   -12251451.81246  -9532932.53147  22360170.5464   22360176.2114
       158.000
  19765990.509   -12575419.08846  -9779317.67048  19765989.6804   19765994.9994
       206.000
  20531243.752   -23928684.61846 -16668244.26948  20531243.0164   20531248.7544
       196.000
  21732670.990   -26589172.73846 -20707636.51748  21732670.3054   21732676.0854
       173.000
  21567479.873   -30627464.26046 -23840995.59248  21567479.3654   21567485.6944
       172.000
  18804214.054   -45339700.17547 -34570037.29748  18804213.7244   18804218.1504
       217.000
  21307121.873    -9352594.59046  -7262133.19248  21307121.7474   21307126.9004
       174.000
 96  4 22  2 39 59.9950000  0  7 22 17 23 16 20 06 26
  22344205.612   -12335352.05346  -9598309.31447  22344204.8994   22344210.5204
       157.000
  19754030.220   -12638270.83746  -9828293.03848  19754029.4004   19754034.7064
       206.000
  20511074.943   -24034672.24946 -16750831.98948  20511074.2094   20511079.9324
       196.000
  21744975.013   -26524514.21846 -20657253.26048  21744974.4174   21744980.2604
       172.000
  21581159.557   -30555576.98846 -23784979.55948  21581159.0854   21581165.3584
       172.000
  18800303.958   -45360247.83947 -34586048.45948  18800303.6214   18800308.0814
       217.000
  21291708.240    -9433593.67746  -7325249.29948  21291708.1384   21291713.2484
       174.000
 96  4 22  2 40 29.9950000  0  7 22 17 23 16 20 06 26
  22328330.423   -12418776.41946  -9663315.27947  22328329.8094   22328335.4154
       157.000
  19742109.831   -12700912.81346  -9877104.94648  19742109.0024   19742114.2814
       206.000
  20490972.397   -24140311.82946 -16833148.49748  20490971.6464   20490977.3654
       196.000
  21757323.747   -26459621.34846 -20606687.40448  21757323.1194   21757328.9284
       170.000
  21594865.178   -30483553.69946 -23728857.53548  21594864.6764   21594870.9434
       172.000
  18796482.638   -45380329.15547 -34601696.23048  18796482.3064   18796486.7264
       217.000
  21276372.672    -9514182.67646  -7388045.85648  21276372.5344   21276377.5684
       174.000
 96  4 22  2 40 59.9950000  0  7 22 17 23 16 20 06 26
  22312539.955   -12501755.79246  -9727974.50247  22312539.2904   22312544.9254
       157.000
  19730225.548   -12763364.84646  -9925768.84848  19730224.7204   19730230.0074
       207.000
  20470931.616   -24245626.48846 -16915211.82248  20470930.8994   20470936.5924
       196.000
  21769709.287   -26394535.14546 -20555970.90048  21769708.5944   21769714.3714
       168.000
  21608588.373   -30411437.92146 -23672663.43348  21608587.8564   21608594.1834
       171.000
  18792745.043   -45399970.13347 -34617000.89048  18792744.6944   18792749.1354
       217.000
  21261114.873    -9594362.46746  -7450523.57848  21261114.7574   21261119.7304
       172.000
 96  4 22  2 41 29.9950000  0  7 22 17 23 16 20 06 26
  22296835.683   -12584282.44446  -9792280.95747  22296834.9824   22296840.5784
       156.000
  19718379.984   -12825613.51346  -9974274.28648  19718379.1604   19718384.4514
       207.000
  20450959.969   -24350578.23146 -16996992.36148  20450959.2164   20450964.8974
       196.000
  21782133.731   -26329244.19846 -20505094.83748  21782133.0444   21782138.7314
       166.000
  21622329.911   -30339225.19946 -23616393.81048  21622329.4634   21622335.7664
       171.000
  18789090.358   -45419175.70247 -34631966.26248  18789090.0334   18789094.4494
       217.000
  21245939.420    -9674109.47346  -7512664.03548  21245939.3324   21245944.2284
       174.000
 96  4 22  2 41 59.9940000  0  7 22 17 23 16 20 06 26
  22281213.703   -12666376.43946  -9856250.28347  22281213.0274   22281218.4214
       156.000
  19706570.342   -12887673.73646 -10022632.87748  19706569.4964   19706574.8084
       207.000
  20431057.733   -24455164.63246 -17078488.20948  20431057.0244   20431062.6904
       197.000
  21794593.854   -26263766.00346 -20454072.87048  21794593.1074   21794598.7574
       164.000
  21636088.777   -30266922.39746 -23560053.98248  21636088.2474   21636094.5084
       171.000
  18785513.207   -45437973.84747 -34646614.16448  18785512.8704   18785517.3234
       217.000
  21230842.951    -9753442.18946  -7574481.67448  21230842.8734   21230847.7514
       176.000
 96  4 22  2 42 29.9940000  0  7 22 17 23 16 20 06 26
  22265671.654   -12748051.04546  -9919892.79647  22265670.8774   22265676.3304
       156.000
  19694793.706   -12949560.12046 -10070856.01348  19694792.8894   19694798.1734
       207.000
  20411222.039   -24559401.92846 -17159712.03648  20411221.2864   20411226.9444
       197.000
  21807088.585   -26198105.20946 -20402908.61548  21807087.9074   21807093.5014
       164.000
  21649867.298   -30194515.64946 -23503633.16048  21649866.7494   21649873.1104
       170.000
  18782011.353   -45456376.15247 -34660953.61648  18782011.0444   18782015.4904
       217.000
  21215821.841    -9832378.74146  -7635990.62248  21215821.7424   21215826.6184
       175.000
 96  4 22  2 42 59.9940000  0  7 22 17 23 16 20 06 26
  22250212.266   -12829290.95346  -9983196.58847  22250211.3604   22250216.8604
       154.000
  19683052.344   -13011261.40946 -10118934.91948  19683051.5374   19683056.8314
       207.000
  20391454.230   -24663282.33746 -17240657.76248  20391453.4904   20391459.1384
       197.000
  21819621.724   -26132242.49546 -20351587.01648  21819621.1014   21819626.6564
       164.000
  21663670.096   -30121981.84846 -23447113.31948  21663669.5434   21663675.8394
       170.000
  18778587.644   -45474367.91147 -34674973.16048  18778587.3054   18778591.7374
       217.000
  21200877.353    -9910912.25146  -7697185.50448  21200877.2084   21200882.0154
       172.000
 96  4 22  2 43 29.9940000  0  7 22 17 23 16 20 06 26
  22234835.419   -12910096.49546 -10046161.91547  22234834.4154   22234840.0414
       154.000
  19671343.412   -13072792.44246 -10166881.16248  19671342.5534   19671347.8374
       208.000
  20371747.262   -24766842.73146 -17321354.13048  20371746.5534   20371752.1954
       197.000
  21832191.103   -26066190.15246 -20300117.65948  21832190.4394   21832195.9424
       164.000
  21677497.459   -30049318.77646 -23390492.76648  21677496.9014   21677503.1914
       169.000
  18775239.315   -45491963.15747 -34688683.74448  18775239.0024   18775243.4924
       217.000
  21186001.069    -9989087.02546  -7758100.87148  21186000.9674   21186005.7244
       173.000
 96  4 22  2 43 59.9940000  0  7 22 17 23 16 20 06 26
  22219549.910   -12990422.62546 -10108753.66647  22219548.8564   22219554.4894
       153.000
  19659672.530   -13134123.13046 -10214671.28848  19659671.6924   19659676.9654
       208.000
  20352102.190   -24870078.06046 -17401797.19848  20352101.5134   20352107.1084
       198.000
  21844798.120   -25999940.20146 -20248494.31948  21844797.4424   21844802.9174
       165.000
  21691354.712   -29976498.20046 -23333749.47348  21691354.2284   21691360.5434
       169.000
  18771975.912   -45509112.61747 -34702046.95048  18771975.5724   18771980.0574
       217.000
  21171196.520   -10066885.10746  -7818722.70848  21171196.4364   21171201.2204
       175.000
 96  4 22  2 44 29.9940000  0  7 22 17 23 16 20 06 26
  22204357.459   -13070259.74046 -10170964.37947  22204356.2244   22204362.0124
       153.000
  19648040.820   -13195248.14646 -10262301.15148  19648039.9654   19648045.2394
       208.000
  20332517.162   -24972998.38446 -17481994.80648  20332516.3924   20332521.9714
       198.000
  21857441.120   -25933501.26246 -20196723.70148  21857440.3894   21857445.9174
       166.000
  21705236.902   -29903547.13346 -23276904.49948  21705236.3684   21705242.7114
       169.000
  18768801.439   -45525794.31547 -34715045.67148  18768801.1094   18768805.5674
       217.000
  21156465.988   -10144294.54946  -7879041.70548  21156465.9134   21156470.6954
       177.000
 96  4 22  2 44 59.9940000  0  7 22 17 23 16 20 06 26
  22189258.671   -13149604.10746 -10232791.13947  22189257.5574   22189263.2764
       155.000
  19636450.400   -13256156.14446 -10309761.91548  19636449.5494   19636454.8204
       208.000
  20312994.009   -25075592.90046 -17561938.54248  20312993.2674   20312998.8364
       198.000
  21870119.431   -25866876.26946 -20144808.12548  21870118.6824   21870124.2964
       166.000
  21719141.231   -29830479.21846 -23219968.48148  21719140.7324   21719147.1164
       169.000
  18765718.142   -45541997.19347 -34727671.28948  18765717.8244   18765722.2594
       217.000
  21141811.296   -10221305.35746  -7939050.07048  21141811.2094   21141815.9474
       176.000
 96  4 22  2 45 29.9940000  0  7 22 17 23 16 20 06 26
  22174257.730   -13228434.90846 -10294217.70447  22174256.5324   22174262.2994
       154.000
  19624903.615   -13316834.72546 -10357043.91148  19624902.7834   19624908.0564
       208.000
  20293537.231   -25177839.02346 -17641610.80248  20293536.4874   20293542.0324
       198.000
  21882832.376   -25800069.16346 -20092750.62948  21882831.6514   21882837.3774
       166.000
  21733067.330   -29757297.12046 -23162943.47948  21733066.8714   21733073.2064
       168.000
  18762729.345   -45557703.55247 -34739910.00648  18762728.9934   18762733.4694
       217.000
  21127237.384   -10297891.55646  -7998727.58348  21127237.3284   21127242.0544
       176.000
 96  4 22  2 45 59.9940000  0  7 22 17 23 16 20 06 26
  22159344.590   -13306803.43046 -10355284.04947  22159343.5354   22159349.1774
       155.000
  19613391.505   -13377331.32246 -10404184.08948  19613390.6424   19613395.9194
       208.000
  20274145.334   -25279743.78046 -17721017.06448  20274144.5924   20274150.1474
       199.000
  21895571.418   -25733125.22546 -20040586.52348  21895570.6224   21895576.4034
       166.000
  21747005.132   -29684053.92946 -23105870.86348  21747004.6224   21747010.9594
       168.000
  18759827.406   -45572953.16347 -34751792.81548  18759827.0724   18759831.4844
       217.000
  21112744.035   -10374054.12946  -8058075.00748  21112744.0024   21112748.8004
       174.000
 96  4 22  2 46 29.9940000  0  7 22 17 23 16 20 06 26
  22144516.125   -13384726.74646 -10416003.48847  22144515.1524   22144520.8064
       156.000
  19601912.873   -13437651.89646 -10451187.11448  19601912.0294   19601917.2994
       208.000
  20254821.940   -25381288.68546 -17800142.92948  20254821.1794   20254826.7324
       199.000
  21908339.611   -25666028.58946 -19988303.41948  21908338.7634   21908344.5584
       167.000
  21760953.857   -29610752.12746 -23048752.59548  21760953.4664   21760959.8334
       167.000
  18757009.488   -45587761.65347 -34763331.89548  18757009.1434   18757013.5814
       217.000
  21098332.708   -10449785.98646  -8117086.81748  21098332.6584   21098337.3844
       173.000
 96  4 22  2 46 59.9940000  0  7 22 17 23 16 20 06 26
  22129777.785   -13462176.32846 -10476353.77647  22129777.0044   22129782.4804
       156.000
  19590472.793   -13497769.82346 -10498032.23248  19590471.9394   19590477.2264
       208.000
  20235573.941   -25482437.27546 -17878959.96648  20235573.2144   20235578.7824
       199.000
  21921142.693   -25598748.66646 -19935877.50348  21921141.8104   21921147.5454
       167.000
  21774924.107   -29537338.05246 -22991546.83448  21774923.6844   21774930.0434
       167.000
  18754279.734   -45602106.50647 -34774509.70148  18754279.3934   18754283.8824
       217.000
  21084006.472   -10525070.95246  -8175750.37948  21084006.4264   21084011.0384
       174.000
 96  4 22  2 47 29.9940000  0  7 22 17 23 16 20 06 26
  22115121.291   -13539196.67146 -10536369.61947  22115120.5604   22115126.0254
       158.000
  19579062.935   -13557728.82646 -10544753.51448  19579062.0974   19579067.3454
       208.000
  20216395.571   -25583220.31746 -17957492.16848  20216394.8214   20216400.3624
       200.000
  21933974.572   -25531316.99946 -19883333.35648  21933973.7064   21933979.3584
       166.000
  21788910.262   -29463840.10946 -22934275.73348  21788909.8724   21788916.2244
       167.000
  18751630.422   -45616028.66746 -34785358.13048  18751630.0974   18751634.4954
       216.000
  21069757.086   -10599952.24346  -8234099.37948  21069757.0014   21069761.5784
       176.000
 96  4 22  2 47 59.9940000  0  7 22 17 23 16 20 06 26
  22100554.943   -13615743.10946 -10596016.15247  22100554.2044   22100559.7624
       158.000
  19567694.976   -13617467.95746 -10591303.46948  19567694.1374   19567699.3704
       209.000
  20197295.728   -25683590.45046 -18035702.61948  20197294.9744   20197300.5104
       200.000
  21946847.102   -25463671.08446 -19830622.25848  21946846.3044   21946851.9204
       165.000
  21802923.795   -29390199.01546 -22876893.07148  21802923.3404   21802929.6534
       167.000
  18749069.612   -45629485.68547 -34795844.11148  18749069.2594   18749073.6944
       217.000
  21055591.797   -10674391.45546  -8292103.90448  21055591.7274   21055596.2384
       177.000
 96  4 22  2 48 29.9940000  0  7 22 17 23 16 20 06 26
  22086073.453   -13691843.41246 -10655315.07147  22086072.7314   22086078.2944
       159.000
  19556364.639   -13677009.37846 -10637699.36448  19556363.7914   19556369.0084
       209.000
  20178262.863   -25783608.60946 -18113638.80348  20178262.1404   20178267.6744
       200.000
  21959754.306   -25395842.61346 -19777768.90648  21959753.4994   21959759.2014
       164.000
  21816957.760   -29316450.14846 -22819426.44048  21816957.2954   21816963.6574
       167.000
  18746591.312   -45642509.12447 -34805992.24148  18746591.0054   18746595.4474
       217.000
  21041500.944   -10748439.29046  -8349803.48548  21041500.8524   21041505.3774
       178.000
 96  4 22  2 48 59.9940000  0  7 22 17 23 16 20 06 26
  22071679.465   -13767484.07946 -10714255.81347  22071678.7154   22071684.3714
       160.000
  19545073.135   -13736346.51546 -10683936.06848  19545072.2884   19545077.4964
       209.000
  20159297.466   -25883272.67446 -18191299.06948  20159296.6994   20159302.2444
       201.000
  21972694.523   -25327840.73246 -19724780.44248  21972693.7614   21972699.5524
       164.000
  21831010.836   -29242601.43746 -22761881.99848  21831010.2664   21831016.6214
       166.000
  18744197.046   -45655091.34746 -34815796.56148  18744196.7134   18744201.0754
       216.000
  21027489.203   -10822071.04446  -8407178.84348  21027489.1334   21027493.7284
       179.000
 96  4 22  2 49 29.9940000  0  7 22 17 23 16 20 06 26
  22057372.909   -13842666.24246 -10772839.27548  22057372.0294   22057377.7754
       162.000
  19533818.850   -13795488.05646 -10730020.36048  19533817.9894   19533823.1924
       209.000
  20140400.923   -25982574.32646 -18268676.93748  20140400.2014   20140405.7134
       201.000
  21985667.005   -25259669.08046 -19671659.66848  21985666.3304   21985672.1724
       164.000
  21845077.484   -29168680.71246 -22704281.44848  21845076.9184   21845083.2094
       166.000
  18741885.745   -45667237.29347 -34825260.93048  18741885.4034   18741889.8314
       217.000
  21013561.593   -10895260.60146  -8464209.64148  21013561.5644   21013566.1974
       178.000
 96  4 22  2 49 59.9940000  0  7 22 17 23 16 20 06 26
  22043156.189   -13917375.79246 -10831054.47548  22043155.2514   22043160.9734
       162.000
  19522602.938   -13854427.71946 -10775947.34848  19522602.1244   19522607.3244
       209.000
  20121571.466   -26081523.72246 -18345780.32148  20121570.7164   20121576.2314
       201.000
  21998668.043   -25191348.36646 -19618422.74348  21998667.3204   21998673.2174
       164.000
  21859155.599   -29094700.07046 -22646634.20748  21859154.9914   21859161.3044
       166.000
  18739659.620   -45678935.61847 -34834376.50248  18739659.2744   18739663.7284
       217.000
  20999720.203   -10967997.24146  -8520887.50848  20999720.1664   20999724.6974
       177.000
 96  4 22  2 50 29.9940000  0  7 22 17 23 16 20 06 26
  22029031.356   -13991601.87046 -10888892.94348  22029030.4604   22029036.2134
       163.000
  19511424.708   -13913169.66546 -10821720.27348  19511423.8824   19511429.0664
       209.000
  20102813.143   -26180099.17746 -18422592.32148  20102812.3834   20102817.8874
       201.000
  22011697.670   -25122877.97846 -19565069.18348  22011696.9094   22011702.6874
       164.000
  21873246.255   -29020653.66246 -22588935.72548  21873245.5974   21873251.9514
       166.000
  18737523.106   -45690162.92346 -34843125.04448  18737522.7734   18737527.1814
       216.000
  20985969.922   -11040255.62846  -8577192.67048  20985969.8654   20985974.2804
       177.000
 96  4 22  2 50 59.9940000  0  7 22 17 23 16 20 06 26
  22014997.963   -14065348.02746 -10946357.44448  22014997.0244   22015002.6894
       163.000
  19500278.240   -13971744.69246 -10867363.13348  19500277.4194   19500282.6024
       209.000
  20084127.231   -26278294.00746 -18499107.72848  20084126.4894   20084131.9844
       202.000
  22024752.829   -25054273.07346 -19511610.80248  22024752.1014   22024757.7144
       163.000
  21887348.059   -28946548.29946 -22531191.31048  21887347.4244   21887353.6724
       165.000
  18735474.475   -45700928.51446 -34851513.81848  18735474.1514   18735478.5834
       216.000
  20972309.225   -11112043.41246  -8633131.13948  20972309.1324   20972313.3974
       177.000
 96  4 22  2 51 29.9940000  0  7 22 17 23 16 20 06 26
  22001057.320   -14138607.07846 -11003442.37548  22001056.2854   22001061.9394
       164.000
  19489164.562   -14030147.25846 -10912871.60148  19489163.7234   19489168.9274
       209.000
  20065510.380   -26376126.11146 -18575340.49848  20065509.6174   20065515.0834
       202.000
  22037833.803   -24985532.37246 -19458046.60048  22037833.0164   22037838.5194
       162.000
  21901464.690   -28872365.00046 -22473386.15948  21901464.0624   21901470.2994
       165.000
  18733515.206   -45711224.64446 -34859536.77248  18733514.8684   18733519.2854
       216.000
  20958734.458   -11183378.98046  -8688717.24248  20958734.3714   20958738.6254
       177.000
 96  4 22  2 51 59.9940000  0  7 22 17 23 16 20 06 26
  21987208.985   -14211380.37346 -11060148.80848  21987207.9834   21987213.5494
       164.000
  19478085.166   -14088369.69146 -10958239.70748  19478084.3434   19478089.5524
       209.000
  20046960.171   -26473608.11346 -18651300.45948  20046959.4194   20046964.8584
       202.000
  22050939.821   -24916660.08046 -19404379.86748  22050938.9324   22050944.4004
       161.000
  21915597.513   -28798097.05846 -22415515.05648  21915596.8184   21915603.0814
       165.000
  18731645.184   -45721051.49646 -34867194.05448  18731644.8524   18731649.2404
       216.000
  20945243.067   -11254276.53946  -8743962.06048  20945242.9604   20945247.3604
       178.000
 96  4 22  2 52 29.9940000  0  8 22 17 23 16 20 21 06 26
  21973452.394   -14283672.05346 -11116479.93948  21973451.3464   21973456.9344
       165.000
  19467039.137   -14146416.96446 -11003471.32048  19467038.2904   19467043.4814
       209.000
  20028479.284   -26570725.33246 -18726976.16848  20028478.5734   20028483.9804
       203.000
  22064073.314   -24847642.76246 -19350600.13047  22064072.3314   22064077.8984
       160.000
  21929745.068   -28723750.64146 -22357582.78848  21929744.5044   21929750.7464
       164.000
  23373938.826    -3948081.70946  -2131512.90247  23373938.5304   23373946.7004
       139.000
  18729862.642   -45730418.85846 -34874493.28948  18729862.2964   18729866.6944
       216.000
  20931835.982   -11324730.61746  -8798861.30948  20931835.8824   20931840.4394
       180.000
 96  4 22  2 52 59.9940000  0  8 22 17 23 16 20 21 06 26
  21959791.120   -14355462.20546 -11172420.28448  21959790.1534   21959795.6934
       166.000
  19456033.006   -14204254.38746 -11048539.42348  19456032.1694   19456037.3384
       209.000
  20010068.263   -26667475.96346 -18802366.24048  20010067.4994   20010072.8804
       203.000
  22077236.512   -24778468.62446 -19296698.19847  22077235.6984   22077241.3574
       160.000
  21943906.307   -28649332.71446 -22299594.81048  21943905.7614   21943911.9514
       163.000
  23349628.695    -4075833.23746  -2231059.38847  23349628.0894   23349636.4154
       140.000
  18728170.474   -45739311.06346 -34881422.28348  18728170.1684   18728174.5474
       216.000
  20918514.536   -11394735.03546  -8853410.17148  20918514.4544   20918519.0574
       180.000
 96  4 22  2 53 29.9940000  0  8 22 17 23 16 20 21 06 26
  21946220.901   -14426773.72546 -11227987.65948  21946219.9684   21946225.4874
       166.000
  19445066.381   -14261884.37746 -11093445.89448  19445065.5314   19445070.6774
       209.000
  19991725.013   -26763870.24246 -18877478.62848  19991724.2374   19991729.6304
       203.000
  22090425.964   -24709156.73746 -19242688.92747  22090425.2264   22090431.0994
       160.000
  21958074.807   -28574876.79346 -22241577.21948  21958074.2914   21958080.4414
       163.000
  23325331.334    -4203516.15746  -2330552.38347  23325330.6104   23325338.8914
       142.000
  18726566.116   -45747742.30946 -34887992.08048  18726565.7884   18726570.1714
       216.000
  20905275.852   -11464304.80746  -8907620.35048  20905275.7794   20905280.3294
       180.000
 96  4 22  2 53 59.9940000  0  8 22 17 23 16 20 21 06 26
  21932743.108   -14497600.50446 -11283177.32748  21932742.0794   21932747.6534
       167.000
  19434138.890   -14319308.66646 -11138192.06848  19434138.0464   19434143.1744
       209.000
  19973456.372   -26859872.02946 -18952285.17448  19973455.6744   19973461.0754
       203.000
  22103643.628   -24639697.58546 -19188564.90247  22103642.9074   22103648.8184
       160.000
  21972246.938   -28500401.70746 -22183544.69448  21972246.3914   21972252.6634
       163.000
  23301052.322    -4331101.94646  -2429969.70747  23301051.8674   23301060.1284
       143.000
  18725050.549   -45755706.69946 -34894198.09348  18725050.2084   18725054.5814
       216.000
  20892124.117   -11533417.52346  -8961474.37148  20892124.0534   20892128.5824
       179.000
 96  4 22  2 54 29.9940000  0  8 22 17 23 16 20 21 06 26
  21919353.485   -14567963.09246 -11338005.28248  21919352.4584   21919357.9994
       166.000
  19423244.738   -14376557.91746 -11182801.84948  19423243.8784   19423248.9884
       209.000
  19955259.172   -26955499.02546 -19026799.67948  19955258.4224   19955263.8154
       203.000
  22116885.085   -24570114.69046 -19134344.45847  22116884.2804   22116889.9934
       159.000
  21986416.062   -28425942.05946 -22125524.20148  21986415.6414   21986421.8354
       162.000
  23276792.246    -4458589.21846  -2529310.27247  23276791.8434   23276799.9614
       144.000
  18723620.325   -45763222.50946 -34900054.56048  18723619.9884   18723624.4034
       216.000
  20879054.458   -11602098.58746  -9014992.03348  20879054.4214   20879058.9774
       179.000
 96  4 22  2 54 59.9940000  0  8 22 17 23 16 20 21 06 26
  21906050.153   -14637872.89546 -11392480.43148  21906049.1184   21906054.5834
       167.000
  19412379.582   -14433654.56846 -11227292.72848  19412378.7204   19412383.8244
       209.000
  19937129.084   -27050773.49246 -19101039.48948  19937128.2734   19937133.6464
       204.000
  22130145.108   -24500433.80446 -19080047.66947  22130144.1604   22130149.6914
       159.000
  22000581.399   -28351503.05546 -22067519.79048  22000580.9544   22000587.0684
       161.000
  23252553.926    -4585962.75246  -2628562.22647  23252553.2834   23252561.4384
       143.000
  18722273.812   -45770298.52846 -34905568.33248  18722273.4804   18722277.8684
       216.000
  20866062.825   -11670369.83046  -9068190.36248  20866062.7864   20866067.3064
       179.000
 96  4 22  2 55 29.9940000  0  8 22 17 23 16 20 21 06 26
  21892833.129   -14707328.00046 -11446601.24948  21892832.1284   21892837.6474
       167.000
  19401540.069   -14490616.49146 -11271678.61848  19401539.2144   19401544.3094
       209.000
  19919069.353   -27145677.25746 -19174990.43148  19919068.6564   19919074.0264
       204.000
  22143424.316   -24430651.34546 -19025671.74447  22143423.3364   22143428.6624
       159.000
  22014747.262   -28277060.57446 -22009512.68247  22014746.7484   22014752.9264
       160.000
  23228341.915    -4713197.98746  -2727706.40847  23228341.1144   23228349.1434
       142.000
  18721009.925   -45776940.39946 -34910743.80448  18721009.5754   18721013.9514
       216.000
  20853151.086   -11738221.52246  -9121061.75248  20853151.0544   20853155.5614
       180.000
 96  4 22  2 55 59.9940000  0  8 22 17 23 16 20 21 06 26
  21879707.810   -14776301.97646 -11500347.18148  21879706.7654   21879712.2764
       167.000
  19390732.393   -14547411.01646 -11315934.07048  19390731.5464   19390736.6394
       209.000
  19901083.376   -27240194.23146 -19248639.98448  19901082.6674   19901088.0084
       204.000
  22156728.105   -24360739.70946 -18971195.14447  22156727.1474   22156732.3394
       160.000
  22028919.927   -28202582.63346 -21951477.94047  22028919.4164   22028925.6704
       159.000
  23204157.939    -4840284.67746  -2826734.83447  23204157.2274   23204164.9194
       140.000
  18719831.676   -45783131.92746 -34915568.36648  18719831.3504   18719835.7514
       216.000
  20840323.776   -11805629.52646  -9173587.42848  20840323.7444   20840328.1594
       181.000
 96  4 22  2 56 29.9940000  0  8 22 17 23 16 20 21 06 26
  21866673.396   -14844797.77146 -11553720.50848  21866672.4284   21866677.8684
       167.000
  19379957.885   -14604031.54546 -11360053.94448  19379957.0154   19379962.0984
       209.000
  19883169.020   -27334334.99146 -19321996.38748  19883168.2494   19883173.5744
       204.000
  22170055.291   -24290704.74546 -18916622.45147  22170054.3014   22170059.4394
       160.000
  22043101.741   -28128056.83046 -21893405.88947  22043101.1884   22043107.4764
       158.000
  23179996.855    -4967250.34946  -2925668.92547  23179996.2934   23180003.9644
       141.000
  18718739.429   -45788872.06446 -34920041.19648  18718739.0874   18718743.4564
       216.000
  20827580.198   -11872597.22046  -9225770.01848  20827580.1574   20827584.6224
       181.000
 96  4 22  2 56 59.9940000  0  8 22 17 23 16 20 21 06 26
  21853733.700   -14912795.91046 -11606706.05548  21853732.7764   21853738.2574
       167.000
  19369221.957   -14660449.03346 -11404015.60348  19369221.1074   19369226.1854
       209.000
  19865331.005   -27428074.06546 -19395039.78448  19865330.2784   19865335.5754
       205.000
  22183409.353   -24220527.89246 -18861939.20347  22183408.4664   22183413.6724
       160.000
  22057298.321   -28053453.76846 -21835273.66247  22057297.6504   22057304.0204
       157.000
  23155860.405    -5094089.74046  -3024504.64047  23155859.4724   23155867.1654
       144.000
  18717735.203   -45794149.14946 -34924153.20448  18717734.8624   18717739.2494
       216.000
  20814926.047   -11939094.39346  -9277585.96948  20814926.0274   20814930.6134
       180.000
 96  4 22  2 57 29.9940000  0  8 22 17 23 16 20 21 06 26
  21840887.616   -14980302.34646 -11659308.45448  21840886.7994   21840892.1674
       167.000
  19358527.675   -14716647.70346 -11447806.76048  19358526.8014   19358531.9084
       209.000
  19847570.016   -27521408.46646 -19467767.85048  19847569.3344   19847574.6094
       205.000
  22196791.983   -24150201.93346 -18807139.74448  22196791.1014   22196796.3624
       161.000
  22071507.794   -27978782.15546 -21777088.00447  22071507.1544   22071513.5834
       156.000
  23131742.486    -5220830.23746  -3123263.31047  23131741.5084   23131749.1394
       148.000
  18716818.482   -45798966.68246 -34927907.11648  18716818.1464   18716822.5374
       216.000
  20802365.329   -12005100.98146  -9329019.62448  20802365.2734   20802369.9734
       180.000
 96  4 22  2 57 59.9940000  0  8 22 17 23 16 20 21 06 26
  21828133.089   -15047327.49346 -11711535.81548  21828132.2894   21828137.6304
       166.000
  19347874.471   -14772630.46346 -11491429.66948  19347873.6364   19347878.7174
       210.000
  19829881.224   -27614363.81546 -19540200.54948  19829880.4504   19829885.7334
       205.000
  22210199.320   -24079746.11846 -18752239.11348  22210198.4004   22210203.8044
       162.000
  22085724.584   -27904071.78646 -21718872.14047  22085724.0514   22085730.4974
       156.000
  23107635.721    -5347510.27546  -3221974.85547  23107635.0484   23107642.6084
       149.000
  18715988.130   -45803330.09446 -34931307.16948  18715987.7814   18715992.1784
       216.000
  20789896.323   -12070625.79446  -9380077.89548  20789896.2844   20789900.8844
       179.000
 96  4 22  2 58 29.9940000  0  8 22 17 23 16 20 21 06 26
  21815470.414   -15113870.03346 -11763387.13648  21815469.7054   21815475.0734
       167.000
  19337259.392   -14828413.32846 -11534896.82148  19337258.5144   19337263.5684
       210.000
  19812264.363   -27706940.67246 -19612338.32148  19812263.6154   19812268.8914
       205.000
  22223629.614   -24009169.63546 -18697244.45947  22223628.6824   22223634.2164
       160.000
  22099946.183   -27829337.78146 -21660637.84847  22099945.4564   22099951.9074
       156.000
  23083543.113    -5474118.75246  -3320630.67247  23083542.1564   23083549.7094
       148.000
  18715244.096   -45807239.75946 -34934353.65648  18715243.7564   18715248.1204
       215.000
  20777521.047   -12135658.08146  -9430752.35248  20777520.9824   20777525.6104
       180.000
 96  4 22  2 58 59.9940000  0  8 22 17 23 16 20 21 06 26
  21802895.648   -15179951.06746 -11814878.82948  21802894.8704   21802900.2044
       166.000
  19326677.468   -14884021.60146 -11578227.93048  19326676.5904   19326681.6374
       210.000
  19794714.721   -27799164.45046 -19684200.96248  19794713.9754   19794719.2294
       206.000
  22237077.448   -23938500.94946 -18642177.94547  22237076.4434   22237082.0854
       159.000
  22114166.118   -27754610.75046 -21602409.02547  22114165.5324   22114172.0064
       156.000
  23059463.851    -5600654.80446  -3419230.02347  23059463.0464   23059470.4374
       145.000
  18714582.145   -45810718.27146 -34937064.17548  18714581.7854   18714586.1594
       215.000
  20765235.895   -12200217.24246  -9481058.14448  20765235.8064   20765240.3624
       180.000
 96  4 22  2 59 29.9940000  0  8 22 17 23 16 20 21 06 26
  21790413.659   -15245544.49046 -11865990.57348  21790412.9014   21790418.2124
       166.000
  19316130.222   -14939447.72746 -11621417.09848  19316129.3524   19316134.3954
       210.000
  19777235.972   -27891015.69046 -19755773.32448  19777235.2554   19777240.5144
       206.000
  22250544.543   -23867730.83146 -18587032.38147  22250543.6094   22250549.1674
       157.000
  22128386.627   -27679881.64746 -21544178.58047  22128386.0874   22128392.5294
       156.000
  23035404.630    -5727086.32546  -3517747.95447  23035403.7724   23035411.0044
       143.000
  18714008.757   -45813731.35546 -34939412.03048  18714008.4024   18714012.8034
       215.000
  20753045.685   -12264277.34146  -9530975.07448  20753045.5764   20753050.0334
       179.000
 96  4 22  2 59 59.9940000  0  8 22 17 23 16 20 21 06 26
  21778024.788   -15310649.04046 -11916721.37348  21778023.9474   21778029.1544
       166.000
  19305612.056   -14994720.84146 -11664487.04248  19305611.2134   19305616.2334
       210.000
  19759827.244   -27982499.24746 -19827059.17448  19759826.4974   19759831.7454
       206.000
  22264026.141   -23796884.16446 -18531827.17647  22264025.2264   22264030.8344
       155.000
  22142605.836   -27605160.14246 -21485954.03847  22142605.1634   22142611.6354
       157.000
  23011366.361    -5853406.93346  -3616179.44647  23011365.5444   23011372.7814
       142.000
  18713521.636   -45816291.11146 -34941406.64148  18713521.3094   18713525.6684
       215.000
  20740946.045   -12327860.90446  -9580520.67148  20740945.9724   20740950.4284
       180.000
 96  4 22  3  0 29.9940000  0  8 22 17 23 16 20 21 06 26
  21765731.927   -15375249.10346 -11967059.05748  21765730.9384   21765736.2374
       166.000
  19295122.363   -15049844.76446 -11707440.73248  19295121.5054   19295126.4934
       210.000
  19742492.031   -28073596.27846 -19898043.84348  19742491.2584   19742496.5434
       206.000
  22277522.375   -23725960.93846 -18476562.32847  22277521.4334   22277527.0044
       153.000
  22156825.902   -27530433.03946 -21427725.14447  22156825.2504   22156831.6404
       156.000
  22987354.755    -5979587.94746  -3714502.18947  22987354.0064   22987361.1134
       144.000
  18713122.262   -45818390.01646 -34943042.14948  18713121.9054   18713126.2784
       215.000
  20728940.293   -12390951.18246  -9629681.89348  20728940.2034   20728944.6884
       180.000
 96  4 22  3  0 59.9940000  0  8 22 17 23 16 20 21 06 26
  21753533.807   -15439350.95646 -12017008.53548  21753532.8234   21753538.0084
       165.000
  19284661.520   -15104816.58146 -11750275.89148  19284660.6874   19284665.6874
       210.000
  19725231.013   -28164302.88346 -19968724.27348  19725230.3074   19725235.5944
       206.000
  22291031.825   -23654968.71246 -18421243.70347  22291030.8904   22291036.3554
       152.000
  22171049.544   -27455687.06346 -21369481.53947  22171048.9424   22171055.2414
       156.000
  22963368.884    -6105634.45846  -3812720.11747  22963368.1914   22963375.2774
       147.000
  18712812.204   -45820019.34746 -34944311.75248  18712811.8504   18712816.2564
       215.000
  20717027.299   -12453554.10246  -9678463.36148  20717027.2404   20717031.7094
       180.000
 96  4 22  3  1 29.9940000  0  8 22 17 23 16 20 21 06 26
  21741431.649   -15502947.48746 -12066564.24148  21741430.6714   21741435.8804
       165.000
  19274229.022   -15159639.65146 -11792995.14648  19274228.1704   19274233.1804
       210.000
  19708046.184   -28254609.73446 -20039093.21748  19708045.4544   19708050.7334
       207.000
  22304555.182   -23583903.54946 -18365868.24847  22304554.2194   22304559.5624
       151.000
  22185277.205   -27380920.27846 -21311221.72247  22185276.6624   22185282.9164
       156.000
  22939406.161    -6231558.76046  -3910842.80647  22939405.4904   22939412.5924
       148.000
  18712591.296   -45821180.19246 -34945216.30648  18712590.9434   18712595.3224
       215.000
  20705208.529   -12515662.19746  -9726859.23248  20705208.4224   20705212.9864
       181.000
 96  4 22  3  1 59.9940000  0  8 22 17 23 16 20 21 06 26
  21729425.378   -15566040.83246 -12115727.87048  21729424.3834   21729429.5824
       165.000
  19263827.389   -15214300.54446 -11835588.02948  19263826.5504   19263831.5694
       210.000
  19690934.488   -28344532.43946 -20109162.82148  19690933.7104   19690938.9634
       207.000
  22318093.803   -23512758.12446 -18310430.25647  22318092.9164   22318098.1414
       150.000
  22199506.271   -27306146.26446 -21252956.25547  22199505.7124   22199511.9694
       155.000
  22915464.663    -6357372.13046  -4008879.05647  22915463.9854   22915471.0584
       147.000
  18712456.842   -45821886.77146 -34945766.88248  18712456.4764   18712460.8264
       215.000
  20693480.892   -12577291.25546  -9774881.83848  20693480.7714   20693485.3374
       182.000
 96  4 22  3  2 29.9940000  0  8 22 17 23 16 20 21 06 26
  21717518.792   -15628610.36346 -12164483.32748  21717517.7954   21717522.9114
       165.000
  19253465.812   -15268750.95346 -11878016.89548  19253464.9644   19253469.9824
       210.000
  19673898.492   -28434056.77446 -20178922.00848  19673897.7544   19673903.0114
       207.000
  22331654.996   -23441492.95446 -18254898.93547  22331654.1884   22331659.3494
       149.000
  22213739.776   -27231348.32346 -21194672.15747  22213739.2484   22213745.5184
       156.000
  22891549.086    -6483047.52946  -4106807.77147  22891548.5014   22891555.7674
       143.000
  18712414.557   -45822108.75046 -34945939.85648  18712414.2054   18712418.5754
       215.000
  20681848.691   -12638418.50346  -9822513.42248  20681848.5744   20681853.1424
       182.000
 96  4 22  3  2 59.9940000  0  8 22 17 23 16 20 21 06 26
  21705705.162   -15690692.21646 -12212858.78348  21705704.0554   21705709.1484
       165.000
  19243141.744   -15323004.14746 -11920292.09348  19243140.8914   19243145.8944
       210.000
  19656931.711   -28523217.25946 -20248397.67748  19656931.0504   19656936.2774
       207.000
  22345235.935   -23370123.77546 -18199286.59647  22345235.2054   22345240.3934
       149.000
  22227971.376   -27156560.84446 -21136396.20047  22227970.8564   22227977.1764
       156.000
  22867653.727    -6608618.26646  -4204654.97447  22867653.0044   22867660.1104
       140.000
  18712459.200   -45821873.80046 -34945756.77948  18712458.8544   18712463.2464
       215.000
  20670306.724   -12699071.70246  -9869775.62648  20670306.6154   20670311.2174
       182.000
 96  4 22  3  3 29.9940000  0  8 22 17 23 16 20 21 06 26
  21693984.941   -15752281.30946 -12260850.27348  21693983.8574   21693989.0494
       164.000
  19232854.013   -15377066.48846 -11962418.57948  19232853.1534   19232858.1644
       210.000
  19640031.476   -28612028.99946 -20317601.60048  19640030.7604   19640035.9764
       208.000
  22358835.645   -23298655.69446 -18143597.16647  22358834.9724   22358840.1744
       149.000
  22242195.872   -27081810.96146 -21078149.54047  22242195.3284   22242201.6284
       157.000
  22843778.210    -6734083.16046  -4302419.72047  22843777.6624   22843784.6444
       139.000
  18712589.874   -45821187.17546 -34945221.75048  18712589.5344   18712593.9544
       215.000
  20658853.998   -12759255.98046  -9916672.44548  20658853.9134   20658858.4804
       181.000
 96  4 22  3  3 59.9940000  0  8 22 17 23 16 20 21 06 26
  21682355.169   -15813395.62346 -12308471.79848  21682354.1694   21682359.3694
       164.000
  19222603.536   -15430932.83046 -12004392.33548  19222602.6994   19222607.7024
       211.000
  19623195.312   -28700503.29046 -20386542.57148  19623194.5954   19623199.8144
       208.000
  22372451.870   -23227100.68446 -18087840.02447  22372451.2744   22372456.4414
       149.000
  22256409.166   -27007119.20146 -21019948.18047  22256408.7094   22256415.0754
       158.000
  22819923.171    -6859442.34046  -4400102.08947  22819922.5464   22819929.3854
       142.000
  18712805.277   -45820055.34446 -34944339.80448  18712804.9554   18712809.3614
       215.000
  20647487.214   -12818989.01846  -9963217.63948  20647487.1024   20647491.6184
       182.000
 96  4 22  3  4 29.9940000  0  8 22 17 23 16 20 21 06 26
  21670819.245   -15874016.56646 -12355708.87448  21670818.2864   21670823.6414
       164.000
  19212395.172   -15484578.20146 -12046193.89648  19212394.3164   19212399.3214
       211.000
  19606434.401   -28788582.16346 -20455175.42948  19606433.7284   19606438.9484
       208.000
  22386089.025   -23155436.81846 -18031998.05447  22386088.4634   22386093.6164
       151.000
  22270621.190   -26932435.01246 -20961752.70147  22270620.7014   22270626.9724
       158.000
  22796094.760    -6984661.45546  -4497675.31447  22796094.1324   22796100.9154
       146.000
  18713113.875   -45818433.86146 -34943076.31448  18713113.5214   18713117.9224
       214.000
  20636215.089   -12878224.23846 -10009374.92148  20636214.9764   20636219.5354
       181.000
 96  4 22  3  4 59.9940000  0  8 22 17 23 16 20 21 06 26
  21659379.642   -15934131.13446 -12402551.36648  21659378.7744   21659384.3624
       165.000
  19202227.995   -15538006.85746 -12087826.59848  19202227.1554   19202232.1654
       211.000
  19589752.838   -28876244.50346 -20523483.70948  19589752.1174   19589757.3604
       208.000
  22399746.372   -23083666.95446 -17976073.47947  22399745.7594   22399750.9604
       153.000
  22284832.782   -26857751.86146 -20903558.04947  22284832.3324   22284838.7704
       157.000
  22772296.956    -7109719.07146  -4595122.68047  22772296.3484   22772303.1914
       147.000
  18713518.854   -45816305.63446 -34941417.95348  18713518.5014   18713522.9344
       214.000
  20625040.490   -12936946.68346 -10055132.62948  20625040.4024   20625044.9784
       181.000
 96  4 22  3  5 29.9940000  0  8 22 17 23 16 20 21 06 26
  21648028.552   -15993782.38446 -12449032.85748  21648027.5434   21648032.9284
       164.000
  19192093.877   -15591261.98946 -12129324.08548  19192093.0504   19192098.0324
       211.000
  19573144.640   -28963521.21646 -20591491.51048  19573143.8854   19573149.0834
       209.000
  22413413.916   -23011843.42046 -17920107.07847  22413413.2374   22413418.6514
       155.000
  22299036.354   -26783110.73446 -20845396.12947  22299036.0594   22299042.4534
       156.000
  22748522.756    -7234651.96546  -4692472.83247  22748522.2764   22748529.0964
       146.000
  18714010.541   -45813721.57246 -34939404.39648  18714010.2104   18714014.6534
       214.000
  20613953.410   -12995209.50846 -10100532.19748  20613953.3374   20613957.8634
       180.000
 96  4 22  3  5 59.9940000  0  8 22 17 23 16 20 21 06 26
  21636760.829   -16052994.19846 -12495171.89348  21636759.8234   21636765.2394
       164.000
  19181989.984   -15644358.50846 -12170697.97048  19181989.1354   19181994.1074
       211.000
  19556608.648   -29050418.03546 -20659203.27848  19556607.9324   19556613.1194
       209.000
  22427086.806   -22939991.99446 -17864118.95547  22427086.1214   22427091.5804
       155.000
  22313230.270   -26708521.47146 -20787274.62847  22313229.9724   22313236.3044
       155.000
  22724767.612    -7359486.11646  -4789746.05847  22724766.9514   22724773.9424
       146.000
  18714584.271   -45810706.72546 -34937055.16148  18714583.9234   18714588.3124
       214.000
  20602951.560   -13053024.63646 -10145582.89848  20602951.4634   20602956.0134
       181.000
 96  4 22  3  6 29.9940000  0  8 22 17 23 16 20 21 06 26
  21625577.757   -16111762.76046 -12540965.57748  21625576.7244   21625581.9894
       165.000
  19171909.723   -15697330.49846 -12211974.82648  19171908.8744   19171913.8494
       211.000
  19540141.914   -29136951.04946 -20726631.57048  19540141.2424   19540146.3934
       209.000
  22440761.709   -22868129.79146 -17808122.44947  22440761.0744   22440766.5304
       155.000
  22327412.818   -26633991.71946 -20729199.50147  22327412.4644   22327418.8554
       154.000
  22701030.414    -7484224.50446  -4886944.66447  22701029.8244   22701036.9594
       147.000
  18715237.604   -45807273.61646 -34934380.00948  18715237.2514   18715241.5884
       214.000
  20592036.047   -13110386.12146 -10190280.12048  20592035.9504   20592040.3984
       181.000
 96  4 22  3  6 59.9940000  0  8 22 17 23 16 20 21 06 26
  21614486.096   -16170050.23946 -12586384.37048  21614484.9634   21614490.2394
       165.000
  19161856.333   -15750161.34146 -12253141.69348  19161855.4744   19161860.4484
       211.000
  19523745.495   -29223114.84946 -20793772.16148  19523744.7934   19523749.9284
       209.000
  22454443.055   -22796233.76646 -17752099.57547  22454442.5124   22454447.9114
       155.000
  22341586.221   -26559510.04946 -20671161.85447  22341585.8024   22341592.2854
       153.000
  22677317.573    -7608837.83646  -4984045.89247  22677316.6904   22677323.6284
       148.000
  18715972.849   -45803409.86746 -34931369.29948  18715972.4824   18715976.8154
       214.000
  20581212.025   -13167266.63346 -10234602.54648  20581211.9444   20581216.4144
       182.000
 96  4 22  3  7 29.9940000  0  8 22 17 23 16 20 21 06 26
  21603490.898   -16227830.22046 -12631407.73148  21603489.8754   21603494.9464
       165.000
  19151834.481   -15802826.29946 -12294179.30248  19151833.6224   19151838.6044
       211.000
  19507426.082   -29308873.81046 -20860597.29348  19507425.3804   19507430.4954
       209.000
  22468136.696   -22724273.13546 -17696026.35447  22468136.2134   22468141.5884
       154.000
  22355756.150   -26485046.17046 -20613138.06747  22355755.7824   22355762.3574
       154.000
  22653627.817    -7733327.13946  -5081050.43647  22653627.1414   22653633.9634
       147.000
  18716793.213   -45799098.69446 -34928009.94448  18716792.8644   18716797.2194
       214.000
  20570486.561   -13223629.11246 -10278521.31948  20570486.4494   20570490.9024
       181.000
 96  4 22  3  7 59.9940000  0  8 22 17 23 16 20 21 06 26
  21592582.730   -16285153.03446 -12676074.82548  21592581.7074   21592586.8444
       165.000
  19141830.228   -15855398.56446 -12335144.67748  19141829.4074   19141834.3944
       211.000
  19491171.552   -29394291.94946 -20927156.84948  19491170.8434   19491175.9414
       209.000
  22481832.016   -22652304.44046 -17639946.85847  22481831.4224   22481836.8914
       154.000
  22369910.163   -26410667.34646 -20555180.53647  22369909.7244   22369916.1134
       154.000
  22629950.459    -7857752.09546  -5178004.85547  22629949.7224   22629956.4414
       147.000
  18717689.052   -45794390.93546 -34924341.56048  18717688.7144   18717693.0844
       214.000
  20559850.914   -13279518.78346 -10322071.66348  20559850.8324   20559855.3004
       181.000
 96  4 22  3  8 29.9940000  0  8 22 17 23 16 20 21 06 26
  21581763.786   -16342005.78146 -12720375.65248  21581762.8864   21581768.0634
       164.000
  19131845.788   -15907867.14846 -12376029.26548  19131844.9394   19131849.9244
       211.000
  19474983.752   -29479359.30846 -20993443.06548  19474983.0304   19474988.1284
       209.000
  22495532.087   -22580309.66646 -17583847.04347  22495531.4684   22495537.1464
       153.000
  22384049.543   -26336365.09146 -20497282.66847  22384048.9654   22384055.3514
       153.000
  22606288.073    -7982096.92946  -5274896.79247  22606287.4634   22606294.3564
       148.000
  18718662.564   -45789275.24146 -34920355.30048  18718662.2304   18718666.5874
       214.000
  20549306.180   -13334931.39446 -10365250.28748  20549306.0714   20549310.5274
       182.000
 96  4 22  3  8 59.9930000  0  8 22 17 23 16 20 21 06 26
  21571051.557   -16398299.27946 -12764240.70948  21571050.5334   21571055.6124
       164.000
  19121901.870   -15960122.74246 -12416747.88848  19121901.0234   19121906.0234
       211.000
  19458882.842   -29563970.17446 -21059373.57748  19458882.0964   19458887.1824
       209.000
  22509254.737   -22508195.97746 -17527654.56747  22509254.0884   22509260.1554
       151.000
  22398191.084   -26262049.84846 -20439374.69647  22398190.5964   22398197.0284
       152.000
  22582657.968    -8106273.60146  -5371657.71547  22582657.4024   22582664.2894
       151.000
  18719731.485   -45783658.09546 -34915978.30048  18719731.1504   18719735.4684
       214.000
  20538868.428   -13389782.44246 -10407991.33948  20538868.3474   20538872.7404
       184.000
 96  4 22  3  9 29.9930000  0  8 22 17 23 16 20 21 06 26
  21560438.431   -16454071.34446 -12807699.42348  21560437.3804   21560442.6804
       165.000
  19111991.826   -16012200.22546 -12457327.72448  19111990.9844   19111995.9694
       211.000
  19442861.891   -29648160.45946 -21124976.36548  19442861.1674   19442866.2624
       210.000
  22522993.201   -22435998.42146 -17471396.73547  22522992.7574   22522998.9964
       149.000
  22412327.995   -26187760.37146 -20381486.79747  22412327.4894   22412333.9044
       151.000
  22559052.805    -8230320.58246  -5468317.59747  22559052.0234   22559058.8654
       154.000
  18720889.908   -45777570.68246 -34911234.85548  18720889.5484   18720893.8634
       214.000
  20528528.201   -13444121.33346 -10450333.29448  20528528.1054   20528532.4224
       185.000
 96  4 22  3  9 59.9930000  0  8 22 17 23 16 20 21 06 26
  21549921.629   -16509337.62546 -12850764.03648  21549920.6104   21549925.8644
       165.000
  19102115.768   -16064099.30446 -12497768.54948  19102114.9114   19102119.9144
       211.000
  19426915.899   -29731957.15146 -21190272.45348  19426915.1474   19426920.2364
       210.000
  22536742.143   -22363745.78146 -17415095.99547  22536741.8384   22536748.1844
       146.000
  22426457.002   -26113513.08546 -20323631.75847  22426456.3974   22426462.7314
       150.000
  22535476.361    -8354215.05446  -5564858.63847  22535475.7254   22535482.4324
       154.000
  18722137.117   -45771016.45246 -34906127.66348  18722136.7644   18722141.1314
       213.000
  20518283.736   -13497956.82146 -10492283.00748  20518283.6384   20518287.8524
       187.000
 96  4 22  3 10 29.9930000  0  8 22 17 23 16 20 21 06 26
  21539498.609   -16564110.77646 -12893444.39648  21539497.6064   21539502.8464
       166.000
  19092275.995   -16115807.49846 -12538060.63148  19092275.1434   19092280.1404
       211.000
  19411043.728   -29815365.83746 -21255266.20748  19411042.9854   19411048.0504
       210.000
  22550500.124   -22291446.91146 -17358759.22647  22550499.8144   22550506.1154
       145.000
  22440576.855   -26039311.29446 -20265812.21247  22440576.3624   22440582.8904
       149.000
  22511930.085    -8477951.79746  -5661276.79847  22511929.3764   22511936.0044
       152.000
  18723473.179   -45763995.22346 -34900656.57248  18723472.8494   18723477.2184
       213.000
  20508133.836   -13551295.17146 -10533845.32948  20508133.7444   20508137.8764
       187.000
 96  4 22  3 10 59.9930000  0  8 22 17 23 16 20 21 06 26
  21529169.416   -16618389.75546 -12935739.66648  21529168.5574   21529173.9534
       166.000
  19082472.788   -16167323.52146 -12578202.96648  19082471.9604   19082476.9534
       211.000
  19395245.704   -29898384.78246 -21319956.26448  19395244.9814   19395250.0534
       210.000
  22564266.789   -22219103.37046 -17302387.63647  22564266.3844   22564272.4564
       143.000
  22454687.111   -25965160.64246 -20208032.48347  22454686.7044   22454693.3714
       149.000
  22488416.555    -8601515.50746  -5757560.11847  22488415.9044   22488422.4594
       151.000
  18724899.109   -45756501.92846 -34894817.64448  18724898.7624   18724903.1304
       213.000
  20498082.078   -13604117.89846 -10575005.86748  20498081.9834   20498086.0324
       186.000
 96  4 22  3 11 29.9930000  0  8 22 17 23 16 20 21 06 26
  21518933.034   -16672181.99446 -12977655.68548  21518932.2434   21518937.6064
       166.000
  19072706.731   -16218644.66946 -12618193.45348  19072705.8904   19072710.8464
       211.000
  19379522.255   -29981011.94646 -21384341.03848  19379521.5264   19379526.5854
       210.000
  22578041.530   -22146716.92146 -17245982.61947  22578040.9274   22578047.0544
       142.000
  22468785.691   -25891073.15546 -20150301.97047  22468785.2034   22468791.7254
       148.000
  22464936.905    -8724900.75946  -5853704.36347  22464936.3484   22464942.8984
       153.000
  18726416.204   -45748529.29146 -34888605.19548  18726415.8824   18726420.2554
       213.000
  20488129.256   -13656419.73446 -10615760.51348  20488129.1344   20488133.2314
       184.000
 96  4 22  3 11 59.9930000  0  8 22 17 23 16 20 21 06 26
  21508783.979   -16725515.39346 -13019214.14448  21508783.1994   21508788.6844
       167.000
  19062973.281   -16269794.16746 -12658050.18748  19062972.4294   19062977.3704
       212.000
  19363870.241   -30063263.96946 -21448433.49048  19363869.4724   19363874.5364
       211.000
  22591821.983   -22074300.34046 -17189554.09847  22591821.4174   22591827.4404
       143.000
  22482868.178   -25817069.00346 -20092636.39847  22482867.6354   22482874.2464
       148.000
  22441486.815    -8848132.02146  -5949728.63447  22441486.1824   22441492.7224
       156.000
  18728019.132   -45740106.39146 -34882041.88848  18728018.7824   18728023.1264
       213.000
  20478272.941   -13708214.21646 -10656119.80248  20478272.8274   20478277.0724
       182.000
 96  4 22  3 12 29.9930000  0  8 22 17 23 16 20 21 06 26
  21498732.060   -16778338.95246 -13060375.34048  21498731.2484   21498736.6814
       167.000
  19053278.048   -16320742.89746 -12697750.47748  19053277.2114   19053282.1454
       212.000
  19348300.351   -30145084.10946 -21512189.41348  19348299.6014   19348304.6644
       211.000
  22605617.179   -22001806.31746 -17133065.25047  22605616.5374   22605622.5924
       144.000
  22496940.698   -25743116.51046 -20035011.09547  22496940.3124   22496946.9054
       147.000
  22418069.530    -8971190.81646  -6045618.49947  22418068.8944   22418075.3584
       158.000
  18729714.657   -45731196.36646 -34875099.00848  18729714.3094   18729718.6774
       213.000
  20468518.653   -13759472.37246 -10696061.17548  20468518.5204   20468522.9674
       182.000
 96  4 22  3 12 59.9930000  0  8 22 17 23 16 20 21 06 26
  21488777.749   -16830649.11346 -13101136.47348  21488776.9294   21488782.3684
       167.000
  19043619.671   -16371497.83346 -12737299.76448  19043618.8474   19043623.7644
       212.000
  19332811.469   -30226478.43746 -21575613.53748  19332810.7544   19332815.8314
       211.000
  22619426.982   -21929235.81246 -17076516.78947  22619426.2174   22619432.3774
       145.000
  22511003.310   -25669217.75646 -19977427.64447  22511002.8174   22511009.2244
       147.000
  22394681.011    -9094097.37946  -6141389.73647  22394680.5054   22394686.9194
       157.000
  18731501.341   -45721806.96946 -34867782.60148  18731501.0224   18731505.3964
       213.000
  20458865.588   -13810199.24246 -10735588.57348  20458865.4924   20458869.9724
       183.000
 96  4 22  3 13 29.9930000  0  8 22 17 23 16 20 21 06 26
  21478927.829   -16882411.04546 -13141470.41948  21478926.9784   21478932.3724
       167.000
  19034003.406   -16422031.79946 -12776676.86648  19034002.5544   19034007.4624
       212.000
  19317409.455   -30307416.49046 -21638682.12348  19317408.7364   19317413.7964
       211.000
  22633256.177   -21856563.38146 -17019888.90647  22633255.4134   22633261.4154
       146.000
  22525062.085   -25595338.51646 -19919859.40347  22525061.5244   22525068.0604
       146.000
  22371325.046    -9216834.75546  -6237029.17147  22371324.2554   22371330.6504
       155.000
  18733386.448   -45711900.90846 -34860063.58748  18733386.1174   18733390.4454
       213.000
  20449317.273   -13860375.77846 -10774687.12748  20449317.2224   20449321.7344
       185.000
 96  4 22  3 13 59.9930000  0  8 22 17 23 16 20 21 06 26
  21469175.361   -16933660.65446 -13181405.16648  21469174.4804   21469179.8294
       168.000
  19024418.768   -16472399.42146 -12815924.34848  19024417.9104   19024422.7964
       212.000
  19302085.297   -30387945.45046 -21701431.93448  19302084.5554   19302089.5914
       211.000
  22647094.841   -21783840.90146 -16963222.01947  22647094.1734   22647099.9984
       147.000
  22539110.162   -25521514.45546 -19862334.16447  22539109.5594   22539116.3024
       145.000
  22347990.212    -9339458.35746  -6332579.92247  22347989.5594   22347996.0184
       154.000
  18735362.176   -45701518.35146 -34851973.28548  18735361.8294   18735366.1524
       213.000
  20439865.495   -13910046.24846 -10813391.36448  20439865.3954   20439869.7384
       187.000
 96  4 22  3 14 29.9930000  0  8 22 17 23 16 20 21 06 26
  21459525.970   -16984367.55246 -13220917.00948  21459525.2004   21459530.6294
       168.000
  19014871.935   -16522568.18946 -12855016.87548  19014871.0794   19014875.9664
       212.000
  19286843.085   -30468043.84846 -21763846.24648  19286842.3274   19286847.3254
       211.000
  22660947.635   -21711045.53746 -16906498.34147  22660946.8034   22660952.5744
       149.000
  22553152.480   -25447721.61146 -19804833.24247  22553152.0284   22553158.5434
       144.000
  22324683.299    -9461937.08446  -6428017.81547  22324682.4744   22324688.9164
       154.000
  18737436.864   -45690615.90746 -34843477.87648  18737436.5224   18737440.8124
       213.000
  20430517.894   -13959169.16246 -10851668.94248  20430517.7864   20430521.9634
       188.000
 96  4 22  3 14 59.9930000  0  8 22 17 23 16 20 21 06 26
  21449977.615   -17034544.80546 -13260016.14648  21449976.7904   21449982.1284
       168.000
  19005361.369   -16572546.66046 -12893961.12648  19005360.5134   19005365.3764
       212.000
  19271679.494   -30547728.71446 -21825938.32348  19271678.7744   19271683.7624
       212.000
  22674810.880   -21638194.94646 -16849731.64147  22674810.0654   22674815.5854
       150.000
  22567187.819   -25373965.55046 -19747360.97947  22567187.3114   22567193.8954
       143.000
  22301406.447    -9584257.68246  -6523332.47347  22301405.6194   22301412.0174
       155.000
  18739605.767   -45679218.14346 -34834596.50248  18739605.3914   18739609.7264
       213.000
  20421275.023   -14007740.99546 -10889517.10548  20421274.9254   20421278.9814
       187.000
 96  4 22  3 15 29.9930000  0  8 22 17 23 16 20 21 06 26
  21440521.953   -17084234.66046 -13298735.49048  21440521.0664   21440526.3394
       168.000
  18995876.479   -16622389.89746 -12932799.99548  18995875.6394   18995880.4844
       212.000
  19256587.600   -30627036.88946 -21887736.87048  19256586.9124   19256591.9044
       212.000
  22688674.153   -21565344.11746 -16792964.74747  22688673.2484   22688678.6444
       150.000
  22581206.213   -25300298.47546 -19689958.07147  22581205.7464   22581212.3854
       143.000
  22278155.651    -9706439.64746  -6618539.11547  22278155.0344   22278161.5244
       155.000
  18741860.152   -45667371.03046 -34825364.99048  18741859.8204   18741864.1984
       213.000
  20412129.705   -14055799.36346 -10926965.16248  20412129.6174   20412133.5924
       184.000
 96  4 22  3 15 59.9930000  0  8 22 17 23 16 20 21 06 26
  21431155.711   -17133454.62646 -13337088.69348  21431154.7314   21431160.1384
       168.000
  18986416.699   -16672101.46746 -12971536.27148  18986415.8384   18986420.6784
       212.000
  19241564.816   -30705982.17146 -21949252.65448  19241564.1324   19241569.1334
       212.000
  22702535.014   -21492505.38046 -16736207.29947  22702534.1224   22702539.5204
       149.000
  22595204.510   -25226737.45946 -19632637.79447  22595204.0454   22595210.4424
       143.000
  22254931.425    -9828483.51946  -6713638.14747  22254930.7624   22254937.2494
       155.000
  18744193.620   -45655108.72246 -34815809.95048  18744193.2854   18744197.6554
       212.000
  20403082.146   -14103343.57846 -10964012.58448  20403082.0704   20403086.1224
       182.000
 96  4 22  3 16 29.9930000  0  8 22 17 23 16 20 21 06 26
  21421887.378   -17182159.85346 -13375040.80548  21421886.3974   21421891.8144
       168.000
  18976990.738   -16721635.16246 -13010133.94448  18976989.9034   18976994.7534
       212.000
  19226618.416   -30784525.96246 -22010455.58248  19226617.7204   19226622.7144
       212.000
  22716401.597   -21419636.69646 -16679426.49847  22716400.6034   22716406.0114
       148.000
  22609190.655   -25153240.30846 -19575367.26647  22609190.0434   22609196.4224
       143.000
  22231745.506    -9950324.95846  -6808579.44147  22231744.9844   22231751.5294
       153.000
  18746609.348   -45642414.05446 -34805917.99848  18746608.9934   18746613.3674
       212.000
  20394141.477   -14150326.72946 -11000622.80448  20394141.3604   20394145.5114
       181.000
 96  4 22  3 16 59.9930000  0  8 22 17 23 16 20 21 06 26
  21412714.878   -17230360.92046 -13412600.06948  21412714.0064   21412719.3824
       168.000
  18967595.857   -16771005.67346 -13048604.45448  18967594.9974   18967599.8284
       213.000
  19211747.460   -30862673.46646 -22071349.71248  19211746.7254   19211751.7224
       212.000
  22730270.366   -21346756.63746 -16622636.82047  22730269.1924   22730274.4814
       147.000
  22623161.895   -25079820.34446 -19518156.92847  22623161.4614   22623167.9364
       144.000
  22208596.138   -10071975.54446  -6903372.02747  22208595.5694   22208602.0764
       152.000
  18749104.263   -45629303.25846 -34795701.79248  18749103.9164   18749108.2744
       212.000
  20385301.961   -14196778.35046 -11036818.84848  20385301.8194   20385306.0554
       180.000
 96  4 22  3 17 29.9930000  0  8 22 17 23 16 20 21 06 26
  21403634.217   -17278080.49846 -13449784.12948  21403633.2434   21403638.5924
       168.000
  18958229.697   -16820224.94046 -13086957.11748  18958228.8514   18958233.6974
       213.000
  19196948.505   -30940442.16446 -22131948.67448  19196947.8104   19196952.8164
       212.000
  22744138.145   -21273881.94646 -16565851.34347  22744136.9314   22744142.0334
       146.000
  22637113.206   -25006506.25746 -19461029.06447  22637112.8524   22637119.1314
       145.000
  22185476.013   -10193472.80746  -6998045.14347  22185475.4154   22185481.7444
       152.000
  18751678.918   -45615773.32346 -34785158.99048  18751678.5634   18751682.9524
       212.000
  20376560.501   -14242714.67346 -11072613.35348  20376560.3614   20376564.6364
       180.000
 96  4 22  3 17 59.9930000  0  8 22 17 23 16 20 21 06 26
  21394639.838   -17325346.33046 -13486614.63248  21394638.8104   21394644.4424
       169.000
  18948889.424   -16869308.34146 -13125203.90948  18948888.5774   18948893.4104
       213.000
  19182216.266   -31017860.18846 -22192274.38548  19182215.5994   19182220.5954
       212.000
  22758000.909   -21201032.79146 -16509085.77447  22757999.6154   22758004.7384
       144.000
  22651038.440   -24933329.63546 -19404008.32347  22651037.9734   22651044.2514
       146.000
  22162377.754   -10314854.97746  -7092628.59347  22162377.1164   22162383.4314
       152.000
  18754327.770   -45601853.17746 -34774312.12748  18754327.4294   18754331.8604
       212.000
  20367910.906   -14288168.07046 -11108031.55948  20367910.8094   20367915.1004
       181.000
 96  4 22  3 18 29.9930000  0  8 22 17 23 16 20 21 06 26
  21385744.928   -17372089.42046 -13523037.81648  21385743.8884   21385749.5314
       169.000
  18939586.232   -16918196.79546 -13163298.78948  18939585.3884   18939590.2404
       213.000
  19167561.408   -31094872.20346 -22252283.72548  19167560.6844   19167565.6574
       213.000
  22771870.946   -21128144.07146 -16452289.37647  22771869.9124   22771875.0424
       143.000
  22664948.113   -24860233.79346 -19347050.53647  22664947.6134   22664953.9534
       146.000
  22139312.767   -10436062.30346  -7187075.78047  22139312.0434   22139318.3874
       152.000
  18757067.290   -45587456.94646 -34763094.28748  18757066.9534   18757071.3574
       212.000
  20359364.161   -14333081.63046 -11143029.11448  20359364.0954   20359368.3664
       182.000
 96  4 22  3 18 59.9930000  0  8 22 17 23 16 20 21 06 26
  21376948.305   -17418315.19246 -13559057.87448  21376947.4174   21376953.1064
       170.000
  18930321.458   -16966883.33446 -13201236.33348  18930320.6324   18930325.4644
       213.000
  19152983.320   -31171480.44246 -22311978.43248  19152982.5964   19152987.5424
       213.000
  22785746.954   -21055224.50446 -16395468.93247  22785745.9464   22785751.1104
       143.000
  22678837.807   -24787243.44646 -19290174.93347  22678837.2184   22678843.5124
       147.000
  22116276.301   -10557119.02646  -7281405.61547  22116275.6514   22116281.9924
       153.000
  18759900.155   -45572570.28246 -34751494.29648  18759899.8124   18759904.2124
       211.000
  20350917.605   -14377468.98646 -11177616.64948  20350917.5234   20350921.6524
       182.000
 96  4 22  3 19 29.9930000  0  8 22 17 23 16 20 21 06 26
  21368251.161   -17464019.02746 -13594671.22748  21368250.2584   21368255.9584
       170.000
  18921095.589   -17015365.47046 -13239014.60548  18921094.7694   18921099.5864
       212.000
  19138481.928   -31247685.77346 -22371359.19248  19138481.2154   19138486.1584
       213.000
  22799629.754   -20982270.01846 -16338621.26947  22799628.5374   22799633.7644
       141.000
  22692705.924   -24714364.90546 -19233386.45947  22692705.5774   22692711.8714
       146.000
  22093268.637   -10678024.75446  -7375617.81347  22093267.9494   22093274.4024
       153.000
  18762824.438   -45557202.95846 -34739519.76548  18762824.1074   18762828.4714
       211.000
  20342572.634   -14421322.40946 -11211788.12448  20342572.5404   20342576.5364
       183.000
 96  4 22  3 19 59.9930000  0  7 22 17 23 20 21 06 26
  21359654.842   -17509193.13646 -13629871.81948  21359653.8994   21359659.5954
       169.000
  18911910.557   -17063632.97946 -13276625.63448  18911909.7374   18911914.5554
       213.000
  19124058.876   -31323479.53846 -22430419.24748  19124058.1404   19124063.0684
       213.000
  22706554.029   -24641592.40846 -19176680.60947  22706553.6204   22706559.9974
       147.000
  22070294.230   -10798755.68946  -7469693.81147  22070293.5644   22070299.9194
       154.000
  18765839.062   -45541361.16446 -34727175.51348  18765838.7204   18765843.0844
       211.000
  20334329.018   -14464643.08846 -11245544.48448  20334328.9274   20334332.7904
       183.000
 96  4 22  3 20 29.9930000  0  7 22 17 23 20 21 06 26
  21351156.396   -17553853.29946 -13664671.93248  21351155.4924   21351161.0594
       170.000
  18902761.966   -17111709.21346 -13314087.61448  18902761.1214   18902765.9314
       213.000
  19109714.412   -31398859.77346 -22489157.06748  19109713.7004   19109718.6364
       213.000
  22720379.451   -24568939.32246 -19120067.83947  22720378.9994   22720385.4334
       148.000
  22047351.485   -10919320.43646  -7563640.31547  22047350.8864   22047357.0744
       154.000
  18768943.967   -45525044.60446 -34714461.31448  18768943.6314   18768948.0054
       211.000
  20326185.955   -14507434.81146 -11278888.65648  20326185.8644   20326189.7784
       183.000
 96  4 22  3 20 59.9930000  0  7 22 17 23 20 21 06 26
  21342752.776   -17598015.76946 -13699084.22848  21342751.8804   21342757.1764
       170.000
  18893646.911   -17159609.19446 -13351412.26348  18893646.0714   18893650.8654
       213.000
  19095452.292   -31473807.85646 -22547558.15048  19095451.5444   19095456.4754
       213.000
  22734180.575   -24496415.33746 -19063555.65347  22734179.8154   22734186.3984
       146.000
  22024439.585   -11039723.07846  -7657460.52347  22024438.9184   22024445.1324
       154.000
  18772135.112   -45508275.12846 -34701394.20048  18772134.7724   18772139.1804
       211.000
  20318144.481   -14549693.04846 -11311817.13248  20318144.3614   20318148.2794
       183.000
 96  4 22  3 21 29.9930000  0  7 22 17 23 20 21 06 26
  21334439.662   -17641702.69846 -13733125.98748  21334438.6754   21334443.7544
       171.000
  18884558.810   -17207367.58746 -13388626.58048  18884557.9734   18884562.7254
       213.000
  19081270.856   -31548331.83946 -22605628.76748  19081270.0824   19081275.0064
       213.000
  22747958.079   -24424013.51146 -19007138.63747  22747957.4464   22747963.9314
       144.000
  22001560.407   -11159953.03546  -7751146.14847  22001559.8874   22001566.0774
       155.000
  18775409.476   -45491068.21146 -34687986.21948  18775409.1454   18775413.5414
       211.000
  20310205.898   -14591410.56546 -11344324.26648  20310205.7774   20310209.7324
       183.000
 96  4 22  3 21 59.9930000  0  7 22 17 23 20 21 06 26
  21326217.353   -17684911.38846 -13766795.07948  21326216.3474   21326221.3244
       171.000
  18875497.519   -17254984.89746 -13425730.95648  18875496.6764   18875501.4274
       213.000
  19067172.903   -31622416.75646 -22663357.24948  19067172.1614   19067177.0764
       213.000
  22761716.015   -24351715.52746 -18950802.54347  22761715.3624   22761721.6854
       142.000
  21978713.545   -11280013.96946  -7844700.06447  21978712.9744   21978719.1974
       157.000
  18778770.675   -45473404.93646 -34674222.63348  18778770.3484   18778774.7614
       210.000
  20302373.561   -14632569.31046 -11376396.00148  20302373.4794   20302377.4834
       184.000
 96  4 22  3 22 29.9930000  0  8 22 17 23 20 21 28 06 26
  21318087.283   -17727635.80846 -13800086.81948  21318086.1564   21318090.9814
       170.000
  18866460.524   -17302474.82646 -13462736.08348  18866459.6624   18866464.3974
       213.000
  19053159.103   -31696059.89246 -22720741.49048  19053158.3334   19053163.2534
       213.000
  22775453.920   -24279520.92646 -18894547.05647  22775453.3824   22775459.9734
       141.000
  21955895.514   -11399924.15546  -7938136.52747  21955894.8904   21955901.0434
       159.000
  22735256.406    -6575782.187 6  -5100279.838 8  22735255.400    22735260.427
       188.000
  18782219.011   -45455283.82446 -34660102.29748  18782218.6614   18782223.0564
       210.000
  20294647.993   -14673167.06346 -11408030.58748  20294647.8984   20294652.0034
       185.000
 96  4 22  3 22 59.9930000  0  8 22 17 23 20 21 28 06 26
  21310050.893   -17769867.24546 -13832994.40548  21310049.8194   21310054.6504
       171.000
  18857451.225   -17349818.70046 -13499627.39848  18857450.3694   18857455.1314
       213.000
  19039227.494   -31769270.59146 -22777788.76648  19039226.7684   19039231.6694
       214.000
  22789175.727   -24207411.81646 -18838358.17947  22789175.2824   22789181.8954
       142.000
  21933108.032   -11519673.46046  -8031447.62247  21933107.3854   21933113.4574
       160.000
  22709734.069    -6709902.310 6  -5204788.945 8  22709733.169    22709738.175
       188.000
  18785753.440   -45436710.40646 -34645629.50848  18785753.1044   18785757.4544
       210.000
  20287030.100   -14713199.06946 -11439224.32148  20287030.0024   20287034.2384
       185.000
 96  4 22  3 23 29.9930000  0  8 22 17 23 20 21 28 06 26
  21302114.258   -17811573.96146 -13865493.14648  21302113.2744   21302118.1184
       171.000
  18848476.225   -17396982.74046 -13536378.58848  18848475.3824   18848480.1324
       213.000
  19025376.347   -31842058.76046 -22834506.79848  19025375.6364   19025380.5204
       214.000
  22802886.796   -24135360.26246 -18782214.07747  22802886.2114   22802892.8314
       138.000
  21910357.189   -11639229.72746  -8124608.30047  21910356.5364   21910362.6034
       160.000
  22684214.997    -6844004.875 6  -5309284.351 8  22684214.225    22684219.264
       188.000
  18789379.596   -45417655.04946 -34630781.18948  18789379.2334   18789383.5614
       210.000
  20279520.539   -14752661.77446 -11469974.45748  20279520.4804   20279524.7604
       186.000
 96  4 22  3 23 59.9930000  0  8 22 17 23 20 21 28 06 26
  21294277.391   -17852756.03046 -13897583.07148  21294276.4494   21294281.3014
       170.000
  18839537.040   -17443958.47146 -13572983.03748  18839536.1614   18839540.9064
       213.000
  19011603.230   -31914436.93146 -22890905.35248  19011602.5114   19011607.3904
       214.000
  22816580.620   -24063396.30146 -18726138.32447  22816580.3094   22816587.3354
       137.000
  21887640.238   -11758607.79546  -8217630.10147  21887639.5624   21887645.6344
       160.000
  22658697.963    -6978098.286 6  -5413772.628 8  22658697.031    22658702.059
       189.000
  18793097.596   -45398116.62846 -34615556.45348  18793097.2304   18793101.5464
       210.000
  20272114.722   -14791579.98246 -11500300.30248  20272114.6674   20272118.9134
       188.000
 96  4 22  3 24 29.9930000  0  8 22 17 23 20 21 28 06 26
  21286539.297   -17893419.47346 -13929268.86448  21286538.4064   21286543.2584
       170.000
  18830635.094   -17490738.44846 -13609434.95348  18830634.2334   18830638.9824
       213.000
  18997902.746   -31986433.42446 -22947006.49448  18997902.0464   18997906.9354
       214.000
  22830253.869   -23991543.54046 -18670149.17247  22830253.5154   22830260.4564
       141.000
  21864962.506   -11877779.59046  -8310491.18248  21864961.8524   21864967.9974
       162.000
  22633182.072    -7112185.248 6  -5518255.905 8  22633181.095    22633186.077
       190.000
  18796903.895   -45378114.23046 -34599970.17348  18796903.5644   18796907.8864
       209.000
  20264809.653   -14829968.52246 -11530213.42548  20264809.6044   20264813.7744
       188.000
 96  4 22  3 24 59.9930000  0  7 22 17 23 21 28 06 26
  21278899.991   -17933563.68646 -13960550.07248  21278899.2144   21278903.9374
       170.000
  18821772.414   -17537311.99946 -13645726.02148  18821771.5594   18821776.3144
       213.000
  18984272.979   -32058058.22346 -23002818.00148  18984272.2624   18984277.1414
       214.000
  21842329.608   -11996716.68646  -8403169.38848  21842328.9304   21842334.9774
       165.000
  22607669.235    -7246255.023 6  -5622725.784 8  22607668.407    22607673.375
       190.000
  18800799.202   -45357644.34146 -34584019.61548  18800798.8584   18800803.2064
       209.000
  20257606.921   -14867819.32546 -11559707.54348  20257606.8614   20257610.9584
       187.000
 96  4 22  3 25 29.9930000  0  7 22 17 23 21 28 06 26
  21271357.411   -17973201.22746 -13991436.47148  21271356.5164   21271361.1484
       171.000
  18812944.672   -17583701.89246 -13681873.98248  18812943.8404   18812948.5814
       213.000
  18970711.776   -32129322.81046 -23058348.82848  18970711.0604   18970715.9424
       214.000
  21819736.848   -12115441.97346  -8495682.53648  21819736.2714   21819742.2894
       165.000
  22582157.801    -7380318.580 6  -5727190.821 8  22582156.868    22582161.861
       192.000
  18804783.232   -45336708.22746 -34567705.77348  18804782.8904   18804787.2584
       209.000
  20250503.972   -14905145.36346 -11588792.75048  20250503.8984   20250507.9344
       186.000
 96  4 22  3 25 59.9930000  0  7 22 17 23 21 28 06 26
  21263913.603   -18012319.48846 -14021918.23748  21263912.5794   21263917.1824
       171.000
  18804153.669   -17629898.97646 -13717871.69648  18804152.8264   18804157.5734
       213.000
  18957225.828   -32200191.78546 -23113571.38348  18957225.1064   18957229.9844
       214.000
  21797183.306   -12233961.04646  -8588035.00048  21797182.7554   21797188.8704
       163.000
  22556650.858    -7514358.474 6  -5831637.435 8  22556649.866    22556654.832
       193.000
  18808856.758   -45315301.69546 -34551025.36648  18808856.4504   18808860.8044
       209.000
  20243507.433   -14941912.26546 -11617442.26548  20243507.3614   20243511.2894
       185.000
 96  4 22  3 26 29.9930000  0  7 22 17 23 21 28 06 26
  21256568.229   -18050920.14046 -14051996.66748  21256567.1954   21256571.7054
       172.000
  18795400.483   -17675897.24546 -13753714.49748  18795399.6264   18795404.3954
       213.000
  18943816.950   -32270655.87446 -23168478.44848  18943816.2094   18943821.1054
       214.000
  21774668.703   -12352275.51446  -8680228.02548  21774668.2114   21774674.2784
       163.000
  22531149.387    -7648368.165 6  -5936060.533 8  22531148.630    22531153.565
       194.000
  18813017.104   -45293439.13346 -34533989.60848  18813016.7604   18813021.1344
       209.000
  20236619.862   -14978106.25046 -11645645.35048  20236619.8004   20236623.7634
       185.000
 96  4 22  3 26 59.9930000  0  7 22 17 23 21 28 06 26
  21249319.411   -18089012.06946 -14081678.67848  21249318.4934   21249323.0344
       172.000
  18786683.399   -17721705.73846 -13789409.41048  18786682.5404   18786687.2994
       213.000
  18930487.878   -32340700.39846 -23223058.56848  18930487.1474   18930492.0414
       214.000
  21752184.408   -12470431.39846  -8772297.50548  21752183.8974   21752189.8604
       163.000
  22505652.544    -7782355.361 6  -6040466.101 8  22505651.671    22505656.555
       196.000
  18817264.771   -45271117.26046 -34516595.94648  18817264.4494   18817268.8254
       209.000
  20229841.161   -15013728.26646 -11673402.74648  20229841.0934   20229845.1274
       185.000
 96  4 22  3 27 29.9930000  0  7 22 17 23 21 28 06 26
  21242169.307   -18126585.19846 -14110956.44948  21242168.4334   21242173.0754
       171.000
  18778005.974   -17767305.94646 -13824942.03748  18778005.1084   18778009.8484
       213.000
  18917244.394   -32410295.35846 -23277288.39448  18917243.6654   18917248.5564
       215.000
  21729729.075   -12588434.78346  -8864248.12548  21729728.5424   21729734.4914
       164.000
  22480162.775    -7916304.465 6  -6144842.009 8  22480161.988    22480166.792
       198.000
  18821603.014   -45248319.71546 -34498831.63448  18821602.6864   18821607.0834
       209.000
  20223175.629   -15048755.72746 -11700696.86148  20223175.5864   20223179.6534
       185.000
 96  4 22  3 27 59.9930000  0  7 22 17 23 21 28 06 26
  21235111.154   -18163676.17646 -14139858.52048  21235110.2004   21235114.9954
       171.000
  18769363.781   -17812720.95946 -13860330.34448  18769362.9104   18769367.6554
       213.000
  18904082.212   -32479462.79546 -23331185.07648  18904081.4974   18904086.3624
       215.000
  21707299.099   -12706305.07546  -8956095.03348  21707298.5104   21707304.5824
       164.000
  22454675.430    -8050242.425 6  -6249209.234 8  22454674.492    22454679.198
       199.000
  18826022.575   -45225094.74846 -34480734.25948  18826022.2464   18826026.6154
       209.000
  20216618.274   -15083214.59746 -11727547.91348  20216618.1974   20216622.2414
       185.000
 96  4 22  3 28 29.9930000  0  7 22 17 23 21 28 06 26
  21228151.108   -18200251.77046 -14168358.98948  21228150.0284   21228154.9944
       171.000
  18760761.459   -17857926.24346 -13895555.22848  18760760.6164   18760765.3474
       213.000
  18891007.409   -32548171.30846 -23384724.15548  18891006.6884   18891011.5344
       215.000
  21684904.467   -12823989.07646  -9047796.78648  21684903.8934   21684910.0064
       164.000
  22429196.615    -8184133.934 6  -6353540.264 8  22429195.771    22429200.431
       200.000
  18830532.534   -45201394.81046 -34462266.78548  18830532.1844   18830536.5824
       208.000
  20210173.104   -15117084.28146 -11753939.85848  20210173.0184   20210177.0544
       185.000
 96  4 22  3 28 59.9930000  0  7 22 17 23 21 28 06 26
  21221288.411   -18236315.00846 -14196460.21448  21221287.3894   21221292.3954
       171.000
  18752191.539   -17902961.44746 -13930647.58548  18752190.6894   18752195.4174
       213.000
  18878017.054   -32616436.17246 -23437917.53448  18878016.3114   18878021.1384
       215.000
  21662544.427   -12941492.09846  -9139357.53248  21662543.8134   21662549.8544
       164.000
  22403724.021    -8317992.727 6  -6457845.790 8  22403723.235    22403727.885
       200.000
  18835132.579   -45177221.34346 -34443430.31948  18835132.2494   18835136.6254
       208.000
  20203837.590   -15150377.57446 -11779882.67248  20203837.5044   20203841.5484
       185.000
 96  4 22  3 29 29.9930000  0  7 22 17 23 21 28 06 26
  21214524.041   -18271861.52546 -14224158.79648  21214523.0714   21214528.1214
       171.000
  18743652.694   -17947833.27946 -13965612.63648  18743651.8604   18743656.5974
       213.000
  18865111.645   -32684254.49746 -23490762.95948  18865110.9064   18865115.7094
       215.000
  21640226.591   -13058772.40446  -9230744.72648  21640226.0044   21640231.9984
       163.000
  22378259.536    -8451809.325 6  -6562118.452 8  22378258.804    22378263.379
       202.000
  18839821.610   -45152580.21146 -34424229.44448  18839821.2834   18839825.6674
       208.000
  20197610.683   -15183099.71646 -11805380.41748  20197610.6254   20197614.7644
       185.000
 96  4 22  3 29 59.9930000  0  7 22 17 23 21 28 06 26
  21207859.680   -18306883.85646 -14251448.93248  21207858.6454   21207863.6194
       172.000
  18735145.110   -17992540.91446 -14000449.74648  18735144.2504   18735148.9944
       213.000
  18852290.956   -32751627.53446 -23543261.41548  18852290.2414   18852295.0154
       215.000
  21617955.638   -13175807.07246  -9321940.51948  21617954.9324   21617960.9114
       162.000
  22352804.535    -8585576.749 6  -6666352.786 8  22352803.706    22352808.305
       202.000
  18844598.942   -45127474.99946 -34404666.94748  18844598.6264   18844603.0454
       208.000
  20191489.696   -15215265.92746 -11830444.97848  20191489.6134   20191493.7884
       185.000
